[[{"header":{"parameterUnit":"m.s-1","parameterCategory":1,"la1":30.6,"la2":28.766,"lo1":-90.7593,"lo2":-88.6598,"dy":0.0162,"dx":0.0183,"nx":116,"ny":114,"refTime":"2023-11-09T18:00:00:Z","depth":0,"parameterNumber":2,"parameterNumberName":"U-component_of_WINDS"},"data":[0.0,0.0,0.0,0.0,0.0,0.0,0.0,0.0,0.0,0.0,0.0,0.0,0.0,0.0,0.0,0.0,0.0,0.0,0.0,0.0,0.0,0.0,0.0,0.0,0.0,0.0,0.0,0.0,0.0,0.0,0.0,0.0,0.0,0.0,0.0,0.0,0.0,0.0,0.0,0.0,0.0,0.0,0.0,0.0,0.0,0.0,0.0,0.0,0.0,0.0,0.0,0.0,0.0,0.0,0.0,0.0,0.0,0.0,0.0,0.0,0.0,0.0,0.0,0.0,0.0,0.0,0.0,0.0,0.0,0.0,0.0,0.0,0.0,0.0,0.0,0.0,0.0,0.0,0.0,0.0,0.0,0.0,0.0,0.0,0.0,0.0,0.0,0.0,0.0,0.0,0.0,0.0,0.0,0.0,0.0,0.0,0.0,0.0,0.0,0.0,0.0,0.0,0.0,0.0,0.0,0.0,0.0,0.0,0.0,0.0,0.0,0.0,0.0,0.0,0.0,0.0,0.0,0.0,0.0,0.0,0.0,0.0,0.0,0.0,0.0,0.0,0.0,0.0,0.0,0.0,0.0,0.0,0.0,0.0,0.0,0.0,0.0,0.0,0.0,0.0,0.0,0.0,0.0,0.0,0.0,0.0,0.0,0.0,0.0,0.0,0.0,0.0,0.0,0.0,0.0,0.0,0.0,0.0,0.0,0.0,0.0,0.0,0.0,0.0,0.0,0.0,0.0,0.0,0.0,0.0,0.0,0.0,0.0,0.0,0.0,0.0,0.0,0.0,0.0,0.0,0.0,0.0,0.0,0.0,0.0,0.0,0.0,0.0,0.0,0.0,0.0,0.0,0.0,0.0,0.0,0.0,0.0,0.0,0.0,0.0,0.0,0.0,0.0,0.0,0.0,0.0,0.0,0.0,0.0,0.0,0.0,0.0,0.0,0.0,0.0,0.0,0.0,0.0,0.0,0.0,0.0,0.0,0.0,0.0,0.0,0.0,0.0,0.0,0.0,0.0,0.0,0.0,0.0,0.0,0.0,0.0,0.0,0.0,0.0,0.0,0.0,0.0,0.0,0.0,0.0,0.0,0.0,0.0,0.0,0.0,0.0,0.0,0.0,0.0,0.0,0.0,0.0,0.0,0.0,0.0,0.0,0.0,0.0,0.0,0.0,0.0,0.0,0.0,0.0,0.0,0.0,0.0,0.0,0.0,0.0,0.0,0.0,0.0,0.0,0.0,0.0,0.0,0.0,0.0,0.0,0.0,0.0,0.0,0.0,0.0,0.0,0.0,0.0,0.0,0.0,0.0,0.0,0.0,0.0,0.0,0.0,0.0,0.0,0.0,0.0,0.0,0.0,0.0,0.0,0.0,0.0,0.0,0.0,0.0,0.0,0.0,0.0,0.0,0.0,0.0,0.0,0.0,0.0,0.0,0.0,0.0,0.0,0.0,0.0,0.0,0.0,0.0,0.0,0.0,0.0,0.0,0.0,0.0,0.0,0.0,0.0,0.0,0.0,0.0,0.0,0.0,0.0,0.0,0.0,0.0,0.0,0.0,0.0,0.0,0.0,0.0,0.0,0.0,0.0,0.0,0.0,0.0,0.0,0.0,0.0,0.0,0.0,0.0,0.0,0.0,0.0,0.0,0.0,0.0,0.0,0.0,0.0,0.0,0.0,0.0,0.0,0.0,0.0,0.0,0.0,0.0,0.0,0.0,0.0,0.0,0.0,0.0,0.0,0.0,0.0,0.0,0.0,0.0,0.0,0.0,0.0,0.0,0.0,0.0,0.0,0.0,0.0,0.0,0.0,0.0,0.0,0.0,0.0,0.0,0.0,0.0,0.0,0.0,0.0,0.0,0.0,0.0,0.0,0.0,0.0,0.0,0.0,0.0,0.0,0.0,0.0,0.0,0.0,0.0,0.0,0.0,0.0,0.0,0.0,0.0,0.0,0.0,0.0,0.0,0.0,0.0,0.0,0.0,0.0,0.0,0.0,0.0,0.0,0.0,0.0,0.0,0.0,0.0,0.0,0.0,0.0,0.0,0.0,0.0,0.0,0.0,0.0,0.0,0.0,0.0,0.0,0.0,0.0,0.0,0.0,0.0,0.0,0.0,0.0,0.0,0.0,0.0,0.0,0.0,0.0,0.0,0.0,0.0,0.0,0.0,0.0,0.0,0.0,0.0,0.0,0.0,0.0,0.0,0.0,0.0,0.0,0.0,0.0,0.0,0.0,0.0,0.0,0.0,0.0,0.0,0.0,0.0,0.0,0.0,0.0,0.0,0.0,0.0,0.0,0.0,0.0,0.0,0.0,0.0,0.0,0.0,0.0,0.0,0.0,0.0,0.0,0.0,0.0,0.0,0.0,0.0,0.0,0.0,0.0,0.0,0.0,0.0,0.0,0.0,0.0,0.0,0.0,0.0,0.0,0.0,0.0,0.0,0.0,0.0,0.0,0.0,0.0,0.0,0.0,0.0,0.0,0.0,0.0,0.0,0.0,0.0,0.0,0.0,0.0,0.0,0.0,0.0,0.0,0.0,0.0,0.0,0.0,0.0,0.0,0.0,0.0,0.0,0.0,0.0,0.0,0.0,0.0,0.0,0.0,0.0,0.0,0.0,0.0,0.0,0.0,0.0,0.0,0.0,0.0,0.0,0.0,0.0,0.0,0.0,0.0,0.0,0.0,0.0,0.0,0.0,0.0,0.0,0.0,0.0,0.0,0.0,0.0,0.0,0.0,0.0,0.0,0.0,0.0,0.0,0.0,0.0,0.0,0.0,0.0,0.0,0.0,0.0,0.0,0.0,0.0,0.0,0.0,0.0,0.0,0.0,0.0,0.0,0.0,0.0,0.0,0.0,0.0,0.0,0.0,0.0,0.0,0.0,0.0,0.0,0.0,0.0,0.0,0.0,0.0,0.0,0.0,0.0,0.0,0.0,0.0,0.0,0.0,0.0,0.0,0.0,0.0,0.0,0.0,0.0,0.0,0.0,0.0,0.0,0.0,0.0,0.0,0.0,0.0,0.0,0.0,0.0,0.0,0.0,0.0,0.0,0.0,0.0,0.0,0.0,0.0,0.0,0.0,0.0,0.0,0.0,0.0,0.0,0.0,0.0,0.0,0.0,0.0,0.0,0.0,0.0,0.0,0.0,0.0,0.0,0.0,0.0,0.0,0.0,0.0,0.0,0.0,0.0,0.0,0.0,0.0,0.0,0.0,0.0,0.0,0.0,0.0,0.0,0.0,0.0,0.0,0.0,0.0,0.0,0.0,0.0,0.0,0.0,0.0,0.0,0.0,0.0,0.0,0.0,0.0,0.0,0.0,0.0,0.0,0.0,0.0,0.0,0.0,0.0,0.0,0.0,0.0,0.0,0.0,0.0,0.0,0.0,0.0,0.0,0.0,0.0,0.0,0.0,0.0,0.0,0.0,0.0,0.0,0.0,0.0,0.0,0.0,0.0,0.0,0.0,0.0,0.0,0.0,0.0,0.0,0.0,0.0,0.0,0.0,0.0,0.0,0.0,0.0,0.0,0.0,0.0,0.0,0.0,0.0,0.0,0.0,0.0,0.0,0.0,0.0,0.0,0.0,0.0,0.0,0.0,0.0,0.0,0.0,0.0,0.0,0.0,0.0,0.0,0.0,0.0,0.0,0.0,0.0,0.0,0.0,0.0,0.0,0.0,0.0,0.0,0.0,0.0,0.0,0.0,0.0,0.0,0.0,0.0,0.0,0.0,0.0,0.0,0.0,0.0,0.0,0.0,0.0,0.0,0.0,0.0,0.0,0.0,0.0,0.0,0.0,0.0,0.0,0.0,0.0,0.0,0.0,0.0,0.0,0.0,0.0,0.0,0.0,0.0,0.0,0.0,0.0,0.0,0.0,0.0,0.0,0.0,0.0,0.0,0.0,0.0,0.0,0.0,0.0,0.0,0.0,0.0,0.0,0.0,0.0,0.0,0.0,0.0,0.0,0.0,0.0,0.0,0.0,0.0,0.0,0.0,0.0,0.0,0.0,0.0,0.0,0.0,0.0,0.0,0.0,0.0,0.0,0.0,0.0,0.0,0.0,0.0,0.0,0.0,0.0,0.0,0.0,0.0,0.0,0.0,0.0,0.0,0.0,0.0,0.0,0.0,0.0,0.0,0.0,0.0,0.0,0.0,0.0,0.0,0.0,0.0,0.0,0.0,0.0,0.0,0.0,0.0,0.0,0.0,0.0,0.0,0.0,0.0,0.0,0.0,0.0,0.0,0.0,0.0,0.0,0.0,0.0,0.0,0.0,0.0,0.0,0.0,0.0,0.0,0.0,0.0,0.0,0.0,0.0,0.0,0.0,0.0,0.0,0.0,0.0,0.0,0.0,0.0,0.0,0.0,0.0,0.0,0.0,0.0,0.0,0.0,0.0,0.0,0.0,0.0,0.0,0.0,0.0,0.0,0.0,0.0,0.0,0.0,0.0,0.0,0.0,0.0,0.0,0.0,0.0,0.0,0.0,0.0,0.0,0.0,0.0,0.0,0.0,0.0,0.0,0.0,0.0,0.0,0.0,0.0,0.0,0.0,0.0,0.0,0.0,0.0,0.0,0.0,0.0,0.0,0.0,0.0,0.0,0.0,0.0,0.0,0.0,0.0,0.0,0.0,0.0,0.0,0.0,0.0,0.0,0.0,0.0,0.0,0.0,0.0,0.0,0.0,0.0,0.0,0.0,0.0,0.0,0.0,0.0,0.0,0.0,0.0,0.0,0.0,0.0,0.0,0.0,0.0,0.0,0.0,0.0,0.0,0.0,0.0,0.0,0.0,0.0,0.0,0.0,0.0,0.0,0.0,0.0,0.0,0.0,0.0,0.0,0.0,0.0,0.0,0.0,0.0,0.0,0.0,0.0,0.0,0.0,0.0,0.0,0.0,0.0,0.0,0.0,0.0,0.0,0.0,0.0,0.0,0.0,0.0,0.0,0.0,0.0,0.0,0.0,0.0,0.0,0.0,0.0,0.0,0.0,0.0,0.0,0.0,0.0,0.0,0.0,0.0,0.0,0.0,0.0,0.0,0.0,0.0,0.0,0.0,0.0,0.0,0.0,0.0,0.0,0.0,0.0,0.0,0.0,0.0,0.0,0.0,0.0,0.0,0.0,0.0,0.0,0.0,0.0,0.0,0.0,0.0,0.0,0.0,0.0,0.0,0.0,0.0,0.0,0.0,0.0,0.0,0.0,0.0,0.0,0.0,0.0,0.0,0.0,0.0,0.0,0.0,0.0,0.0,0.0,0.0,0.0,0.0,0.0,0.0,0.0,0.0,0.0,0.0,0.0,0.0,0.0,0.0,0.0,0.0,0.0,0.0,0.0,0.0,0.0,0.0,0.0,0.0,0.0,0.0,0.0,0.0,0.0,0.0,0.0,0.0,0.0,0.0,0.0,0.0,0.0,0.0,0.0,0.0,0.0,0.0,0.0,0.0,0.0,0.0,0.0,0.0,0.0,0.0,0.0,0.0,0.0,0.0,0.0,0.0,0.0,0.0,0.0,0.0,0.0,0.0,0.0,0.0,0.0,0.0,0.0,0.0,0.0,0.0,0.0,0.0,0.0,0.0,0.0,0.0,0.0,0.0,0.0,0.0,0.0,0.0,0.0,0.0,0.0,0.0,0.0,0.0,0.0,0.0,0.0,0.0,0.0,0.0,0.0,0.0,0.0,0.0,0.0,0.0,0.0,0.0,0.0,0.0,0.0,0.0,0.0,0.0,0.0,0.0,0.0,0.0,0.0,0.0,0.0,0.0,0.0,0.0,0.0,0.0,0.0,0.0,0.0,0.0,0.0,0.0,0.0,0.0,0.0,0.0,0.0,0.0,0.0,0.0,0.0,0.0,0.0,0.0,0.0,0.0,0.0,0.0,0.0,0.0,0.0,0.0,0.0,0.0,0.0,0.0,0.0,0.0,0.0,0.0,0.0,0.0,0.0,0.0,0.0,0.0,0.0,0.0,0.0,0.0,0.0,0.0,0.0,0.0,0.0,0.0,0.0,0.0,0.0,0.0,0.0,0.0,0.0,0.0,0.0,0.0,0.0,0.0,0.0,0.0,0.0,0.0,0.0,0.0,0.0,0.0,0.0,0.0,3.8418,0.0,0.0,0.0,0.0,0.0,0.0,0.0,0.0,0.0,0.0,0.0,0.0,0.0,0.0,0.0,0.0,0.0,0.0,0.0,0.0,0.0,0.0,0.0,0.0,0.0,0.0,0.0,0.0,0.0,0.0,0.0,0.0,0.0,0.0,0.0,0.0,0.0,0.0,0.0,4.0113,4.0269,4.0641,4.098,4.0777,4.0113,0.0,0.0,0.0,0.0,0.0,0.0,0.0,0.0,0.0,0.0,0.0,0.0,0.0,0.0,0.0,0.0,0.0,0.0,0.0,0.0,0.0,0.0,0.0,0.0,0.0,0.0,0.0,0.0,0.0,0.0,0.0,0.0,0.0,0.0,0.0,0.0,0.0,0.0,0.0,0.0,0.0,0.0,0.0,0.0,0.0,0.0,0.0,0.0,0.0,0.0,0.0,0.0,0.0,0.0,0.0,0.0,0.0,0.0,0.0,0.0,0.0,0.0,0.0,0.0,0.0,0.0,0.0,0.0,0.0,0.0,0.0,3.8607,0.0,0.0,0.0,0.0,0.0,0.0,0.0,0.0,0.0,0.0,0.0,0.0,0.0,0.0,0.0,0.0,0.0,0.0,0.0,0.0,0.0,0.0,0.0,0.0,4.0113,4.0113,4.0113,4.0113,0.0,0.0,0.0,0.0,0.0,0.0,0.0,4.0113,4.0113,4.0113,4.035,4.0743,4.1238,4.2083,4.1758,4.0472,4.0472,0.0,0.0,0.0,0.0,0.0,0.0,0.0,0.0,0.0,0.0,0.0,0.0,0.0,0.0,0.0,0.0,0.0,0.0,0.0,0.0,0.0,0.0,0.0,0.0,0.0,0.0,0.0,0.0,0.0,0.0,0.0,0.0,0.0,0.0,0.0,0.0,0.0,0.0,0.0,0.0,0.0,0.0,0.0,0.0,0.0,0.0,0.0,0.0,0.0,0.0,0.0,0.0,0.0,0.0,0.0,0.0,0.0,0.0,0.0,0.0,0.0,0.0,0.0,4.3123,4.3166,4.3152,4.2358,4.2092,4.2209,4.1344,3.9825,3.7918,3.7801,0.0,0.0,0.0,0.0,0.0,0.0,0.0,0.0,0.0,0.0,0.0,0.0,0.0,0.0,0.0,0.0,0.0,0.0,0.0,0.0,0.0,4.0113,4.0113,4.0113,4.0113,4.0113,0.0,0.0,0.0,0.0,0.0,0.0,0.0,4.0113,4.0113,4.0113,4.1386,4.1711,4.1225,4.2611,4.2828,4.2029,4.2029,4.2029,4.1961,0.0,0.0,0.0,0.0,0.0,0.0,0.0,0.0,0.0,0.0,0.0,0.0,0.0,0.0,0.0,0.0,0.0,0.0,0.0,0.0,0.0,0.0,0.0,0.0,0.0,0.0,0.0,0.0,0.0,0.0,0.0,0.0,0.0,0.0,0.0,0.0,0.0,0.0,0.0,0.0,0.0,3.8417,3.8842,0.0,0.0,0.0,0.0,0.0,0.0,0.0,0.0,0.0,0.0,0.0,0.0,0.0,4.272,4.3893,4.4406,4.5011,4.5778,4.6374,4.6623,4.6599,4.5359,4.5087,4.5583,4.4318,0.0,3.9948,3.9379,0.0,0.0,0.0,0.0,0.0,0.0,0.0,0.0,0.0,0.0,0.0,0.0,0.0,0.0,0.0,0.0,0.0,0.0,0.0,0.0,0.0,4.0472,4.0709,4.0709,4.1115,4.1149,4.0743,4.0709,0.0,0.0,0.0,4.0113,4.0113,4.0113,4.0519,4.1352,4.2841,4.3416,4.3146,4.4215,4.4316,4.3619,4.4012,4.3504,4.2252,4.1869,0.0,0.0,0.0,0.0,0.0,0.0,0.0,0.0,0.0,0.0,0.0,0.0,0.0,0.0,0.0,0.0,0.0,0.0,0.0,0.0,0.0,0.0,0.0,0.0,0.0,0.0,0.0,0.0,0.0,0.0,0.0,0.0,0.0,0.0,0.0,0.0,0.0,0.0,0.0,3.7178,3.7524,3.6719,3.7651,3.7863,0.0,0.0,0.0,0.0,0.0,0.0,0.0,0.0,0.0,4.349,4.4238,4.5029,4.5978,4.629,4.674,4.745,4.7731,4.7848,4.7818,4.686,4.6591,4.6809,4.5822,4.4713,4.3398,4.1611,4.0301,3.9348,0.0,0.0,0.0,0.0,3.7529,3.7346,0.0,0.0,0.0,0.0,0.0,0.0,0.0,0.0,0.0,0.0,0.0,0.0,4.0113,4.0764,4.1204,4.1204,4.1711,4.1779,4.1238,4.1035,0.0,0.0,0.0,4.0113,4.0113,4.0269,4.1014,4.23,4.3822,4.4499,4.433,4.5263,4.5297,4.4635,4.5365,4.4756,4.3166,4.2854,4.2362,4.1664,0.0,0.0,0.0,0.0,0.0,0.0,0.0,0.0,0.0,0.0,0.0,0.0,0.0,0.0,0.0,0.0,0.0,0.0,0.0,0.0,0.0,0.0,0.0,0.0,0.0,0.0,0.0,0.0,0.0,0.0,0.0,0.0,0.0,0.0,0.0,0.0,0.0,3.7124,3.7434,3.5476,3.7721,3.8589,0.0,0.0,0.0,0.0,0.0,0.0,4.2092,4.319,4.4416,4.5753,4.6471,4.7198,4.8035,4.8035,4.8297,4.8775,4.8775,4.8686,4.8528,4.8027,4.7728,4.7519,4.704,4.659,4.607,4.3723,4.2347,4.1616,4.029,3.9772,3.9801,4.0057,3.9862,3.953,0.0,0.0,0.0,0.0,0.0,0.0,0.0,0.0,0.0,0.0,0.0,4.0113,4.0113,4.0764,4.1204,4.1204,4.1225,4.1238,4.1204,4.054,4.0146,4.0113,4.0113,4.0113,4.0113,4.0798,4.1508,4.23,4.3822,4.4228,4.349,4.4978,4.5297,4.4635,4.5365,4.5635,4.55,4.4756,4.4012,4.3139,4.1566,0.0,0.0,0.0,0.0,0.0,0.0,0.0,0.0,0.0,0.0,0.0,0.0,0.0,0.0,0.0,0.0,0.0,0.0,0.0,0.0,0.0,0.0,0.0,0.0,0.0,0.0,0.0,0.0,0.0,0.0,0.0,0.0,0.0,0.0,0.0,0.0,0.0,0.0,3.7494,4.0176,0.0,0.0,0.0,0.0,4.1164,4.1852,4.281,4.4107,4.4825,4.5813,4.716,4.7848,4.8805,5.0016,5.0046,5.0076,5.0076,5.0076,4.9823,4.9247,4.9187,4.8858,4.8259,4.8229,4.7686,4.6761,4.5387,4.4312,4.3384,4.2686,4.2401,4.2322,4.1584,4.129,4.1153,0.0,0.0,0.0,0.0,0.0,0.0,0.0,0.0,4.0113,4.0113,4.0113,4.0113,4.0113,4.1183,4.1711,4.1238,4.207,4.2205,4.1258,4.0933,4.0608,4.0113,4.0113,4.0303,4.0811,4.1542,4.2536,4.3789,4.4804,4.5162,4.4877,4.5432,4.5297,4.4635,4.5365,4.5974,4.6346,4.5515,4.4696,4.3892,4.2853,4.1601,0.0,0.0,0.0,0.0,0.0,0.0,0.0,0.0,0.0,0.0,0.0,0.0,0.0,0.0,0.0,0.0,0.0,0.0,0.0,0.0,0.0,0.0,0.0,0.0,0.0,0.0,0.0,0.0,0.0,0.0,0.0,0.0,0.0,0.0,0.0,0.0,0.0,4.0655,4.278,0.0,4.1724,4.2761,4.3658,4.3868,4.5325,4.6403,4.683,4.8297,4.9112,4.9172,4.98,5.0368,5.0847,5.0847,5.0637,5.0196,5.0196,4.965,4.8648,4.8648,4.82,4.7398,4.7398,4.7029,4.641,4.5969,4.5338,4.4606,4.382,4.3494,4.3465,4.3177,4.2806,4.2399,0.0,0.0,0.0,0.0,0.0,0.0,0.0,0.0,4.0113,4.0113,4.0113,4.0113,4.0113,4.1183,4.1813,4.1576,4.2239,4.2341,4.161,4.1102,4.0608,4.0113,4.0337,4.0811,4.1542,4.2286,4.3301,4.4615,4.5108,4.5331,4.5331,4.5331,4.5074,4.4615,4.5094,4.5814,4.6589,4.6146,4.5611,4.4952,4.3891,4.2772,4.1738,0.0,0.0,0.0,0.0,0.0,0.0,0.0,0.0,0.0,0.0,0.0,0.0,0.0,0.0,0.0,0.0,0.0,0.0,0.0,0.0,0.0,0.0,0.0,0.0,0.0,0.0,0.0,0.0,0.0,0.0,0.0,0.0,0.0,0.0,0.0,4.272,4.274,4.4846,4.5693,4.4117,4.5394,4.6292,4.6292,4.7938,4.8955,4.8955,5.0368,5.0996,5.0548,5.0966,5.1206,5.1206,5.1206,5.0877,5.0196,4.9979,4.9464,4.8648,4.832,4.7829,4.7236,4.717,4.6786,4.6202,4.6202,4.5917,4.5442,4.488,4.464,4.4589,4.4175,4.3718,4.3211,0.0,0.0,0.0,0.0,0.0,0.0,0.0,4.0113,4.0113,4.0113,4.0113,4.0113,4.0113,4.0764,4.1508,4.2164,4.161,4.1508,4.2198,4.0878,4.0113,4.0113,4.0798,4.1542,4.23,4.3017,4.3795,4.4615,4.4615,4.4615,4.4615,4.4615,4.4601,4.4635,4.4635,4.526,4.6374,4.6671,4.6716,4.6402,4.4697,4.3931,4.3587,0.0,0.0,0.0,0.0,0.0,0.0,0.0,0.0,0.0,0.0,0.0,0.0,0.0,0.0,0.0,0.0,0.0,0.0,0.0,0.0,0.0,0.0,0.0,0.0,0.0,0.0,0.0,0.0,0.0,0.0,0.0,0.0,0.0,4.0576,4.3329,4.4915,4.3828,4.6493,4.7608,4.5693,4.7301,4.8386,4.8409,4.9561,5.0255,5.0226,5.0877,5.1236,5.1236,5.1236,5.1236,5.1236,5.1236,5.0877,5.0196,4.9613,4.9307,4.9247,4.8321,4.7911,4.7859,4.7665,4.7064,4.6202,4.6202,4.6068,4.5917,4.5917,4.5888,4.5743,4.4451,4.3936,4.3553,0.0,0.0,0.0,0.0,0.0,0.0,0.0,4.0113,4.0113,4.0113,4.0113,4.0113,4.0113,4.1251,4.1657,4.0777,4.1487,4.1623,4.0743,4.0316,4.0113,4.0113,4.0798,4.1542,4.23,4.3017,4.3795,4.4615,4.4615,4.4615,4.4615,4.4615,4.4871,4.5399,4.5399,4.6079,4.7231,4.7249,4.7443,4.7655,4.6873,4.5793,4.4534,0.0,0.0,0.0,0.0,0.0,0.0,0.0,0.0,0.0,0.0,0.0,0.0,0.0,0.0,0.0,0.0,0.0,0.0,0.0,0.0,0.0,0.0,0.0,0.0,0.0,0.0,0.0,0.0,0.0,0.0,0.0,0.0,4.5244,4.4745,4.5463,4.6958,4.9494,5.0152,5.0391,5.0301,5.081,5.093,5.0451,5.1199,5.1415,5.0936,5.2037,5.2426,5.1947,5.2396,5.2426,5.1947,5.1947,5.1325,5.0196,5.0039,4.9373,4.8291,4.8528,4.7887,4.6696,4.7098,4.6794,4.5978,4.5978,4.5933,4.5917,4.5917,4.5598,4.5045,4.4024,4.2621,4.1079,0.0,0.0,0.0,0.0,0.0,0.0,0.0,4.0113,4.0113,4.0113,4.0113,4.0113,4.0113,4.0844,4.1149,4.0608,4.1048,4.1149,4.0608,4.0269,4.0235,4.054,4.1271,4.2016,4.2726,4.3504,4.4113,4.4615,4.4615,4.477,4.5074,4.5074,4.5404,4.6041,4.6041,4.6548,4.7394,4.7412,4.769,4.8097,4.792,4.7205,4.6105,4.5175,4.4218,4.3307,4.2702,4.2016,4.1199,4.0126,0.0,0.0,0.0,0.0,0.0,0.0,0.0,0.0,0.0,0.0,0.0,0.0,0.0,0.0,0.0,0.0,0.0,0.0,0.0,0.0,0.0,0.0,0.0,0.0,4.5603,4.8177,4.9411,4.9351,5.0032,5.2336,5.2516,5.2611,5.2995,5.2785,5.2576,5.2462,5.2546,5.2336,5.1648,5.2366,5.2606,5.2217,5.2576,5.2749,5.2606,5.2336,5.1828,5.1026,5.0395,4.9743,4.91,4.8456,4.7786,0.0,4.6755,4.6379,4.5917,4.5917,4.5917,0.0,0.0,0.0,0.0,0.0,4.0886,3.9134,0.0,0.0,0.0,0.0,0.0,0.0,0.0,4.0113,4.0113,4.0113,4.0113,4.0113,4.0113,4.0168,4.0438,4.1035,4.054,4.0472,4.1035,4.054,4.0506,4.117,4.2049,4.2861,4.3524,4.4398,4.4838,4.4838,4.4838,4.5176,4.5838,4.5809,4.6108,4.66,4.6619,4.684,4.7261,4.7403,4.7693,4.8017,4.8114,4.8115,4.7802,4.583,4.4913,4.4576,4.3315,4.2299,4.1413,4.0679,0.0,0.0,0.0,0.0,0.0,0.0,0.0,0.0,0.0,0.0,0.0,0.0,0.0,0.0,0.0,0.0,0.0,0.0,0.0,0.0,0.0,0.0,0.0,0.0,4.7848,5.0212,5.3803,5.3982,5.3707,5.3558,5.3982,5.4311,5.4311,5.3832,5.3743,5.4281,5.3743,5.3114,5.2456,0.0,0.0,0.0,0.0,5.2785,5.3269,5.2701,5.2348,5.221,5.0774,5.03,5.0668,4.8488,4.7723,4.7963,4.6677,4.6034,4.5917,4.5917,4.5753,4.5452,4.4558,4.377,4.2901,4.0795,3.9059,3.7716,0.0,0.0,0.0,0.0,0.0,0.0,0.0,4.0113,4.0113,4.0113,4.0113,4.0113,4.0113,4.0641,4.0798,4.0337,4.0743,4.0811,4.0337,4.0743,4.1068,4.1191,4.3112,4.4228,4.4364,4.5684,4.636,4.636,4.636,4.6462,4.6583,4.6416,4.6731,4.7393,4.727,4.7501,4.8011,4.8044,4.8047,4.8001,4.8033,4.8033,4.7968,4.7537,4.6569,4.5466,4.5158,4.4178,4.2816,4.1604,4.1094,4.0798,3.9457,3.8647,0.0,0.0,0.0,0.0,0.0,0.0,0.0,0.0,0.0,0.0,0.0,0.0,0.0,0.0,0.0,0.0,0.0,0.0,0.0,4.6869,5.0451,5.3503,5.482,5.6256,5.6765,5.5743,5.5264,5.4999,5.4999,5.5384,5.5444,5.5029,5.488,5.4521,5.3862,5.4311,5.4371,5.3832,5.4341,5.4301,5.3684,5.3565,5.3114,5.2334,0.0,0.0,5.0202,4.9754,4.8623,4.7073,4.7312,4.6847,4.5917,4.5917,4.4926,4.3409,4.3519,4.252,4.0832,3.943,3.823,3.7272,0.0,0.0,0.0,0.0,0.0,0.0,0.0,4.0113,4.0113,4.0113,4.0113,4.0113,4.0113,4.0438,4.0506,4.0146,4.0438,4.0811,4.1183,4.1204,4.1711,4.2841,4.3606,4.435,4.5128,4.5872,4.6413,4.68,4.68,4.6989,4.7346,4.7147,4.7396,4.8024,4.7885,4.811,4.8646,4.8646,4.8829,4.9027,4.8261,4.7961,4.7929,4.7535,4.6446,4.5092,4.5092,4.4359,4.3182,4.2239,4.1904,4.1673,4.0337,3.9888,3.9637,0.0,0.0,0.0,0.0,0.0,0.0,0.0,0.0,0.0,0.0,0.0,0.0,0.0,0.0,4.2671,0.0,0.0,4.8446,5.0451,5.2965,5.5149,5.6466,5.7214,5.7363,5.6731,5.6645,5.6645,5.6645,5.6645,5.6645,5.6645,5.6047,5.5388,5.473,5.47,5.4551,5.4221,5.4521,5.4575,5.4323,5.3614,5.3015,5.2392,5.1268,5.05,5.0086,4.9591,4.8801,4.7729,4.741,4.694,4.6285,4.5459,4.4172,4.2765,4.2415,4.123,3.9542,3.8647,3.8002,3.7513,0.0,0.0,0.0,0.0,0.0,0.0,0.0,4.0087,4.0113,4.0113,4.0113,4.0113,4.0113,4.0113,4.0113,4.0113,4.0113,4.0675,4.1995,4.1813,4.2523,4.4499,4.4384,4.4843,4.6094,4.6413,4.6853,4.7443,4.7564,4.7954,4.8517,4.8314,4.8444,4.8871,4.8677,4.8879,4.9309,4.9309,4.964,5.0085,4.865,4.8002,4.7777,4.6877,4.5701,4.4491,4.4491,4.3913,4.304,4.2541,4.241,4.2201,4.1134,4.1235,4.1373,3.9349,3.9469,0.0,0.0,0.0,0.0,0.0,0.0,0.0,0.0,0.0,4.1474,4.3349,4.4317,4.5493,4.7668,4.9277,5.1163,5.3952,5.5149,5.6316,5.7876,5.7752,5.7483,5.7483,5.7846,5.8085,5.8085,5.7723,5.7723,5.8234,5.7334,5.6492,5.5807,5.5099,5.463,5.448,5.4311,5.4339,5.4619,5.3553,5.2871,5.2595,5.1106,5.0394,5.0364,4.9359,4.8803,4.8629,4.7352,4.6801,4.6651,4.4991,4.3725,4.2695,4.1617,4.0309,3.8994,3.8391,3.8165,3.809,0.0,0.0,0.0,0.0,0.0,0.0,0.0,0.0,4.0113,4.0113,4.0113,4.0113,4.0113,4.0113,4.0113,4.0113,4.0113,4.0438,4.1271,4.2476,4.3606,4.4567,4.6413,4.7481,4.765,4.8951,4.9643,4.9744,5.0405,5.0697,5.0653,5.0457,5.0276,5.0176,5.0057,5.0021,5.0071,5.0071,5.0104,5.0101,4.9168,4.835,4.7567,4.6188,4.5167,4.4491,4.4491,4.3659,4.25,4.241,4.241,4.2381,4.2231,4.2581,4.2711,4.0756,0.0,3.9092,3.7135,3.7105,3.8332,4.1224,4.1553,4.2271,0.0,0.0,4.683,4.8229,4.9464,5.0398,5.0697,5.2366,5.3982,5.491,5.6615,5.7846,5.8055,5.856,5.889,5.889,5.8414,5.8085,5.8085,5.859,5.8919,5.8979,5.886,5.8501,5.7816,5.6918,5.6162,5.5541,5.4716,5.4193,5.3997,5.385,5.3662,5.3376,5.2071,5.1436,5.1378,5.0158,4.9262,4.8629,4.7352,4.6801,4.6651,4.4991,4.3725,4.2695,4.1617,4.0541,3.9546,3.8994,3.8793,3.8718,0.0,0.0,0.0,0.0,0.0,0.0,0.0,0.0,0.0,4.01,4.0113,4.0113,4.0113,4.0113,4.0113,4.0113,4.0506,4.161,4.3673,4.4418,4.5669,4.7714,4.8274,4.8529,4.8529,4.956,5.0117,5.0117,5.0845,5.112,5.1007,5.1212,5.0994,5.0409,5.0704,5.1082,5.1479,5.1479,5.1943,5.2546,5.0766,4.9375,4.8199,4.6159,4.4526,4.3243,4.2849,4.2319,0.0,4.0924,4.0905,4.1254,4.1254,4.1683,4.1893,4.0307,4.0187,0.0,4.0056,4.0116,4.0834,0.0,4.3868,4.4975,4.7668,4.8409,4.9067,5.1133,5.2606,5.3653,5.4042,5.5089,5.6107,0.0,5.7547,5.8234,5.865,5.8919,5.8949,5.8563,5.862,5.8683,5.8683,5.8949,5.9099,5.9099,5.874,5.8384,5.8115,5.7193,5.638,5.5697,5.5171,5.4586,5.3919,5.3568,5.3263,5.2949,5.2049,5.1588,5.1559,5.0656,4.9698,4.8663,4.7463,4.6742,4.6225,4.3944,4.2766,4.2269,4.0873,4.0083,3.9672,3.9446,3.9371,3.927,0.0,0.0,0.0,0.0,0.0,0.0,0.0,0.0,0.0,0.0,4.0113,4.0113,4.0113,4.0113,4.0113,4.0113,4.0608,4.1982,4.4587,4.5365,4.6819,4.939,4.956,4.9627,4.9627,5.0541,5.1048,5.1048,5.193,5.2286,5.2135,5.2485,5.2262,5.1554,5.198,5.2491,5.297,5.297,5.3438,5.3959,5.1753,5.0041,4.8561,4.6193,4.4098,4.2321,4.1643,4.1164,4.0666,3.9529,3.9439,3.9858,3.9858,4.0445,4.0894,3.972,3.9948,4.0726,4.1537,0.0,0.0,4.4273,4.6015,4.7692,4.8894,5.006,5.1498,5.3465,5.4809,5.5825,5.6482,5.696,5.7471,5.8157,5.8277,5.8453,5.9012,5.8868,5.8516,5.8038,5.8327,5.8567,5.8614,5.8901,5.9072,5.8991,5.8546,5.825,5.814,5.725,5.6498,5.6025,5.5407,5.4817,5.4314,5.3701,5.3331,5.312,5.2455,5.2049,5.1846,5.1058,5.0046,4.89,4.7652,4.6817,4.614,4.3287,4.2109,4.1928,4.0337,3.9697,3.9697,3.9697,3.9697,3.9647,0.0,0.0,0.0,0.0,0.0,0.0,0.0,0.0,0.0,0.0,0.0,0.0,0.0,4.0113,4.0113,4.0113,4.0113,4.0777,4.23,4.4485,4.6365,4.7921,5.0017,5.1133,5.1133,5.2621,5.3416,5.3416,5.4662,5.5158,5.4946,5.478,5.4579,5.4394,5.4376,5.4409,5.4442,5.4442,5.3972,5.3096,5.1546,4.9973,4.8368,4.6128,4.4098,4.2321,4.1643,4.0546,3.9361,3.8661,3.8422,3.8469,3.8469,3.9349,0.0,3.9601,3.896,3.8715,3.9773,0.0,4.2921,4.5035,4.7852,5.0319,5.1104,5.3228,5.5133,5.5537,5.6169,5.6855,5.7535,5.7654,5.7892,5.8572,5.8691,5.88,5.9045,5.8318,5.7713,5.7708,5.7385,5.7212,0.0,5.8416,5.8991,5.8748,5.8691,5.8525,5.8193,5.7302,5.6786,5.6757,5.5317,5.4778,5.5358,5.4749,5.4458,5.4432,5.3764,5.3123,5.2539,5.1261,5.0332,4.9562,4.7847,4.7094,4.6808,4.3472,4.2109,4.1928,4.0337,3.9697,3.9697,3.9697,3.9697,3.9697,0.0,0.0,0.0,0.0,0.0,0.0,0.0,0.0,0.0,0.0,0.0,0.0,0.0,0.0,0.0,0.0,4.054,4.1441,4.2916,4.5162,4.709,4.8563,5.1269,5.2486,5.1961,5.3787,5.4527,5.4039,5.4805,5.5077,5.4913,5.534,5.5159,5.4508,5.5005,5.5502,5.5847,5.4342,5.4326,5.5061,5.1947,4.9863,4.8419,4.6158,4.3539,4.0924,0.0,3.8841,3.7896,3.6836,3.6776,3.7152,3.7152,3.7734,3.8417,3.8513,3.8686,3.9286,4.1272,0.0,4.4545,4.7412,4.9244,5.0757,5.2353,5.4048,5.5304,5.5433,5.564,5.5837,5.5786,5.5623,5.5778,5.6588,5.7315,5.7796,5.7878,5.8358,5.8067,5.632,5.714,0.0,0.0,0.0,0.0,5.8981,5.9042,5.8957,5.8873,5.836,5.7665,5.6817,5.6105,5.5649,5.5416,5.5213,5.4923,5.449,5.3822,5.3181,5.2568,5.1701,5.054,4.9146,4.7355,4.6178,4.534,4.3095,4.2172,4.2017,4.0759,4.0249,4.0199,3.9823,3.9697,3.9697,0.0,0.0,0.0,0.0,0.0,0.0,0.0,0.0,0.0,0.0,0.0,0.0,0.0,0.0,0.0,0.0,0.0,4.1698,4.2929,4.4891,4.6665,4.8139,5.0574,5.1522,5.0728,5.2252,5.2943,5.2741,5.349,5.4048,5.4422,5.5096,5.5069,5.4508,5.5005,5.5468,5.5814,5.4039,5.3736,5.4168,5.0871,4.8593,4.6895,4.471,4.2312,0.0,3.8512,3.7614,3.6926,3.5878,3.5789,3.6178,3.6434,3.7075,3.7891,3.8573,3.942,4.062,4.2969,4.4595,4.6263,4.8864,5.0309,5.1518,5.3077,5.4384,5.5253,5.5175,5.49,5.4562,5.4225,5.3702,5.3558,5.4314,5.5034,5.5807,5.6512,5.7104,5.705,5.5971,5.6817,5.7229,0.0,0.0,0.0,5.8645,5.8911,5.8884,5.8537,5.8515,5.808,5.703,5.6603,5.6316,5.6084,5.5881,5.5445,5.4809,5.3909,5.2972,5.1942,5.1489,5.0349,4.8551,4.6784,4.5634,4.4849,4.2956,4.2213,4.2112,4.0953,4.0499,4.045,3.9898,3.9697,3.9697,0.0,0.0,0.0,0.0,0.0,0.0,0.0,0.0,0.0,0.0,0.0,0.0,0.0,0.0,0.0,0.0,0.0,0.0,4.2252,4.3755,4.521,4.6631,4.8173,4.8631,4.7906,4.8492,4.9155,4.9814,5.0911,5.2142,5.3472,5.4004,5.4276,5.4276,5.4276,5.4309,5.4254,5.3315,5.2111,5.0587,4.8353,4.6153,4.4027,4.2152,4.0576,3.9242,3.7926,3.7045,3.6404,3.5759,3.5609,3.5759,3.6387,3.7464,3.8698,3.9724,4.1013,4.2573,4.4658,4.6372,4.7907,4.9417,5.1086,5.2541,5.3286,5.4361,5.5086,5.4762,5.384,5.3036,0.0,0.0,5.1469,5.2005,5.2335,5.3221,5.5185,5.49,5.5063,0.0,0.0,0.0,0.0,0.0,0.0,5.7839,0.0,5.8313,5.7477,5.8029,5.8058,5.739,5.681,5.6781,5.7303,5.6723,5.6084,5.5387,5.4142,5.2632,5.094,5.0831,4.9797,4.7974,4.6262,4.5529,4.5313,4.3157,4.2288,4.216,4.1028,4.0601,4.0499,3.9973,3.9747,3.9772,0.0,0.0,0.0,0.0,0.0,0.0,0.0,0.0,0.0,0.0,0.0,0.0,0.0,0.0,0.0,0.0,0.0,0.0,4.23,4.3755,4.477,4.5142,4.7526,4.851,4.7784,4.8748,4.9056,4.8689,4.9393,4.9924,5.0289,5.1,5.1296,5.1296,5.1296,5.1612,5.1905,4.8964,4.8319,4.9032,4.5262,4.3687,4.3399,4.1953,4.0576,3.9302,3.8452,3.7451,3.6464,0.0,0.0,0.0,0.0,3.8609,3.9754,4.0165,4.1928,4.3998,4.5353,4.7026,4.883,5.0656,5.1457,5.1969,5.2681,5.3428,5.3538,5.2086,5.1154,5.0354,0.0,0.0,0.0,5.1846,5.3497,0.0,5.5983,5.6799,0.0,5.5874,0.0,5.7036,5.7071,5.672,0.0,0.0,5.8608,5.8725,5.9422,5.919,5.8726,5.8058,5.7913,5.7652,5.7303,5.6723,5.6084,5.5387,5.4633,5.3748,5.2766,5.1403,5.0073,4.8707,4.6897,4.5623,4.4744,4.3806,4.3388,4.3263,4.2185,4.1758,4.1681,4.0862,4.0582,4.0506,0.0,0.0,0.0,0.0,0.0,0.0,0.0,0.0,0.0,0.0,0.0,0.0,0.0,0.0,0.0,0.0,0.0,0.0,0.0,4.3551,4.4117,4.4468,4.5942,4.6406,4.5648,4.5897,4.6127,4.6344,4.6224,4.6693,4.7669,4.8067,4.8266,4.8266,4.8266,4.8498,4.8696,4.601,4.5308,0.0,0.0,4.1534,4.1485,4.0457,3.9798,3.9272,3.8302,3.8063,0.0,0.0,0.0,3.9738,3.9909,4.0602,4.1547,4.242,0.0,4.5434,4.6776,4.8333,4.9901,5.124,5.1588,5.1643,5.1755,5.2046,5.173,4.9838,4.901,0.0,0.0,0.0,0.0,0.0,0.0,0.0,5.5765,5.6922,5.7387,0.0,5.7303,0.0,5.7739,5.7448,5.7913,0.0,5.9103,5.9045,5.9771,5.948,5.8987,5.8319,5.8,5.7681,5.7303,5.6432,5.5794,5.5387,5.449,5.3584,5.2648,5.1121,4.9774,4.8544,0.0,4.5199,4.4539,4.3765,4.3438,4.3363,4.2512,4.2213,4.2082,4.1232,4.0749,4.0447,0.0,0.0,0.0,0.0,0.0,0.0,0.0,0.0,0.0,0.0,0.0,0.0,0.0,0.0,0.0,0.0,0.0,0.0,0.0,0.0,4.364,4.4259,4.4155,4.3734,4.2978,4.2102,4.2204,4.3354,4.2593,4.3197,4.5101,4.5152,4.5218,4.5218,4.5218,4.5187,4.4999,4.3535,4.2583,4.1941,4.0545,3.9709,3.9182,0.0,3.8811,3.9212,3.7866,0.0,0.0,0.0,4.1016,4.2013,4.2593,4.309,4.3779,4.5328,4.6057,4.6761,4.827,4.9611,5.071,5.1323,5.1414,5.1182,5.0569,5.0448,4.9867,4.7834,0.0,4.7024,4.6644,4.6955,4.7666,4.8885,0.0,5.3007,5.5327,5.6307,5.7178,5.8203,5.829,5.8377,5.8552,5.8493,5.8958,6.0235,5.9771,5.9451,5.9539,5.9393,5.8987,5.8319,5.7652,5.7303,5.7303,5.62,5.5591,5.5387,5.4284,5.3033,5.1647,5.0434,4.9222,4.7853,4.5675,0.0,4.4514,4.3514,4.3115,4.3065,4.2484,4.2231,4.2153,4.1298,4.069,4.0189,0.0,0.0,0.0,0.0,0.0,0.0,0.0,0.0,0.0,0.0,4.1847,0.0,0.0,0.0,0.0,0.0,0.0,0.0,0.0,0.0,0.0,4.4293,4.4054,4.3575,4.2856,4.1934,4.1318,4.1,4.084,4.0959,4.1356,4.1905,4.2156,4.2156,4.2156,4.1895,4.1341,3.997,3.9329,3.9135,3.8275,3.8182,3.8542,3.8422,0.0,0.0,0.0,0.0,0.0,0.0,4.2981,4.4633,4.4701,4.5285,4.6064,4.647,4.7009,4.7683,4.8508,4.9262,5.0042,5.071,5.0452,4.9847,4.918,4.9035,0.0,0.0,4.6179,4.6527,4.543,4.6579,0.0,5.0743,0.0,0.0,0.0,0.0,5.7448,0.0,0.0,0.0,0.0,0.0,0.0,0.0,0.0,6.0293,6.0845,5.9858,5.8987,5.8319,5.7652,5.7303,5.7303,5.7071,5.6432,5.5416,5.5184,5.3895,5.1647,5.0434,4.8981,4.7359,4.593,0.0,4.4539,4.3915,4.3664,4.3561,4.2756,4.2445,4.2364,4.1731,4.1407,4.1233,0.0,0.0,0.0,0.0,0.0,0.0,0.0,0.0,0.0,0.0,4.0358,4.1455,0.0,0.0,0.0,0.0,0.0,0.0,0.0,0.0,0.0,0.0,0.0,0.0,4.3234,4.2398,4.199,4.2071,0.0,4.0912,4.0912,4.0878,4.068,4.0282,3.993,3.9648,3.9285,3.7972,3.7406,3.7367,3.7061,3.7315,3.7913,0.0,0.0,0.0,0.0,0.0,0.0,0.0,4.3669,4.6223,4.6771,4.6998,4.7242,4.7829,4.7905,4.8009,4.8972,4.9722,5.0303,5.0622,5.0216,4.9349,4.8019,0.0,0.0,0.0,4.5169,4.5721,4.5459,0.0,0.0,0.0,0.0,0.0,0.0,0.0,0.0,0.0,0.0,0.0,0.0,0.0,0.0,0.0,0.0,6.07,6.0671,5.948,5.8464,5.7797,5.7477,5.7303,5.7303,5.6636,5.5997,5.536,5.4096,5.2867,5.162,4.9817,4.8356,4.7231,4.5675,0.0,4.4141,4.3589,4.324,4.2936,4.2625,4.2311,4.2056,4.1736,4.1242,4.0675,0.0,0.0,0.0,0.0,0.0,0.0,0.0,3.9146,3.9019,3.8444,3.9119,4.0449,4.2515,4.3479,4.3939,0.0,0.0,0.0,0.0,0.0,0.0,0.0,0.0,0.0,0.0,0.0,0.0,4.3367,4.2057,0.0,0.0,0.0,0.0,0.0,3.8777,3.8312,3.7836,3.683,3.6336,0.0,0.0,3.6985,0.0,0.0,0.0,0.0,0.0,0.0,0.0,0.0,4.3343,4.6059,4.7485,4.794,4.8028,4.8629,4.8417,4.8188,4.9204,4.9867,5.0249,5.0249,4.978,4.8822,4.7027,4.6127,0.0,0.0,4.4269,4.5017,4.5424,0.0,0.0,0.0,0.0,0.0,0.0,0.0,0.0,0.0,0.0,0.0,0.0,0.0,0.0,0.0,0.0,0.0,6.0032,5.8929,5.8,5.7332,5.7187,5.71,5.71,5.5968,5.5358,5.5186,5.2953,5.1706,5.1237,4.9078,4.7612,4.6622,4.5229,0.0,0.0,4.3162,4.266,4.2098,4.2342,4.205,4.1518,4.1525,4.0914,4.0058,0.0,0.0,0.0,0.0,0.0,0.0,0.0,3.9299,3.9127,3.8416,3.9538,4.0454,4.0661,4.1356,4.1777,0.0,0.0,0.0,0.0,0.0,0.0,0.0,0.0,0.0,0.0,0.0,0.0,4.262,4.1792,0.0,0.0,0.0,0.0,0.0,0.0,3.8282,3.6569,3.643,0.0,0.0,0.0,0.0,0.0,0.0,0.0,0.0,0.0,0.0,0.0,0.0,0.0,4.2657,4.531,4.7455,4.8828,4.8103,0.0,0.0,4.8745,4.8832,4.889,4.889,4.842,4.7631,4.6295,0.0,0.0,4.2644,4.366,4.4756,4.424,4.522,0.0,0.0,0.0,5.0283,0.0,0.0,0.0,0.0,0.0,0.0,0.0,0.0,0.0,0.0,0.0,0.0,5.9364,5.8697,5.8,5.7332,5.6781,5.649,5.649,5.5765,5.5099,5.4577,5.3264,5.1711,5.0014,4.8676,4.6911,4.4839,4.4673,0.0,0.0,4.3039,4.2521,4.1767,4.203,4.1625,4.0905,4.1151,4.0868,4.0363,0.0,0.0,0.0,0.0,0.0,0.0,0.0,3.8762,3.8575,3.7898,3.8323,3.8685,3.8669,3.9283,4.0325,0.0,0.0,0.0,0.0,0.0,0.0,0.0,0.0,0.0,0.0,0.0,0.0,4.1898,4.1593,0.0,0.0,0.0,0.0,0.0,0.0,3.7514,3.6399,3.6021,0.0,0.0,0.0,0.0,0.0,0.0,0.0,0.0,0.0,0.0,0.0,0.0,0.0,0.0,4.3396,4.4967,0.0,0.0,4.7352,4.7729,4.8484,4.8977,4.9291,4.9291,4.8246,4.6969,4.6098,0.0,4.3544,4.2789,4.3565,4.4407,4.4523,4.5308,4.6127,0.0,0.0,0.0,0.0,0.0,0.0,0.0,0.0,0.0,0.0,0.0,0.0,0.0,0.0,0.0,5.8697,5.8058,5.7419,5.6781,5.6549,5.6229,5.5823,5.5184,5.4369,5.3402,5.1794,5.023,4.8762,4.7257,4.5846,4.4564,4.4267,0.0,0.0,4.2637,4.1993,4.1243,4.1509,4.1107,4.0411,4.0974,4.0643,3.9922,0.0,0.0,0.0,0.0,0.0,0.0,3.8395,3.8402,3.8216,3.7587,3.7677,3.7738,3.7523,3.8292,3.9551,4.1454,0.0,0.0,0.0,0.0,0.0,0.0,0.0,0.0,0.0,0.0,0.0,4.1509,4.1509,4.15,0.0,0.0,4.0151,3.9093,0.0,0.0,0.0,0.0,0.0,0.0,0.0,0.0,0.0,0.0,0.0,0.0,0.0,0.0,0.0,0.0,0.0,0.0,0.0,0.0,0.0,0.0,4.6221,4.6772,4.7845,4.8624,4.917,4.9349,4.8101,4.6627,0.0,0.0,4.2955,4.276,4.3398,4.4124,4.4552,4.5337,4.5917,4.5917,4.5917,4.6563,4.8426,0.0,0.0,0.0,0.0,0.0,0.0,0.0,0.0,0.0,0.0,0.0,5.7768,5.7303,5.6839,5.6432,5.6026,5.562,5.5155,5.4517,5.3606,5.2376,5.071,4.9197,4.7803,4.6213,4.507,4.4338,4.3966,0.0,0.0,4.2329,4.1559,4.0787,4.0881,4.0407,3.974,4.0463,4.0138,3.9369,0.0,0.0,0.0,0.0,0.0,0.0,0.0,3.8464,3.8262,3.7584,3.8077,3.8262,3.7584,3.8676,3.9507,3.9524,0.0,0.0,0.0,0.0,0.0,0.0,0.0,0.0,0.0,0.0,0.0,4.1509,4.1509,4.1509,4.1509,4.1509,4.0408,3.8512,0.0,0.0,0.0,0.0,0.0,0.0,0.0,0.0,0.0,0.0,0.0,0.0,0.0,0.0,0.0,0.0,0.0,0.0,0.0,4.2121,4.2382,4.3681,4.4908,4.604,4.6656,4.7317,4.7956,4.8542,4.7758,4.6627,0.0,4.4407,4.2818,4.2237,4.3108,4.3979,4.4008,4.5046,4.5917,4.5917,4.5917,0.0,4.8426,0.0,0.0,0.0,0.0,0.0,0.0,0.0,0.0,0.0,0.0,0.0,5.6461,5.6432,5.6432,5.6403,5.5184,5.4517,5.449,5.3849,5.289,5.1702,5.0462,4.8983,4.7286,4.6064,4.4869,0.0,0.0,0.0,0.0,4.208,4.1233,4.0466,4.0138,3.9519,3.8888,3.9417,3.9272,3.8788,0.0,0.0,0.0,0.0,0.0,0.0,0.0,3.8484,3.8584,3.883,3.9045,3.8922,3.8245,3.8984,3.9507,3.9507,0.0,0.0,0.0,0.0,0.0,0.0,0.0,0.0,0.0,0.0,0.0,3.9377,3.9377,3.9388,3.944,3.9402,3.9072,3.8493,3.8436,0.0,0.0,0.0,0.0,0.0,0.0,0.0,0.0,0.0,0.0,0.0,0.0,0.0,0.0,0.0,0.0,0.0,0.0,0.0,0.0,4.2586,4.3602,4.4734,4.5343,4.5982,4.6556,4.6737,4.5837,4.485,4.4647,4.3456,4.244,4.2673,4.3398,4.4146,4.4552,4.5337,4.5917,4.5917,4.5917,0.0,0.0,0.0,0.0,0.0,0.0,0.0,0.0,0.0,0.0,0.0,0.0,0.0,5.6432,5.5591,5.5099,5.5099,5.4693,5.4284,5.3822,5.2789,5.1675,5.0462,4.9249,4.7777,4.6039,4.5246,4.4493,0.0,0.0,0.0,0.0,4.1795,4.1095,4.0187,4.0442,4.0051,3.9417,3.9946,3.9585,3.8788,0.0,0.0,0.0,0.0,0.0,0.0,0.0,3.8354,3.8645,3.9076,3.9353,3.923,3.8553,3.9322,3.975,3.9422,0.0,0.0,0.0,0.0,0.0,0.0,0.0,0.0,0.0,0.0,3.908,3.8409,3.8409,3.8275,3.808,3.8047,3.8052,3.808,3.803,0.0,0.0,0.0,0.0,0.0,0.0,0.0,3.9373,0.0,0.0,0.0,0.0,0.0,0.0,0.0,0.0,0.0,0.0,0.0,0.0,0.0,4.2644,4.3456,4.4349,4.5046,4.5576,4.5859,4.4959,0.0,0.0,4.3021,4.2208,4.2586,4.3166,4.3805,4.4436,4.4879,4.5337,4.583,0.0,0.0,0.0,0.0,0.0,0.0,0.0,0.0,0.0,0.0,0.0,0.0,0.0,0.0,5.5707,5.4925,5.4374,5.4113,5.3907,5.3588,5.3152,5.1729,5.0544,4.9548,4.8358,4.6856,4.5146,4.4765,4.4217,0.0,0.0,0.0,0.0,4.1052,4.0381,3.9734,3.9746,3.9437,3.9056,3.9609,3.9248,3.8527,0.0,0.0,0.0,0.0,0.0,0.0,0.0,0.0,0.0,0.0,3.9107,3.9275,3.8707,3.9736,4.0159,0.0,0.0,0.0,0.0,0.0,0.0,0.0,0.0,0.0,0.0,3.9391,3.9032,3.835,3.835,3.7973,3.7285,3.7298,3.7375,3.7387,3.7464,0.0,0.0,0.0,0.0,0.0,0.0,0.0,0.0,0.0,0.0,0.0,0.0,0.0,0.0,0.0,0.0,0.0,0.0,0.0,0.0,0.0,0.0,0.0,0.0,4.4269,0.0,0.0,0.0,0.0,4.3863,4.2934,0.0,4.215,4.2615,4.3224,4.3921,4.4066,4.4472,4.5714,0.0,0.0,0.0,0.0,0.0,0.0,0.0,0.0,0.0,0.0,0.0,0.0,0.0,0.0,5.4519,5.4403,5.4081,5.3471,5.2801,5.251,5.2597,5.0711,4.9491,4.8924,4.7693,4.6206,4.4539,4.4539,4.3991,0.0,0.0,0.0,0.0,4.0008,3.9326,3.9199,3.842,3.8096,3.8121,3.8623,3.8455,3.8046,0.0,0.0,0.0,0.0,0.0,0.0,0.0,0.0,0.0,0.0,3.9313,3.9525,3.9982,4.0217,4.0253,0.0,0.0,0.0,0.0,0.0,0.0,0.0,0.0,0.0,0.0,3.9391,3.8823,3.7644,3.7644,3.7075,3.5968,3.6477,3.6956,3.7417,3.7943,0.0,0.0,0.0,0.0,0.0,0.0,0.0,0.0,0.0,0.0,0.0,3.8177,3.8123,0.0,0.0,0.0,0.0,0.0,0.0,0.0,0.0,4.2092,4.2179,4.2469,0.0,4.2789,4.2934,4.276,4.2557,0.0,4.2295,4.2237,4.2673,0.0,4.3362,4.4472,4.4698,4.4959,0.0,0.0,0.0,0.0,0.0,0.0,0.0,0.0,0.0,0.0,0.0,0.0,0.0,0.0,5.4662,5.449,5.3559,5.2975,5.283,5.1726,5.161,5.2597,4.9892,4.8436,4.83,4.621,4.4807,4.3991,4.3991,4.3614,0.0,0.0,0.0,4.0747,4.0362,3.9694,3.8921,3.9155,3.8984,3.8647,3.874,3.8455,3.8024,0.0,0.0,0.0,0.0,0.0,0.0,0.0,0.0,0.0,0.0,0.0,0.0,0.0,0.0,0.0,0.0,0.0,0.0,0.0,0.0,0.0,0.0,0.0,0.0,0.0,3.9092,3.8422,3.7387,3.7135,3.6477,3.5519,3.5878,3.6537,3.7434,3.8093,0.0,0.0,0.0,0.0,0.0,3.7285,0.0,0.0,0.0,0.0,0.0,3.8371,3.8277,0.0,3.8202,3.8434,3.8841,0.0,0.0,0.0,0.0,4.186,4.2092,4.2092,4.2092,4.2092,4.2092,4.2092,4.2092,4.2092,0.0,0.0,0.0,0.0,4.2963,4.4262,4.4008,0.0,0.0,0.0,0.0,0.0,0.0,0.0,0.0,0.0,0.0,0.0,0.0,0.0,0.0,0.0,5.3617,5.3617,5.2688,5.2136,5.2136,5.1203,5.1029,5.1726,4.8764,4.7405,4.7649,4.533,4.4091,4.379,4.3539,4.314,0.0,0.0,0.0,4.0097,3.969,3.9099,3.8455,3.8743,3.8695,3.8455,3.8692,3.8455,3.8048,0.0,0.0,0.0,0.0,0.0,0.0,0.0,0.0,0.0,0.0,0.0,0.0,0.0,0.0,0.0,0.0,0.0,0.0,0.0,0.0,0.0,0.0,0.0,3.9361,3.9242,3.8781,3.8123,3.7255,3.6836,3.6297,3.5639,3.5639,3.6327,3.7584,3.8153,0.0,0.0,0.0,0.0,0.0,3.7255,0.0,0.0,0.0,0.0,0.0,0.0,0.0,0.0,3.8173,3.8057,3.8057,3.8928,0.0,0.0,0.0,0.0,0.0,4.2063,4.2092,4.2092,4.2092,4.2092,4.2092,4.2092,0.0,0.0,0.0,0.0,0.0,0.0,0.0,0.0,0.0,0.0,0.0,0.0,0.0,0.0,0.0,0.0,0.0,0.0,0.0,0.0,0.0,0.0,5.2539,5.2452,5.1904,5.1501,5.1323,5.0714,5.0361,5.0245,4.7626,4.6459,4.6786,4.4577,4.3539,4.3539,4.2986,4.2487,4.2009,0.0,0.0,3.9652,3.8745,3.8262,3.8,3.8,3.8,3.8072,3.8503,3.8383,3.8046,0.0,0.0,0.0,0.0,0.0,0.0,0.0,0.0,0.0,0.0,0.0,0.0,0.0,0.0,0.0,0.0,0.0,0.0,0.0,0.0,0.0,0.0,3.9391,3.9122,3.8571,3.902,3.8392,3.6643,3.7075,3.6956,3.6344,3.6344,3.7032,3.8242,3.835,3.835,3.8182,0.0,0.0,0.0,0.0,0.0,0.0,0.0,0.0,0.0,0.0,0.0,0.0,3.8084,3.7476,3.6896,3.8667,0.0,0.0,0.0,0.0,0.0,4.1947,4.2092,4.2092,4.2092,4.2092,4.2092,4.2092,0.0,0.0,0.0,0.0,0.0,0.0,0.0,0.0,0.0,0.0,0.0,0.0,0.0,0.0,0.0,0.0,0.0,0.0,0.0,0.0,0.0,0.0,5.2365,5.1762,5.1672,5.112,5.0042,4.9349,4.8769,4.8241,4.6962,4.5874,4.5071,4.3298,4.2436,4.2411,4.1831,4.1528,4.1376,0.0,3.997,3.9652,3.8745,3.8262,3.8,3.8,3.8,3.8024,3.807,3.8046,3.8024,0.0,0.0,0.0,0.0,0.0,0.0,0.0,0.0,0.0,0.0,0.0,0.0,0.0,0.0,0.0,0.0,0.0,0.0,0.0,0.0,0.0,3.8871,3.9212,3.9092,3.8409,3.8362,3.7734,3.6493,3.6417,3.6596,3.6985,3.7362,3.7841,3.8409,3.8409,3.8409,3.838,3.8063,0.0,0.0,0.0,0.0,0.0,0.0,0.0,0.0,0.0,0.0,0.0,0.0,3.7777,3.707,3.8402,0.0,0.0,0.0,0.0,0.0,4.1366,4.1541,4.1715,4.2411,4.2586,4.2498,0.0,0.0,0.0,0.0,0.0,0.0,0.0,0.0,0.0,0.0,0.0,0.0,0.0,0.0,0.0,0.0,0.0,0.0,0.0,0.0,0.0,0.0,0.0,0.0,5.1617,5.0602,4.993,4.9722,4.8711,4.7693,4.6574,4.577,4.5139,4.4595,4.2644,4.1706,4.1681,4.1127,4.0796,4.0613,0.0,3.9394,3.8971,3.8571,3.8262,3.8,3.8,3.8,3.8,3.8,3.8,3.8,0.0,0.0,0.0,0.0,0.0,0.0,0.0,0.0,0.0,0.0,0.0,0.0,0.0,0.0,0.0,0.0,0.0,0.0,0.0,0.0,3.9152,3.8661,3.899,3.8781,3.799,3.7734,3.7195,3.6284,3.5908,3.6297,3.7434,3.8242,3.8631,3.8631,3.8631,3.8631,3.8631,3.8469,3.8182,0.0,0.0,0.0,0.0,0.0,0.0,0.0,0.0,0.0,0.0,0.0,0.0,0.0,0.0,0.0,0.0,3.9015,3.9538,4.0031,4.0699,4.0873,4.1134,4.2266,0.0,0.0,0.0,0.0,0.0,0.0,0.0,0.0,0.0,0.0,0.0,0.0,0.0,0.0,0.0,0.0,0.0,0.0,0.0,0.0,0.0,0.0,0.0,0.0,0.0,0.0,5.095,4.9644,4.8948,4.9025,4.8072,4.6814,4.5228,4.4516,4.4059,4.3795,4.1977,4.1127,4.1102,4.0549,4.0167,3.9881,3.9404,3.8893,3.8421,3.8342,3.821,3.8,3.8,3.8,3.8,3.8,3.8,3.8,0.0,0.0,0.0,0.0,0.0,0.0,0.0,0.0,0.0,0.0,0.0,0.0,0.0,0.0,0.0,0.0,0.0,0.0,0.0,0.0,3.9391,3.9331,3.8781,3.7901,3.6673,3.7751,3.7404,3.5579,3.6148,3.6746,3.7434,3.8703,3.9331,3.9331,3.9331,3.9331,3.9302,3.8661,3.8721,3.9212,0.0,0.0,0.0,0.0,0.0,0.0,0.0,0.0,0.0,0.0,0.0,0.0,0.0,0.0,3.8347,3.9015,3.9247,3.9392,4.0002,4.0176,4.035,4.1047,4.1686,0.0,4.3602,4.3369,0.0,4.3718,0.0,0.0,0.0,0.0,0.0,0.0,0.0,0.0,0.0,0.0,0.0,0.0,0.0,0.0,0.0,0.0,0.0,0.0,0.0,0.0,4.8977,4.9383,4.8832,4.7062,4.6917,4.6062,4.4392,4.341,4.2453,4.1544,4.088,4.0549,4.0524,3.9998,3.9618,3.9334,3.8996,3.8684,3.8394,3.8133,3.8,3.8,3.8,3.8,3.8,3.8,3.8,3.8,0.0,0.0,0.0,0.0,0.0,0.0,0.0,0.0,0.0,0.0,0.0,0.0,0.0,0.0,0.0,0.0,0.0,0.0,0.0,0.0,3.9212,3.8811,3.8559,3.799,3.7075,3.7165,3.6656,3.5519,3.7375,3.7985,3.7434,3.8763,3.9391,3.9361,3.8524,3.8392,3.8781,3.896,3.8931,3.8763,3.8835,0.0,0.0,0.0,0.0,0.0,0.0,0.0,0.0,0.0,3.7279,3.6776,3.7887,3.797,3.7767,3.8405,3.858,3.8725,3.9363,3.9799,4.0263,4.0931,4.1599,0.0,0.0,4.3485,4.3689,4.3972,4.4298,0.0,0.0,0.0,0.0,0.0,0.0,0.0,0.0,0.0,0.0,0.0,0.0,0.0,0.0,0.0,0.0,0.0,0.0,0.0,4.9349,4.8426,4.7758,4.7433,4.665,4.5515,4.3942,4.32,4.1979,4.03,4.0099,3.9998,3.9998,3.9617,3.9284,3.8971,3.8684,3.8421,3.8133,3.8027,3.8,3.8,3.8,3.8,3.8,3.8,3.8,3.8,0.0,0.0,0.0,0.0,0.0,0.0,0.0,0.0,0.0,0.0,0.0,0.0,0.0,0.0,0.0,0.0,0.0,0.0,0.0,3.9152,3.9092,3.8422,3.8409,3.8093,3.7417,3.6823,3.6284,3.5818,3.7806,3.8285,3.7434,3.8763,3.9302,3.9032,3.8123,3.7973,3.8422,3.8829,3.8704,3.8346,3.8804,3.8925,0.0,0.0,0.0,0.0,0.0,0.0,0.0,0.0,3.7648,3.7426,3.8128,3.7989,3.7709,3.8347,3.8376,3.8347,3.9015,3.9509,3.9973,4.0612,0.0,0.0,4.3079,4.366,4.4095,4.4523,4.461,0.0,0.0,0.0,0.0,0.0,0.0,0.0,0.0,0.0,0.0,0.0,0.0,0.0,0.0,0.0,0.0,0.0,0.0,0.0,0.0,4.7642,4.6917,4.7195,4.6353,4.5102,4.3438,4.3033,4.1741,3.9697,3.9697,3.9697,3.9697,3.9413,3.9102,3.8788,3.8526,3.8238,3.8,3.8,3.8,3.8,3.8,3.8,3.8,3.8,3.8,3.8,0.0,0.0,0.0,0.0,0.0,0.0,0.0,0.0,0.0,0.0,0.0,0.0,0.0,0.0,0.0,0.0,0.0,0.0,3.7464,3.8644,3.9092,3.8439,3.8409,3.8093,3.7417,3.6806,3.6493,3.6493,3.7105,3.7387,3.7434,3.8763,3.9032,3.8409,3.8409,3.8392,3.8362,3.821,3.8103,3.8115,3.8604,3.8815,0.0,0.0,0.0,0.0,0.0,0.0,0.0,0.0,3.7331,3.7331,3.7331,3.7738,3.8347,3.9015,3.8725,3.8347,3.9015,3.9189,3.9334,0.0,0.0,0.0,4.3544,4.3979,4.4378,4.5656,0.0,0.0,0.0,0.0,0.0,0.0,0.0,0.0,0.0,0.0,0.0,0.0,0.0,0.0,0.0,0.0,0.0,0.0,0.0,0.0,0.0,4.7172,4.6511,4.5917,4.5917,4.4903,4.2816,4.2792,4.1741,3.9697,3.9697,3.9697,3.9697,3.9413,3.9102,3.8788,3.8526,3.8262,3.8,3.8,3.8,3.8,3.8,3.8,3.8,3.8,3.8,3.8,0.0,0.0,0.0,0.0,0.0,0.0,0.0,0.0,0.0,0.0,0.0,0.0,0.0,0.0,0.0,0.0,0.0,0.0,3.8823,3.9182,3.9302,3.9092,3.8661,3.8302,3.8093,3.7062,3.6493,3.6493,3.7105,3.7387,3.7417,3.8302,3.8332,3.7734,3.8182,3.7814,3.6948,3.8246,3.8198,3.7346,3.8209,3.8575,3.8557,0.0,0.0,0.0,0.0,0.0,0.0,0.0,0.0,0.0,3.8633,3.8868,3.8957,3.9131,3.9073,3.8957,3.916,3.9189,0.0,3.9421,0.0,0.0,0.0,4.366,0.0,0.0,0.0,0.0,0.0,0.0,0.0,0.0,0.0,0.0,0.0,0.0,0.0,0.0,0.0,0.0,0.0,0.0,0.0,0.0,0.0,0.0,0.0,4.6505,4.6069,4.5917,4.5917,4.4903,4.2816,4.2792,4.1741,3.9697,3.9491,3.9413,3.9388,3.9076,3.8788,3.85,3.8262,3.8053,3.8,3.8,3.8,3.8,3.8,3.8,3.8,3.8,3.8,3.8,0.0,0.0,0.0,0.0,0.0,0.0,0.0,0.0,0.0,0.0,3.5848,0.0,0.0,0.0,0.0,0.0,0.0,0.0,0.0,0.0,3.9272,3.902,3.8601,3.829,3.8003,3.7255,3.7002,3.7255,3.7105,3.7165,3.7417,3.8093,3.8033,3.7417,3.8005,3.7799,3.6993,3.7772,3.7747,3.7192,3.7773,3.8166,3.8352,0.0,0.0,0.0,0.0,0.0,0.0,0.0,0.0,0.0,3.9576,3.9654,3.9567,3.9567,3.9392,3.9189,3.9189,3.9363,0.0,3.9886,0.0,0.0,0.0,0.0,0.0,0.0,0.0,0.0,0.0,0.0,0.0,0.0,0.0,0.0,0.0,0.0,0.0,0.0,0.0,0.0,0.0,0.0,0.0,0.0,0.0,0.0,0.0,4.6243,4.5917,4.5917,4.5917,4.4903,4.2816,4.2792,4.1741,3.9697,3.9413,3.9232,3.9076,3.8788,3.8552,3.8394,3.8106,3.8,3.8,3.8,3.8,3.8,3.8,3.8,3.8,3.8,3.8,3.8,0.0,0.0,0.0,0.0,0.0,0.0,0.0,0.0,0.0,0.0,3.5519,3.5998,0.0,0.0,0.0,0.0,0.0,0.0,0.0,0.0,3.9092,3.8422,3.835,3.8033,3.7494,3.7417,3.7734,3.8409,3.7122,3.6823,3.7417,3.8033,3.7943,3.7327,0.0,3.8074,3.7949,3.7005,3.6944,3.7474,3.7357,3.768,3.8202,3.8202,0.0,0.0,0.0,0.0,0.0,0.0,0.0,0.0,4.0089,4.0089,4.0118,4.0176,3.977,3.9305,3.9363,0.0,0.0,4.1018,0.0,0.0,0.0,0.0,0.0,0.0,0.0,0.0,0.0,0.0,0.0,0.0,0.0,0.0,0.0,0.0,0.0,0.0,0.0,0.0,0.0,0.0,0.0,0.0,0.0,0.0,0.0,4.6214,4.5917,4.5917,4.5917,4.4903,4.2816,4.2792,4.1741,3.9671,3.9413,3.9076,3.8762,3.8526,3.8394,3.8368,3.8106,3.8,3.8,3.8,3.8,3.8,3.8,3.8,3.8,3.8,3.8,3.8,0.0,0.0,0.0,0.0,0.0,0.0,0.0,0.0,0.0,0.0,0.0,0.0,0.0,0.0,0.0,0.0,0.0,0.0,0.0,0.0,3.9092,3.8422,3.7913,3.7793,3.8182,3.7674,3.7734,3.8409,3.7122,3.6823,3.7387,3.7554,3.7285,3.6746,0.0,3.7819,3.7151,3.6775,3.6872,3.7339,3.7302,3.768,3.8202,3.8202,3.8202,0.0,0.0,0.0,0.0,0.0,0.0,0.0,4.0089,4.0089,4.0205,4.0728,4.0408,4.0031,4.0554,4.0786,0.0,0.0,4.3195,0.0,0.0,0.0,0.0,0.0,0.0,0.0,0.0,0.0,0.0,0.0,0.0,0.0,0.0,0.0,0.0,0.0,0.0,0.0,0.0,0.0,0.0,0.0,0.0,0.0,4.6127,4.5953,4.5917,4.5917,4.5917,4.4903,4.2816,4.2792,4.1642,0.0,3.905,3.8762,3.85,3.8447,3.8289,3.808,3.8027,3.8,3.8,3.8,3.8,3.8,3.8,3.8,3.8,3.8,3.8,3.8,0.0,0.0,0.0,0.0,0.0,0.0,0.0,0.0,0.0,0.0,0.0,0.0,0.0,0.0,0.0,0.0,0.0,0.0,0.0,0.0,0.0,3.7973,3.7883,3.7883,3.7913,3.7883,3.8212,3.8871,3.7554,0.0,0.0,0.0,0.0,3.728,0.0,3.7748,3.721,3.6692,3.6783,3.7302,3.7302,3.768,3.8202,3.8202,3.8202,3.8289,3.8957,0.0,0.0,0.0,0.0,0.0,0.0,0.0,4.0583,4.0612,4.0583,4.0525,4.0263,0.0,0.0,4.3137,0.0,0.0,0.0,0.0,0.0,0.0,0.0,0.0,0.0,0.0,0.0,0.0,0.0,0.0,0.0,0.0,0.0,0.0,0.0,0.0,0.0,0.0,0.0,0.0,0.0,4.6243,4.5917,4.5917,4.5917,4.5917,4.5384,4.4359,4.2816,4.2306,4.1094,3.9284,3.8971,3.8458,3.7823,3.8089,3.8133,3.8,3.8,3.8,3.8,3.8,3.8,3.8,3.8,3.8,3.8,3.8,3.8,3.8,0.0,0.0,0.0,0.0,0.0,0.0,0.0,0.0,0.0,0.0,0.0,0.0,0.0,0.0,0.0,0.0,0.0,0.0,0.0,0.0,0.0,3.7776,3.8153,3.8182,3.7746,3.8302,3.8781,3.9212,0.0,0.0,0.0,0.0,0.0,3.7925,0.0,3.7804,3.7682,3.6724,3.6751,3.7447,3.7342,3.768,3.8202,3.8347,0.0,3.8463,3.9247,3.945,3.9421,3.9915,0.0,0.0,0.0,0.0,4.096,4.0292,4.0583,4.0873,3.9799,0.0,4.2818,4.4494,4.5395,0.0,0.0,0.0,0.0,0.0,0.0,0.0,0.0,0.0,0.0,0.0,0.0,0.0,0.0,0.0,0.0,0.0,0.0,0.0,0.0,0.0,0.0,0.0,0.0,4.5917,4.5917,4.5917,4.5917,4.5917,4.5035,4.4008,4.2816,4.1914,4.0718,3.9206,3.8742,3.8009,3.7084,3.7517,3.7735,3.7735,3.7735,3.7735,3.7735,3.7735,3.7784,3.788,3.788,3.7928,3.8,3.8,3.8,3.8,0.0,0.0,0.0,0.0,0.0,0.0,0.0,0.0,0.0,0.0,0.0,0.0,0.0,0.0,0.0,0.0,0.0,0.0,3.9391,0.0,0.0,3.9122,3.8661,3.8631,3.9122,3.9212,3.902,3.8512,0.0,0.0,0.0,0.0,0.0,3.7238,0.0,0.0,3.8307,3.6881,3.6983,3.8028,3.7506,3.768,3.826,0.0,0.0,0.0,0.0,4.0466,3.9973,4.006,4.0495,0.0,0.0,0.0,4.096,4.0292,4.0583,4.1047,0.0,0.0,4.3921,0.0,4.5395,4.5917,0.0,0.0,0.0,0.0,0.0,0.0,0.0,0.0,0.0,0.0,0.0,0.0,0.0,0.0,0.0,0.0,0.0,0.0,0.0,0.0,0.0,0.0,4.5917,4.5917,4.5917,4.5917,4.5917,4.5917,4.5753,4.4759,4.2816,4.2671,4.1344,3.8867,3.7882,3.7113,3.6507,3.6579,3.6627,3.6627,3.6627,3.6627,3.6627,3.6627,3.6892,3.73,3.73,3.7589,3.8,3.8,3.8,3.8,0.0,0.0,0.0,0.0,0.0,0.0,0.0,0.0,0.0,0.0,0.0,0.0,0.0,0.0,0.0,3.8362,3.902,3.9391,3.9391,3.9122,3.8931,3.8841,3.8542,3.8559,3.8841,3.8841,3.8871,0.0,0.0,0.0,0.0,3.7807,3.7742,0.0,0.0,0.0,0.0,0.0,3.826,3.8783,3.8841,3.8841,0.0,0.0,0.0,0.0,0.0,0.0,0.0,3.9596,3.9538,3.9509,3.9654,0.0,0.0,0.0,4.0583,4.125,4.1976,4.2789,4.366,0.0,4.5133,4.5453,4.583,0.0,0.0,0.0,0.0,0.0,0.0,0.0,0.0,0.0,0.0,0.0,0.0,0.0,0.0,0.0,0.0,0.0,0.0,0.0,0.0,0.0,4.5917,4.5917,4.5917,4.5917,4.5917,4.5917,4.5316,4.4289,4.2816,4.2208,4.0738,3.8398,3.6979,3.6194,3.5928,3.564,3.5808,3.6411,3.6411,3.6411,3.6411,3.6411,3.6723,3.7204,3.7204,3.7324,3.7589,3.7904,3.7639,3.7132,0.0,0.0,0.0,0.0,0.0,0.0,0.0,0.0,0.0,0.0,0.0,0.0,0.0,0.0,0.0,0.0,3.902,3.9391,3.9391,3.9391,3.9182,3.8691,3.8661,3.8661,3.8661,3.8661,0.0,0.0,0.0,0.0,3.8103,3.8068,3.8178,0.0,3.8512,0.0,0.0,0.0,0.0,0.0,0.0,0.0,0.0,0.0,0.0,0.0,0.0,0.0,0.0,0.0,0.0,0.0,0.0,0.0,0.0,0.0,0.0,0.0,0.0,0.0,4.3456,4.4436,4.493,4.5308,0.0,0.0,0.0,0.0,0.0,0.0,0.0,0.0,0.0,0.0,0.0,0.0,0.0,0.0,0.0,0.0,0.0,0.0,0.0,0.0,0.0,0.0,4.5917,4.5917,4.5917,4.5917,4.583,4.5656,4.4766,4.3653,4.2382,4.0898,3.9347,3.7636,3.6252,3.552,3.5376,3.4991,3.5232,3.6002,3.6002,3.6002,3.6002,3.6002,3.6314,3.6795,3.6795,3.6867,3.7036,3.7445,3.7084,3.6459,0.0,0.0,0.0,0.0,0.0,0.0,0.0,0.0,0.0,0.0,0.0,0.0,0.0,3.838,3.8409,3.8409,3.902,3.9391,3.9391,3.9391,3.9391,3.9361,3.9361,0.0,3.9361,3.9361,0.0,0.0,0.0,0.0,3.8103,3.7895,3.8069,3.8512,3.8512,3.9041,3.9915,0.0,0.0,0.0,0.0,0.0,0.0,0.0,0.0,0.0,0.0,0.0,0.0,0.0,0.0,0.0,0.0,0.0,0.0,0.0,0.0,0.0,0.0,4.3021,0.0,4.4037,4.4959,0.0,0.0,0.0,0.0,0.0,0.0,0.0,0.0,0.0,0.0,0.0,0.0,0.0,0.0,0.0,0.0,0.0,0.0,0.0,0.0,0.0,0.0,0.0,4.5917,4.5917,4.5917,4.5917,4.5627,4.4988,4.4538,4.3287,4.111,3.8656,3.7096,3.6481,3.5864,3.5328,3.4847,3.4823,3.4823,3.4871,3.4871,3.4871,3.4871,3.4871,3.5208,3.5664,3.5664,3.6002,3.6459,3.6483,3.6459,3.6411,0.0,0.0,0.0,0.0,0.0,0.0,0.0,0.0,0.0,0.0,0.0,0.0,0.0,3.9032,3.9032,3.9032,3.9272,3.9391,3.9391,3.9391,3.9391,3.9391,3.899,3.896,3.9391,3.8554,0.0,0.0,0.0,3.8371,3.8363,3.8563,3.8929,3.9518,3.9518,3.9509,3.9538,3.9915,0.0,0.0,0.0,0.0,0.0,0.0,0.0,0.0,0.0,0.0,0.0,0.0,0.0,0.0,0.0,0.0,0.0,0.0,0.0,0.0,0.0,0.0,0.0,4.3805,4.4327,4.4879,4.5714,4.5917,4.5917,0.0,0.0,0.0,0.0,0.0,0.0,0.0,0.0,0.0,0.0,0.0,0.0,0.0,0.0,0.0,0.0,0.0,0.0,0.0,0.0,4.5917,4.5917,4.5511,4.4867,4.4026,4.3421,4.2178,4.0139,3.7834,3.6604,3.6407,3.5501,3.4991,3.4799,3.4799,3.4799,3.4799,3.4799,3.4799,3.4799,3.4799,3.5111,3.5592,3.5592,3.5712,3.593,3.6266,3.5953,3.5424,0.0,0.0,0.0,0.0,0.0,0.0,0.0,0.0,0.0,0.0,0.0,0.0,0.0,0.0,3.9391,3.9391,3.9391,3.9391,3.9391,3.9391,3.9302,3.9062,3.8841,3.8841,3.908,0.0,0.0,0.0,0.0,0.0,0.0,3.8572,3.905,3.9916,3.9838,3.9799,0.0,0.0,0.0,3.9799,0.0,0.0,3.9276,0.0,0.0,0.0,0.0,0.0,0.0,0.0,0.0,0.0,0.0,0.0,0.0,0.0,0.0,0.0,4.1773,0.0,0.0,0.0,0.0,4.4269,4.5337,0.0,4.5627,4.5859,0.0,0.0,0.0,0.0,0.0,0.0,0.0,0.0,0.0,0.0,0.0,0.0,0.0,0.0,0.0,0.0,0.0,0.0,0.0,0.0,4.5917,4.5256,4.4209,4.2688,4.152,4.0233,3.8803,3.7016,3.6137,3.6112,3.5211,3.4799,3.4799,3.4799,3.4799,3.4799,3.4799,3.4799,3.4799,3.4799,3.5015,3.5328,3.5328,3.5328,3.5376,3.5712,3.54,3.4847,0.0,0.0,0.0,0.0,0.0,0.0,0.0,0.0,0.0,0.0,0.0,0.0,0.0,0.0,0.0,3.9331,3.9331,3.9361,3.9361,3.9361,3.9062,3.8439,3.9002,3.9032,3.8422,0.0,0.0,0.0,0.0,0.0,0.0,0.0,3.823,3.9437,3.9256,3.9857,4.0873,0.0,3.8638,3.9218,0.0,3.9218,3.9305,0.0,0.0,0.0,3.945,3.9247,0.0,0.0,0.0,0.0,0.0,0.0,0.0,0.0,0.0,0.0,0.0,0.0,0.0,0.0,0.0,0.0,4.4756,0.0,4.5053,4.5743,4.5888,0.0,0.0,0.0,0.0,0.0,0.0,0.0,0.0,0.0,0.0,0.0,0.0,0.0,0.0,0.0,0.0,0.0,4.5917,4.5917,4.5917,4.5183,4.3572,4.0974,3.8856,3.7573,3.7185,3.6131,3.5596,3.5596,3.5042,3.4799,3.4799,3.4799,3.4799,3.4799,3.4799,3.4799,3.4799,3.4799,3.4799,3.4799,3.4799,3.4799,3.4799,3.4799,3.4799,3.4799,0.0,0.0,0.0,0.0,0.0,0.0,0.0,0.0,0.0,0.0,0.0,0.0,0.0,0.0,3.8482,3.8003,3.7956,3.8153,3.8631,3.8225,3.8093,3.8409,3.8123,3.8315,3.9092,0.0,0.0,0.0,0.0,0.0,0.0,0.0,0.0,0.0,3.8482,3.8667,3.9015,3.9421,0.0,0.0,3.9857,3.9857,0.0,0.0,0.0,0.0,0.0,4.0263,0.0,0.0,4.0989,4.0583,0.0,0.0,0.0,0.0,0.0,0.0,4.096,0.0,0.0,0.0,0.0,0.0,4.4095,4.4262,4.4436,4.5046,4.5191,4.5337,0.0,0.0,0.0,0.0,0.0,0.0,0.0,0.0,0.0,0.0,0.0,0.0,0.0,0.0,0.0,0.0,4.5917,4.5917,4.5917,4.3506,4.1078,3.878,3.7446,3.674,3.6607,3.5958,3.5596,3.5596,3.5042,3.4799,3.4799,3.4799,3.4799,3.4799,3.4799,3.4799,3.4799,3.4799,3.4799,3.4799,3.4799,3.4799,3.4799,3.4799,3.4799,3.4799,0.0,0.0,0.0,0.0,0.0,0.0,0.0,0.0,0.0,0.0,0.0,0.0,0.0,0.0,0.0,3.7417,3.7387,3.7584,3.7973,3.7614,3.7464,3.7601,3.7647,3.7923,3.843,0.0,0.0,0.0,0.0,0.0,0.0,0.0,0.0,0.0,0.0,0.0,0.0,0.0,0.0,0.0,4.0002,0.0,0.0,4.0815,4.0931,0.0,0.0,0.0,4.1395,4.1918,4.1657,0.0,0.0,0.0,0.0,0.0,0.0,0.0,0.0,0.0,0.0,0.0,0.0,0.0,4.305,4.3398,4.3768,0.0,4.4501,4.464,4.5046,4.5308,0.0,0.0,0.0,0.0,0.0,0.0,0.0,0.0,0.0,0.0,0.0,4.5917,4.5917,4.5917,4.5917,4.5476,4.4547,4.2352,4.0087,3.7871,3.6873,3.6405,3.6405,3.5884,3.5596,3.5596,3.5042,3.4799,3.4799,3.4799,3.4799,3.4799,3.4799,3.4799,3.4799,3.4799,3.4799,3.4799,3.4799,3.4799,3.4799,3.4799,3.4799,3.4799,0.0,0.0,0.0,0.0,0.0,0.0,0.0,0.0,0.0,0.0,0.0,0.0,0.0,0.0,0.0,0.0,3.7195,3.7208,3.7315,3.7315,0.0,0.0,0.0,0.0,0.0,0.0,0.0,0.0,0.0,0.0,0.0,0.0,0.0,0.0,0.0,0.0,0.0,0.0,0.0,3.945,4.0089,4.067,0.0,0.0,4.2092,0.0,4.2092,4.244,4.2818,4.2266,4.1686,0.0,0.0,0.0,0.0,0.0,3.9567,0.0,0.0,0.0,0.0,0.0,0.0,0.0,4.186,4.244,4.305,4.366,4.3776,4.3776,4.3776,4.4269,4.4669,0.0,0.0,0.0,0.0,0.0,0.0,0.0,0.0,0.0,4.5917,4.5917,4.5917,4.5917,4.574,4.4633,4.2391,4.1352,3.9872,3.771,3.6851,3.6405,3.6405,3.5884,3.5596,3.5596,3.5042,3.4799,3.4799,3.4799,3.4799,3.4799,3.4799,3.4799,3.4799,3.4799,3.4799,3.4799,3.4799,3.4799,3.4799,3.4799,3.4799,3.4799,0.0,0.0,0.0,0.0,0.0,0.0,0.0,0.0,0.0,0.0,0.0,0.0,0.0,0.0,0.0,0.0,3.5878,3.6118,3.6626,0.0,0.0,0.0,0.0,0.0,0.0,0.0,0.0,0.0,0.0,0.0,0.0,0.0,0.0,0.0,0.0,0.0,0.0,0.0,0.0,4.0786,4.1453,0.0,4.1918,4.2063,4.2092,4.2092,4.2092,4.2179,4.2266,0.0,4.2005,4.1802,0.0,0.0,0.0,0.0,0.0,0.0,0.0,0.0,0.0,0.0,0.0,0.0,4.1395,4.1802,4.2295,4.244,4.2469,4.2469,4.2469,4.2963,4.3195,4.2731,0.0,0.0,0.0,0.0,0.0,0.0,0.0,0.0,4.5917,4.5917,4.5917,4.5917,4.4692,4.3003,4.0785,3.9719,3.8405,3.6736,3.6499,3.6405,3.6405,3.5884,3.5596,3.5596,3.5042,3.4799,3.4799,3.4799,3.4799,3.4799,3.4799,3.4799,3.4799,3.4799,3.4799,3.4799,3.4799,3.4799,3.4799,3.4799,3.4799,3.4799,0.0,0.0,0.0,0.0,0.0,0.0,0.0,0.0,0.0,0.0,0.0,0.0,0.0,0.0,0.0,0.0,0.0,0.0,0.0,0.0,0.0,0.0,0.0,0.0,0.0,0.0,0.0,0.0,0.0,0.0,0.0,0.0,0.0,0.0,0.0,0.0,0.0,0.0,4.0205,4.1105,4.1105,0.0,4.2092,4.2092,4.2092,4.2092,4.2092,4.2092,4.215,4.244,4.2353,0.0,0.0,4.1366,4.096,0.0,4.0147,4.006,0.0,0.0,0.0,4.0089,0.0,0.0,0.0,4.0873,4.1105,4.1105,4.1105,4.1105,4.1105,0.0,4.244,4.215,4.3398,4.456,0.0,0.0,0.0,0.0,0.0,0.0,4.5453,4.5395,4.5078,4.4263,4.3449,4.1973,3.9639,3.9005,3.8046,3.6454,3.6405,3.6334,3.6217,3.5812,3.5524,3.5404,3.4969,3.4799,3.4799,3.4799,3.4799,3.4799,3.4799,3.4799,3.4799,3.4799,3.4799,3.4799,3.4799,3.4799,3.4799,3.4799,3.4799,3.4799,0.0,0.0,0.0,0.0,0.0,0.0,0.0,0.0,0.0,0.0,0.0,0.0,0.0,0.0,0.0,0.0,0.0,0.0,0.0,0.0,0.0,0.0,0.0,3.8465,0.0,0.0,0.0,0.0,0.0,0.0,0.0,0.0,0.0,0.0,0.0,0.0,0.0,0.0,0.0,4.1395,0.0,4.1018,4.2092,4.2092,4.2092,4.2092,4.2092,4.2092,4.2179,4.2644,0.0,4.2092,4.2092,4.1802,0.0,0.0,0.0,0.0,0.0,0.0,0.0,0.0,0.0,3.9654,0.0,0.0,0.0,3.9944,3.9915,0.0,0.0,0.0,0.0,0.0,0.0,0.0,0.0,0.0,0.0,0.0,0.0,0.0,4.4785,4.4727,4.4042,4.2435,4.2155,4.1045,3.8737,3.8431,3.7732,3.6454,3.6405,3.6287,3.6074,3.5764,3.55,3.5284,3.4945,3.4799,3.4799,3.4799,3.4799,3.4799,3.4799,3.4799,3.4799,3.4799,3.4799,3.4799,3.4799,3.4799,3.4799,3.4799,3.4799,3.4775,3.8302,3.8452,0.0,0.0,0.0,0.0,0.0,0.0,0.0,0.0,0.0,0.0,0.0,0.0,0.0,0.0,0.0,0.0,3.8063,0.0,0.0,0.0,0.0,0.0,4.0198,0.0,0.0,0.0,0.0,0.0,0.0,0.0,0.0,0.0,3.9538,0.0,0.0,0.0,4.1192,0.0,4.1453,4.1424,0.0,4.2092,4.2092,4.2092,4.2092,4.2092,4.2121,0.0,4.215,4.2092,0.0,4.2411,0.0,0.0,0.0,0.0,0.0,0.0,0.0,0.0,4.0495,0.0,0.0,0.0,3.9944,3.9421,0.0,0.0,0.0,0.0,0.0,0.0,0.0,0.0,4.0786,4.2644,4.4233,4.4233,4.4233,4.4182,0.0,4.4095,4.3437,4.1837,4.094,3.9721,3.7995,3.7115,3.6573,3.6405,3.6405,3.6381,3.6334,3.586,3.5596,3.5548,3.5042,3.4799,3.4799,3.4799,3.4799,3.4799,3.4799,3.4799,3.4799,3.4799,3.4799,3.4799,3.4799,3.4799,3.4799,3.4799,3.4799,3.4653,0.0,3.7584,0.0,0.0,0.0,0.0,0.0,0.0,0.0,0.0,0.0,0.0,0.0,0.0,0.0,0.0,0.0,3.9409,0.0,0.0,0.0,0.0,0.0,0.0,0.0,0.0,0.0,0.0,4.0902,0.0,0.0,0.0,0.0,0.0,4.0525,0.0,4.0089,0.0,0.0,0.0,0.0,0.0,0.0,4.2382,4.2092,4.2092,4.2092,4.2092,4.2092,0.0,4.2092,0.0,0.0,0.0,0.0,0.0,0.0,0.0,0.0,0.0,0.0,0.0,0.0,0.0,0.0,0.0,3.8928,0.0,0.0,0.0,0.0,0.0,0.0,0.0,4.0379,0.0,0.0,0.0,4.2586,0.0,0.0,0.0,0.0,0.0,0.0,4.0349,3.9835,3.8853,3.7085,3.6617,3.6405,3.6405,3.6405,3.631,3.6169,3.5788,3.5524,3.538,3.4969,3.4799,3.4799,3.4799,3.4799,3.4799,3.4799,3.4799,3.4799,3.4799,3.4799,3.4799,3.4799,3.4799,3.4799,3.4799,3.4991,3.5108,0.0,0.0,0.0,0.0,0.0,0.0,0.0,0.0,0.0,0.0,0.0,0.0,3.9828,3.908,0.0,0.0,0.0,4.0666,0.0,0.0,4.0456,0.0,0.0,0.0,0.0,0.0,0.0,0.0,0.0,0.0,0.0,0.0,0.0,0.0,0.0,4.1308,4.0118,0.0,0.0,4.2702,4.3631,4.3892,4.3602,4.2702,4.2237,4.2092,4.2092,4.2092,4.2121,4.2295,4.2353,0.0,4.3079,0.0,0.0,0.0,0.0,0.0,4.1831,0.0,0.0,0.0,0.0,0.0,0.0,0.0,0.0,0.0,0.0,0.0,0.0,0.0,0.0,0.0,0.0,4.0815,0.0,0.0,0.0,0.0,0.0,0.0,0.0,0.0,4.1047,3.912,3.8966,3.8121,3.6249,3.6306,3.6405,3.6405,3.6405,3.6288,3.5979,3.574,3.5476,3.5211,3.492,3.4799,3.4799,3.4799,3.4799,3.4799,3.4799,3.4799,3.4799,3.4799,3.4799,3.4799,3.4799,3.4727,3.4607,3.4751,3.4939,3.4943,3.9182,3.8285,0.0,0.0,0.0,0.0,0.0,0.0,0.0,0.0,0.0,0.0,0.0,0.0,0.0,0.0,0.0,4.2051,4.1373,0.0,4.0415,0.0,0.0,0.0,0.0,0.0,0.0,0.0,0.0,0.0,0.0,0.0,0.0,0.0,0.0,4.2063,4.2063,4.2702,4.334,4.3921,4.3979,4.3602,4.3042,0.0,4.2615,4.2092,4.2092,0.0,0.0,4.276,4.2963,0.0,0.0,0.0,0.0,0.0,0.0,0.0,0.0,0.0,0.0,4.2208,0.0,0.0,0.0,0.0,4.0031,0.0,0.0,0.0,0.0,0.0,0.0,0.0,0.0,0.0,0.0,0.0,0.0,0.0,0.0,0.0,0.0,4.1512,4.0383,3.8558,3.8363,3.7515,3.5623,3.6081,3.6405,3.6405,3.6405,3.6288,3.5979,3.574,3.5476,3.5211,3.492,3.4799,3.4799,3.4799,3.4799,3.4799,3.4799,3.4799,3.4799,3.4799,3.4799,3.4799,3.4799,3.4487,3.4078,3.4607,3.442,3.3706,0.0,0.0,0.0,0.0,0.0,0.0,0.0,4.0965,0.0,0.0,0.0,0.0,0.0,0.0,4.2651,0.0,0.0,4.2851,4.2475,4.1636,0.0,0.0,0.0,4.0732,0.0,0.0,0.0,0.0,0.0,0.0,0.0,0.0,0.0,0.0,0.0,4.2092,0.0,0.0,0.0,0.0,0.0,4.464,4.366,0.0,0.0,4.2208,4.305,4.3079,0.0,4.3427,4.366,4.3747,4.4407,4.4465,4.4349,4.4552,4.4465,0.0,0.0,0.0,4.403,4.2984,0.0,0.0,0.0,0.0,0.0,0.0,0.0,0.0,0.0,0.0,0.0,0.0,0.0,0.0,0.0,0.0,0.0,0.0,0.0,0.0,0.0,0.0,0.0,3.7878,3.7561,3.6866,3.5552,3.6056,3.6405,3.6405,3.6405,3.6288,3.5979,3.574,3.5476,3.5211,3.492,3.4799,3.4799,3.4799,3.4799,3.4799,3.4799,3.4799,3.4799,3.4799,3.4799,3.4799,3.4799,3.4487,3.3935,3.3501,3.3202,3.2885,3.8842,0.0,0.0,0.0,0.0,0.0,0.0,0.0,0.0,0.0,4.2771,0.0,4.4496,0.0,4.3758,0.0,4.3997,4.3708,4.303,4.2505,0.0,4.1814,4.1212,0.0,0.0,0.0,0.0,0.0,0.0,4.2121,0.0,0.0,0.0,0.0,0.0,0.0,4.2179,0.0,4.4211,0.0,0.0,4.4908,0.0,0.0,4.3515,4.2557,0.0,4.3718,4.3456,4.4095,4.432,4.4436,4.5075,4.4988,4.4756,4.5162,4.4966,4.4618,4.4356,4.4589,0.0,4.3602,4.3362,0.0,4.2005,0.0,0.0,0.0,0.0,0.0,0.0,0.0,0.0,0.0,0.0,0.0,0.0,3.858,0.0,0.0,0.0,0.0,0.0,0.0,3.8497,3.6953,3.6534,3.5934,0.0,3.5655,3.618,3.6405,3.6405,3.6216,3.586,3.5692,3.5428,3.5042,3.4872,3.4799,3.4799,3.4799,3.4799,3.4799,3.4799,3.4799,3.4799,3.4799,3.4799,3.4799,3.4799,3.4221,3.3361,3.2806,3.2279,3.1774,0.0,0.0,0.0,0.0,3.9923,0.0,0.0,0.0,4.2631,0.0,4.3938,4.4616,4.5304,4.4825,4.4706,4.5304,4.5334,0.0,4.3179,4.3149,0.0,0.0,4.1204,4.1037,4.1823,0.0,0.0,0.0,0.0,0.0,0.0,0.0,0.0,0.0,4.2353,0.0,4.2237,4.3456,4.4008,4.4066,4.4669,4.4552,4.4066,4.4727,4.4175,4.3166,4.3834,4.4066,4.4146,4.4756,4.4959,4.5075,4.5714,4.5917,4.5917,4.5917,4.5917,4.5772,4.5133,4.4959,4.4814,4.4204,0.0,0.0,0.0,0.0,4.2876,0.0,0.0,0.0,0.0,0.0,0.0,0.0,0.0,0.0,0.0,0.0,0.0,0.0,0.0,0.0,0.0,3.9096,3.7318,3.5911,3.5414,3.4826,0.0,3.4929,3.5782,3.638,3.6405,3.6121,3.5596,3.5596,3.5332,3.4799,3.4799,3.4799,3.4799,3.4799,3.4799,3.4799,3.4799,3.4799,3.4799,3.4799,3.4799,3.4799,3.4799,3.3761,3.2298,3.2371,3.1607,3.0409,3.8918,3.918,3.991,0.0,4.133,4.1643,0.0,0.0,0.0,0.0,4.4945,4.5484,4.6651,4.6651,4.6411,4.6061,4.6031,0.0,0.0,0.0,0.0,4.393,4.3395,4.3269,4.3625,4.2615,0.0,4.2092,0.0,0.0,4.1831,0.0,0.0,0.0,0.0,0.0,4.2818,4.3631,4.4262,4.4676,4.4843,4.4552,0.0,0.0,4.5133,4.4494,4.5169,4.5082,4.4785,4.5424,4.5656,4.5663,4.5859,4.5917,4.5917,4.5917,4.5917,4.5837,4.5685,4.5656,4.5511,4.4843,4.4669,4.4523,0.0,0.0,0.0,0.0,0.0,0.0,0.0,0.0,0.0,0.0,0.0,0.0,0.0,0.0,0.0,3.8928,0.0,0.0,3.8842,3.8327,3.727,3.5763,3.5372,3.5007,3.4519,0.0,0.0,3.638,3.6405,3.6121,3.5596,3.5596,3.5332,3.4799,3.4799,3.4799,3.4799,3.4799,3.4799,3.4799,3.4799,3.4799,3.4799,3.4799,3.4799,3.4799,3.4799,3.3185,3.0732,2.9873,2.9461,2.9307,3.8565,0.0,0.0,4.2725,0.0,0.0,4.4087,0.0,0.0,4.5427,4.6083,0.0,4.7485,4.7931,4.7908,4.7249,4.7081,0.0,0.0,0.0,0.0,4.4485,4.4229,4.4194,4.4294,4.341,0.0,4.2934,0.0,0.0,4.2353,0.0,0.0,0.0,0.0,4.2295,0.0,4.3602,4.4204,4.4552,4.4792,0.0,0.0,4.5191,4.5424,4.5395,4.575,4.5656,4.5372,4.575,4.5917,4.5917,4.5917,4.5917,4.5917,4.5917,4.5917,4.5917,4.5917,4.5917,4.583,4.5453,4.5337,4.5169,4.4552,4.4385,4.4146,0.0,0.0,0.0,0.0,0.0,0.0,0.0,0.0,0.0,0.0,0.0,0.0,0.0,3.8418,0.0,3.7653,3.6857,3.59,3.4781,3.4418,3.4313,0.0,0.0,0.0,3.638,3.6287,3.6027,3.5596,3.5476,3.5187,3.4799,3.4799,3.4799,3.4799,3.4799,3.4799,3.4799,3.4799,3.4799,3.4799,3.4799,3.4799,3.4702,3.377,3.204,3.0002,2.8855,2.839,2.8398,0.0,0.0,0.0,0.0,0.0,0.0,0.0,4.5138,0.0,4.6202,0.0,4.8075,4.803,4.8768,4.9,4.8357,0.0,4.7363,4.5953,4.5829,4.5426,4.4586,4.4514,4.4514,4.4514,4.4261,0.0,0.0,0.0,0.0,0.0,0.0,0.0,0.0,0.0,0.0,0.0,4.3456,4.395,4.4153,4.4698,4.4872,4.4814,4.4988,4.5308,4.5663,4.5859,4.5917,4.5917,4.5917,4.5917,4.5917,4.5917,4.5917,4.5917,4.5917,4.5917,4.5917,4.5917,4.5917,4.5917,4.5917,4.5917,4.5743,4.514,4.5046,4.4669,4.3369,4.3137,4.2905,0.0,0.0,0.0,0.0,0.0,0.0,0.0,0.0,0.0,0.0,0.0,0.0,3.6816,3.5487,3.441,3.3686,3.3402,3.3449,0.0,0.0,0.0,3.6256,3.6119,3.5908,3.5596,0.0,3.509,3.4799,3.4799,3.4799,3.4799,3.4799,3.4799,3.4799,3.4799,3.4799,3.4799,3.4799,3.4726,3.436,3.2221,3.0747,2.9693,2.8688,2.8093,2.7839,0.0,0.0,0.0,0.0,0.0,4.766,4.8319,4.7557,4.7125,4.7804,4.8581,4.8992,4.8766,4.8855,4.8839,4.8486,4.8417,0.0,0.0,0.0,0.0,4.5903,4.5725,4.5614,4.5614,4.5017,4.4756,0.0,0.0,0.0,0.0,0.0,0.0,0.0,0.0,0.0,4.4378,4.3536,0.0,4.4756,4.4872,4.461,4.4269,4.5337,4.5162,4.4472,4.554,4.5917,4.5917,4.5917,4.5917,4.5917,4.5917,4.5917,4.5917,4.5917,4.5917,4.5917,4.5917,4.5917,4.5917,4.5917,4.5917,4.5888,4.5772,4.5743,4.5343,4.4066,4.3805,4.3456,4.2295,0.0,0.0,0.0,0.0,0.0,0.0,0.0,0.0,0.0,0.0,0.0,0.0,3.6069,3.5822,3.4344,3.4199,0.0,0.0,0.0,3.5004,0.0,3.6085,0.0,0.0,0.0,3.5284,3.4799,3.4799,3.4799,3.4799,3.4799,3.4799,3.4799,3.4799,3.4799,3.4799,3.4799,3.4262,3.325,3.1051,2.9865,2.9332,2.8569,2.8242,2.8327,0.0,0.0,0.0,0.0,0.0,0.0,0.0,5.0156,0.0,4.9163,4.9287,4.9351,4.9212,4.9514,4.9527,4.9056,4.8881,4.8523,4.7854,4.7618,4.7217,4.6548,4.6405,0.0,4.5917,4.5249,4.4901,4.4901,0.0,0.0,0.0,0.0,0.0,0.0,0.0,4.366,0.0,0.0,0.0,4.493,4.5278,4.5046,4.456,4.554,4.5285,4.4589,4.5569,4.5917,4.5917,4.5917,4.5917,4.5917,4.5917,4.5917,4.5917,4.5917,4.5917,4.5917,4.5917,4.5917,4.5917,4.5917,4.5917,4.5917,4.5917,4.5917,4.554,4.4262,4.3979,4.3602,4.2324,4.1831,0.0,0.0,0.0,0.0,0.0,0.0,0.0,0.0,0.0,0.0,0.0,0.0,0.0,0.0,0.0,0.0,0.0,0.0,3.4954,0.0,0.0,0.0,0.0,0.0,0.0,3.4799,3.4799,3.4799,3.4799,3.4799,3.4799,3.4799,3.4799,3.4799,3.475,3.4189,3.3325,3.2221,3.0535,2.9443,2.8751,2.8416,2.8601,2.9031,0.0,4.3925,0.0,0.0,4.8447,0.0,5.1762,5.2072,5.163,5.0644,5.0283,5.0094,5.0046,5.0517,5.0522,4.9827,4.9549,4.9108,4.8296,4.7957,4.7491,4.683,4.6685,4.6388,4.5917,4.5395,4.5104,0.0,0.0,0.0,0.0,0.0,0.0,0.0,0.0,0.0,0.0,0.0,4.4901,4.4959,4.5627,4.5337,4.461,4.554,4.5337,4.461,4.5395,4.5685,4.5685,4.5685,4.5801,4.5917,4.5917,4.5917,4.5917,4.5917,4.5917,4.5917,4.5917,4.5917,4.5917,4.5917,4.5917,4.5917,4.5917,4.5917,4.554,4.4262,4.3776,4.3282,4.2266,4.1918,0.0,0.0,0.0,0.0,0.0,0.0,0.0,0.0,0.0,0.0,0.0,0.0,0.0,0.0,0.0,0.0,3.3696,0.0,0.0,0.0,0.0,3.5668,3.5596,0.0,3.4848,3.4799,3.4799,3.4799,3.4799,3.4799,3.4799,3.4799,3.4799,3.4799,3.4702,3.34,3.2373,3.1458,3.0089,2.9032,2.832,2.8496,2.9012,2.9618,0.0,0.0,0.0,0.0,0.0,0.0,5.1708,5.2337,5.2664,5.2545,5.23,5.2052,5.1799,5.1833,5.1529,5.0663,5.0556,5.0008,4.8735,4.8125,4.7491,4.683,4.6272,4.5953,4.5917,4.5859,4.583,0.0,0.0,0.0,0.0,0.0,0.0,0.0,0.0,0.0,0.0,4.4843,4.4901,4.4959,4.5627,4.4814,4.3369,4.522,4.4785,4.3362,4.4552,4.4988,4.4988,4.4988,4.5395,4.5917,4.5917,4.5917,4.5917,4.5917,4.5917,4.5917,4.5917,4.5917,4.5917,4.5917,4.5917,4.5917,4.5917,4.5917,4.554,4.4262,4.3079,4.2237,4.2121,4.1339,4.0682,0.0,0.0,0.0,0.0,0.0,0.0,0.0,0.0,0.0,0.0,3.3546,0.0,0.0,3.309,0.0,0.0,0.0,0.0,3.4778,0.0,3.5836,3.5596,3.5308,3.5042,3.4799,3.4799,3.4799,3.4799,3.4799,3.4799,3.4799,3.4799,3.4799,3.4653,3.26,3.1688,3.1407,2.927,2.8388,2.8379,2.9188,2.952,2.9715,0.0,0.0,0.0,0.0,0.0,0.0,0.0,5.3221,5.3053,5.3406,5.2713,5.2143,5.1988,5.1866,5.1599,5.1265,5.0913,5.0477,4.993,4.9315,4.8624,4.7961,4.7346,4.6853,4.6453,4.6098,4.5917,0.0,0.0,0.0,0.0,0.0,0.0,0.0,0.0,4.5046,4.493,4.5337,4.5511,4.554,4.5801,4.4988,4.3718,4.4872,4.4349,4.3108,4.4037,4.4378,4.4436,4.4785,4.5366,4.5917,4.5917,4.5917,4.5917,4.5917,4.5917,4.5917,4.5917,4.5917,4.5917,4.5917,4.5917,4.5917,4.5917,4.5917,4.554,4.4262,4.251,4.1212,4.1212,4.041,3.9585,0.0,0.0,0.0,0.0,0.0,0.0,0.0,0.0,0.0,0.0,0.0,0.0,0.0,0.0,0.0,0.0,0.0,0.0,3.4703,0.0,3.5716,3.5596,3.5163,3.4896,3.4799,3.4799,3.4799,3.4799,3.4799,3.4799,3.4799,3.4799,3.4409,3.372,3.2221,3.1054,3.0099,2.88,2.8144,2.8015,2.8621,2.8965,2.9238,4.6147,0.0,5.0184,0.0,5.1771,5.2464,5.4255,5.3825,5.3396,5.3756,5.3001,5.2446,5.2446,5.2268,5.1994,5.1617,5.1207,5.0826,5.0419,4.978,4.9117,4.8455,4.784,0.0,4.654,4.6127,4.5801,4.5627,4.5133,0.0,0.0,0.0,0.0,0.0,4.464,4.5075,4.4698,4.5337,4.5627,4.5627,4.583,4.5162,4.4066,4.4647,4.4233,4.3311,4.3602,4.3834,4.4037,4.4262,4.4879,4.5656,4.5859,4.5917,4.585,4.5498,4.5663,4.5821,4.5526,4.5663,4.5917,4.5917,4.5917,4.5917,4.5917,4.5917,4.5598,4.4472,4.2363,4.0711,4.0869,3.9854,3.8754,3.7913,0.0,0.0,0.0,0.0,0.0,0.0,0.0,3.4427,3.3721,0.0,0.0,0.0,0.0,0.0,0.0,0.0,0.0,0.0,0.0,0.0,0.0,3.5017,3.4799,3.4799,3.4799,3.4799,3.4799,3.4655,3.4558,3.4559,3.4414,3.3764,3.2691,3.1601,3.0409,2.9214,2.8417,2.8034,2.7936,2.832,2.8672,2.8918,4.6491,4.7135,4.8263,5.1185,5.241,5.3187,5.3831,5.389,5.3815,5.3527,5.35,5.35,5.35,5.35,5.2952,5.1704,5.1588,5.1062,4.978,4.9088,4.8426,0.0,0.0,4.6511,4.5917,4.5917,4.5598,4.493,0.0,0.0,4.4901,0.0,4.4204,4.3021,4.3718,4.4008,4.4059,4.4669,4.493,4.4988,4.5627,4.5162,4.4066,4.4647,4.4523,4.3892,4.3245,4.3449,4.3892,4.3224,4.3884,4.5046,4.5685,4.5917,4.5685,4.4643,4.5087,4.5663,4.4591,4.511,4.5917,4.5917,4.5917,4.5917,4.5917,4.5917,4.5714,4.5046,4.2744,4.1041,4.1517,3.9947,3.8428,3.7877,0.0,0.0,0.0,0.0,0.0,0.0,3.4703,3.4276,3.3215,0.0,0.0,0.0,0.0,0.0,0.0,0.0,0.0,3.4315,3.5149,0.0,3.5187,3.492,3.4799,3.4799,3.4799,3.4799,3.4775,3.427,3.4006,3.3982,3.3525,3.2747,3.1731,3.0603,2.9785,2.9193,2.8125,2.7956,2.834,2.875,2.8879,2.8984,4.8817,5.0496,5.1874,5.2192,5.2838,5.348,5.3864,5.3736,5.3579,5.35,5.3474,5.3474,5.3474,5.3474,5.3181,0.0,5.1875,5.1265,0.0,4.9751,4.9088,4.8426,4.7811,4.7172,4.6511,4.6098,4.5801,4.5598,0.0,0.0,0.0,4.4066,4.4066,4.3689,4.4327,4.4872,4.5278,4.5017,4.514,4.5598,4.583,4.5372,4.464,4.4843,4.4262,4.3282,4.3079,4.2876,4.2647,4.2174,4.3048,4.4189,4.3745,4.4333,4.5154,4.4813,4.4475,4.4357,4.5178,4.5132,4.4805,4.4805,4.4805,4.4805,4.4805,4.4487,4.4146,4.3919,4.173,3.9915,4.0081,3.8778,3.7591,3.7413,3.6846,0.0,0.0,0.0,0.0,0.0,0.0,3.4402,0.0,3.3316,0.0,0.0,0.0,0.0,0.0,0.0,0.0,0.0,3.496,0.0,3.5211,3.492,3.4799,3.4799,3.4799,3.4799,3.4775,3.4222,3.3982,3.3934,3.2795,3.1843,3.1042,2.9999,2.9023,2.8197,2.8127,2.8034,2.7936,2.834,2.8496,2.8489,4.9996,5.1692,5.3047,5.2886,5.3234,5.364,5.4057,5.3984,5.3907,5.3907,5.3907,5.3791,5.353,5.3474,0.0,5.2655,5.222,5.1614,5.0768,5.0303,4.9553,4.842,4.7985,4.7375,4.6482,4.6098,0.0,4.554,4.5366,4.4966,4.4443,4.5111,4.5169,4.4727,4.5104,4.5366,4.5511,4.5075,4.5308,4.5917,4.5917,4.5402,4.4633,4.4168,4.3266,4.2241,4.2124,4.1639,4.1015,4.1189,4.184,4.2408,4.153,4.2138,4.317,4.3375,4.3421,4.3446,4.3747,4.3794,4.3843,4.4219,4.4031,4.3843,4.4219,4.342,4.2814,4.3561,4.1469,3.9583,3.9737,3.8522,3.7412,3.7235,3.6758,3.6405,3.6405,0.0,0.0,0.0,0.0,0.0,0.0,3.3897,3.3746,0.0,0.0,0.0,0.0,0.0,0.0,3.4339,3.4916,0.0,3.5042,3.4872,3.4799,3.4799,3.4799,3.4799,3.4775,3.4222,3.3982,3.3911,3.2392,3.1268,3.0457,2.943,2.8487,2.7721,2.7976,2.8015,2.7956,2.823,2.8301,2.8301,5.0237,5.1155,5.2083,0.0,5.3509,0.0,5.4458,5.4548,5.4548,5.4548,5.4548,5.4316,5.3677,5.359,5.3355,5.2772,0.0,0.0,0.0,5.071,4.9838,4.7892,4.7805,4.7195,4.5946,4.5917,4.5605,4.5046,4.5566,4.6175,4.683,4.7363,4.7039,4.5953,4.5917,4.5598,4.5046,4.4959,4.5308,4.5917,4.5917,4.527,4.4172,4.3014,4.1928,4.0958,4.0695,3.9984,3.9321,4.0152,4.0327,4.0069,3.9333,3.9649,4.0341,4.0811,4.1984,4.2754,4.0986,4.1583,4.2913,4.3867,4.3392,4.2937,4.389,4.2595,4.1766,4.3673,4.1741,3.9829,4.0269,3.9111,3.7889,3.7337,3.6808,3.6455,3.6405,0.0,0.0,0.0,0.0,0.0,0.0,3.4728,3.4502,0.0,0.0,0.0,0.0,0.0,3.4338,3.4408,3.4895,3.5042,3.4799,3.4799,3.4799,3.4799,3.4799,3.4799,3.4775,3.4222,3.3982,3.3911,3.2202,3.099,3.0065,2.8927,2.8157,2.7741,2.7741,2.7976,2.8301,2.8301,2.8301,2.8301,0.0,0.0,5.1952,5.2733,5.3636,5.4487,5.5097,5.5184,5.5184,5.5184,5.5184,5.5126,5.4981,5.4546,5.4226,5.4081,5.3178,5.2046,5.0768,5.071,4.9838,4.7892,4.7805,4.7195,4.5946,4.5917,4.604,4.6337,4.5697,4.5863,4.6778,4.6125,4.6086,4.6569,4.6098,4.6069,4.6279,4.5314,4.5308,4.5917,4.5917,4.527,4.4228,4.3538,4.2311,4.0943,4.0458,3.9813,3.9121,3.863,3.9235,3.9956,3.8573,3.9352,4.0757,4.0454,4.036,4.052,4.1382,4.1608,4.1642,4.1862,4.1766,4.1642,4.1862,4.1568,4.1344,4.1813,4.0743,3.9724,3.9854,3.9222,3.8492,3.7914,3.7337,3.6859,3.6455,3.6405,0.0,0.0,3.5508,3.5458,3.5307,3.4954,3.4828,0.0,0.0,0.0,0.0,3.4422,3.4381,3.4409,3.4727,3.4848,3.4799,3.4799,3.4799,3.4799,3.4799,3.4799,3.4775,3.4222,3.3982,3.3863,3.1506,3.0512,3.0491,2.8666,2.7989,2.8171,2.8171,2.8203,2.8301,2.8301,2.8301,2.8254,5.0629,5.2009,5.3112,5.3454,5.4286,5.5126,5.5765,5.5881,5.5881,5.5881,5.5881,5.5765,5.5445,5.4865,5.449,5.449,5.3588,5.2597,5.1639,5.1581,5.0826,4.9199,4.8537,4.7898,4.7201,4.633,4.5958,4.6076,4.6291,4.6286,4.6183,4.6367,4.6635,4.6905,4.6585,4.6471,4.6419,4.5733,4.5368,4.5207,4.5207,4.4438,4.3215,4.2664,4.1287,3.9609,3.9522,3.8796,3.7933,3.7818,3.8096,3.8306,3.7441,3.7961,3.8822,3.8556,3.9095,3.9862,4.011,4.0321,4.0516,4.0516,4.0869,4.1194,4.1194,4.0844,4.0642,4.1094,4.0415,3.9697,3.9697,3.9044,3.8366,3.8065,3.7337,3.6733,3.6455,3.6405,0.0,3.5956,3.5906,3.5906,3.5906,3.5655,3.5458,3.5369,3.518,0.0,3.4645,3.4699,3.4726,3.4606,3.4727,3.4799,3.4799,3.4799,3.4799,3.4799,3.4799,3.4799,3.4799,3.4511,3.439,3.4246,3.1827,3.0927,3.099,2.8874,2.8086,2.8301,2.8301,2.8301,2.8301,2.8301,2.8301,2.8274,5.0487,5.2624,5.4417,5.4579,5.5068,5.5649,5.6316,5.6403,5.6432,5.652,5.6549,5.6316,5.5765,5.5155,5.4749,5.4635,5.4025,5.3355,5.2655,5.2597,5.194,5.0489,4.9226,4.8461,4.8205,4.6625,4.5546,4.4981,4.6565,4.6673,4.5451,4.685,4.7311,4.6985,4.6873,4.6513,4.601,4.5874,4.528,4.4404,4.4404,4.3528,4.2161,4.1456,3.9898,3.8163,3.8326,3.7546,3.6523,3.7315,3.7059,3.6405,3.6405,3.6455,3.6482,3.643,3.8092,3.9684,3.8338,3.8843,3.9697,3.9697,4.0338,4.097,4.097,4.0313,3.9929,4.0794,4.0287,3.9697,3.9697,3.8843,3.8115,3.8015,3.7185,3.6482,3.6405,0.0,3.6405,3.6405,3.6405,3.6405,3.6405,3.6358,3.6064,3.538,3.5683,3.5495,3.4579,3.4896,3.5042,3.4799,3.4799,3.4799,3.4799,3.4799,3.4799,3.4799,3.4799,3.4799,3.4799,3.4799,3.4799,3.4677,3.27,3.1819,3.1688,2.9454,2.8548,2.8521,2.8361,2.8301,2.8301,2.8301,2.8254,2.822,5.3178,5.3772,5.406,5.5081,5.5358,5.5649,5.6316,5.6403,5.6578,5.71,5.7158,5.7129,5.7013,5.649,5.5881,5.5329,5.4693,5.3849,5.2685,5.2597,5.1552,4.9185,4.8477,4.7376,4.5864,4.5586,4.4959,4.3933,4.4774,4.5285,4.5477,4.5288,4.5634,4.6418,4.59,4.5602,4.5465,4.4899,4.4556,4.4404,4.4404,4.3743,4.2658,4.1612,4.018,3.8642,3.7733,3.6977,3.6428,3.657,3.6523,3.6405,3.6405,3.6708,3.6984,3.6532,3.7307,3.8313,3.8089,3.8843,3.9697,3.9697,3.9801,3.9929,3.9929,3.9826,3.9749,3.9904,3.9826,3.9697,3.9697,3.9195,3.8592,3.809,3.7462,3.6909,3.6457,0.0,3.6405,3.6405,3.6405,3.6405,3.6405,3.6217,3.6026,3.5904,3.5523,3.5259,3.509,3.4921,3.4823,3.4799,3.4799,3.4799,3.4799,3.4799,3.4799,3.4799,3.4799,3.4799,3.4799,3.4799,3.4799,3.4726,3.3474,3.2951,3.2775,3.0561,2.9644,2.9565,2.8654,2.8301,2.8301,2.8301,2.8147,2.796,5.321,5.3823,5.4499,5.5713,5.5939,5.6171,5.6781,5.6897,5.6984,5.7274,5.7303,5.7303,5.7303,5.6781,5.6142,5.5474,5.4865,5.411,5.3152,5.3065,5.2136,5.0015,4.8775,4.6812,4.4017,4.4612,4.4388,4.3269,4.385,4.415,4.4144,4.4198,4.4651,4.5449,4.5156,4.5023,4.4997,4.4678,4.4204,4.3646,4.3646,4.3197,4.2487,4.195,4.0921,3.9647,3.8843,3.799,3.7235,3.6934,3.6632,3.6405,3.6405,3.6581,3.6708,3.648,3.716,3.8015,3.8015,3.8843,3.9622,3.9346,3.9497,3.9697,3.9697,3.9697,3.9697,3.9697,3.9697,3.9697,3.9697,3.8994,3.8316,3.804,3.7311,0.0,0.0,3.6405,3.6505,3.6808,3.6833,3.6934,3.7235,3.6769,3.6477,3.6653,3.5746,3.526,3.5404,3.5305,3.5232,3.5232,3.4943,3.4799,3.4799,3.4799,3.4799,3.4799,3.4799,3.4799,3.4799,3.4799,3.4799,3.475,3.3671,3.2876,3.2221,3.0561,2.9565,2.8979,2.8495,2.8301,2.8301,2.8121,2.8014,2.7853,5.2854,5.3991,5.5271,5.6229,5.6403,5.6578,5.7013,5.71,5.7158,5.7274,5.7303,5.7303,5.7303,5.6897,5.6287,5.5474,5.4981,5.4238,5.3133,5.3076,5.2311,5.0563,4.8362,4.5765,4.2728,4.3688,4.3622,4.2345,4.3147,4.3232,4.2612,4.3287,4.3875,4.4315,4.4315,4.4315,4.4315,4.4315,4.3795,4.3014,4.3014,4.2738,4.2361,4.2263,4.1582,4.06,3.9948,3.8969,3.7914,3.7362,3.6934,3.6557,3.6455,3.6505,3.6557,3.6455,3.716,3.8065,3.8316,3.8944,3.9421,3.8994,3.9296,3.9672,3.9521,3.9597,3.9697,3.9697,3.9697,3.9697,3.9697,3.8868,3.8216,3.8216,0.0,0.0,0.0,3.6758,3.6934,3.7361,3.7411,3.7513,3.7866,3.7294,3.6949,3.7093,3.6111,3.5574,3.5785,3.5809,3.5809,3.5809,3.5256,3.4991,3.4991,3.4871,3.4871,3.4991,3.4871,3.4799,3.4799,3.4799,3.4799,3.475,3.3671,3.2725,3.1844,3.0458,2.9408,2.8654,2.8388,2.8274,2.8174,2.7987,2.7799,2.7638,5.3303,5.4992,5.6287,5.6403,5.6403,5.6432,5.6461,5.649,5.6665,5.7216,5.7303,5.7303,5.7303,5.7274,5.6752,5.5533,5.5358,5.4345,5.2004,5.1838,5.104,4.9309,4.5967,4.3526,4.2281,4.281,4.2326,4.0681,4.2276,4.2498,4.1453,4.2542,4.3075,4.3129,4.3129,4.3129,4.3129,4.3129,4.3098,4.3014,4.3014,4.2989,4.2889,4.2386,4.1781,4.1127,4.0074,3.8969,3.7914,3.7362,3.7185,3.706,3.6557,3.6733,3.7034,3.6556,3.716,3.8241,3.9295,3.9271,3.8944,3.8894,3.9296,3.9572,3.907,3.9346,3.9697,3.9697,3.9697,3.9697,3.9697,3.9245,3.8843,3.8843,0.0,0.0,3.7889,3.7889,3.7889,3.7939,3.7939,3.7866,3.7668,3.7344,3.7093,3.6841,3.6516,3.634,3.6338,3.6338,3.6338,3.6338,3.5808,3.5544,3.5544,3.5039,3.5039,3.552,3.5039,3.4799,3.4799,3.4799,3.4799,3.475,3.3671,3.3151,3.2926,3.0794,2.9854,2.9697,2.8708,2.8147,2.7933,2.7906,2.7557,2.7071,5.5163,5.5578,5.6026,5.6839,5.6665,5.6549,5.6897,5.6955,5.7042,5.7274,5.7303,5.7303,5.7303,5.6984,5.6374,5.5474,5.4357,5.3126,5.1785,5.0322,4.8716,4.699,4.4622,4.2785,4.1681,4.221,4.2009,4.1001,4.1628,4.1729,4.1327,4.2135,4.2487,4.2512,4.2838,4.3014,4.3014,4.3014,4.3014,4.3014,4.3014,4.3014,4.2989,4.2763,4.2361,4.1781,4.1406,4.0301,3.9019,3.8818,3.8266,3.7663,3.7437,3.7538,3.7713,3.7889,3.7738,3.7814,3.9295,3.9546,3.9321,3.8969,3.9296,3.9647,3.9421,3.9296,3.9296,3.9622,3.9446,3.9321,3.9622,3.9271,3.8894,3.8894,0.0,3.8015,3.8015,3.8015,3.814,3.8492,3.8567,3.8567,3.8637,3.811,3.7754,3.7788,3.6925,3.6555,3.6867,3.6892,3.6892,3.6892,3.6699,3.6435,3.6098,3.5232,3.5063,3.5592,3.5063,3.4799,3.4799,3.4799,3.4457,3.3795,3.3375,3.2426,3.1103,3.025,2.9513,2.8847,2.8281,2.8094,2.8067,2.753,2.7287,2.7206,5.5111,5.4799,5.4827,5.5936,5.6108,5.6248,5.6651,5.7049,5.7303,5.7303,5.7303,5.7245,5.7042,5.6329,5.55,5.4638,5.3049,5.1683,5.0629,4.8517,4.6788,4.56,4.4094,4.2886,4.2105,4.2336,4.2057,4.1302,4.1478,4.1403,4.1076,4.1833,4.2213,4.2238,4.2763,4.3014,4.3014,4.3014,4.3014,4.3014,4.3014,4.3014,4.3014,4.3014,4.2663,4.2187,4.1984,4.0953,3.9672,3.9522,3.8919,3.8241,3.8065,3.8015,3.8115,3.8718,3.8341,3.8039,3.9346,3.9697,3.9572,3.9044,3.9296,3.9647,3.9497,3.9296,3.9271,3.9622,3.9421,3.9271,3.9622,3.9396,3.9145,3.9145,3.8793,3.8542,3.8542,3.8542,3.8693,3.9095,3.9145,3.9142,3.9155,3.8625,3.8292,3.8291,3.7404,3.6988,3.718,3.7204,3.7204,3.7204,3.7036,3.6843,3.6651,3.5568,3.5232,3.5592,3.5063,3.4799,3.4799,3.4799,3.4167,3.2996,3.2783,3.1553,2.9699,2.9478,2.8953,2.8301,2.8094,2.8014,2.7933,2.7341,2.7143,2.7089,5.259,5.2531,5.2718,5.3402,5.456,5.5412,5.5412,5.6509,5.7303,5.7275,5.7275,5.7043,5.6434,5.5282,5.4064,5.2798,5.1566,5.0067,4.8207,4.6458,4.5497,4.5497,4.4418,4.379,4.379,4.3263,4.2434,4.1302,4.1909,4.1607,4.0499,4.1658,4.2213,4.2213,4.2738,4.2989,4.2989,4.2989,4.2989,4.2989,4.3014,4.3014,4.3014,4.3014,4.2663,4.211,4.1503,4.0625,3.9622,3.9095,3.8894,3.8793,3.8191,3.8015,3.814,3.8743,3.8894,3.9019,3.9546,3.9697,3.9572,3.9044,3.9321,3.9546,3.9019,3.9321,3.9697,3.9697,3.9697,3.9697,3.9697,3.9697,3.9697,3.9697,3.9697,3.9697,3.9697,3.9697,3.9697,3.9697,3.9697,3.9464,3.8867,3.8788,3.8579,3.8027,3.8,3.7784,3.7228,3.7204,3.7204,3.7204,3.6699,3.6675,3.718,3.6146,3.5592,3.5592,3.5063,3.4799,3.4799,3.4775,3.4002,3.2561,3.1873,3.0717,2.926,2.8582,2.8301,2.8301,2.8281,2.7926,2.7395,2.7395,2.7062,2.6591,5.313,5.3212,5.3536,5.4651,5.515,5.5703,5.6594,5.7078,5.6848,5.5567,5.5396,5.4855,5.3352,5.2479,5.1837,5.1452,4.9902,4.8335,4.6934,4.636,4.5899,4.5497,4.4418,4.379,4.379,4.2914,4.2057,4.1302,4.1478,4.1028,3.9973,4.1078,4.1379,4.1028,4.1553,4.1804,4.1829,4.2261,4.2436,4.2462,4.2838,4.3014,4.3014,4.3014,4.2663,4.2187,4.2009,4.1204,4.0249,4.0074,3.9772,3.9421,3.9245,3.8919,3.8743,3.9296,3.9195,3.9019,3.9546,3.9697,3.9647,3.9496,3.9572,3.9647,3.9496,3.9296,3.9245,3.9622,3.9069,3.8743,3.9546,3.9371,3.9271,3.9622,3.9697,3.9697,3.9697,3.9697,3.9697,3.9697,3.9517,3.9258,3.8841,3.8631,3.8368,3.8027,3.8,3.7928,3.7784,3.776,3.776,3.776,3.7615,3.7397,3.7204,3.6146,3.5592,3.5592,3.5063,3.4799,3.4775,3.4017,3.3009,3.1822,3.0854,2.9719,2.8562,2.8375,2.8194,2.7987,2.7745,2.7557,2.7341,2.6981,2.6872,2.6845,5.2322,5.216,5.2355,5.3637,5.3847,5.4295,5.5615,5.5592,5.5051,5.3964,5.3599,5.2951,5.1597,5.0696,5.0082,4.9812,4.8332,4.7087,4.6331,4.6301,4.6175,4.5824,4.4719,4.4141,4.4141,4.3263,4.2562,4.1955,4.1528,4.0851,4.0023,4.0675,4.08,4.0524,4.1076,4.1302,4.1352,4.1934,4.2213,4.2263,4.2788,4.3014,4.3014,4.3014,4.2663,4.2187,4.1934,4.1254,4.0449,4.0275,3.9973,3.9747,3.9948,3.9647,3.9321,3.9848,3.9622,3.9296,3.9597,3.9697,3.9697,3.9697,3.9697,3.9697,3.9697,3.9446,3.9321,3.9622,3.9145,3.8894,3.9572,3.9446,3.9321,3.9647,3.9697,3.9697,3.9697,3.9697,3.9697,3.9697,3.9439,3.9154,3.8841,3.8552,3.8291,3.8027,3.8,3.7904,3.7685,3.7878,3.7808,3.7372,3.7565,3.7324,3.6579,3.593,3.5496,3.528,3.4943,3.446,3.3833,3.3382,3.2286,3.0666,3.0135,2.9122,2.7888,2.8062,2.796,2.7691,2.7476,2.7341,2.7206,2.6872,2.6791,2.6818,5.0523,5.0046,5.0014,5.1299,5.1492,5.1927,5.3302,5.2997,5.2533,5.2388,5.1875,5.128,5.0567,4.9496,4.8606,4.8,4.6934,4.6301,4.6301,4.6276,4.62,4.615,4.5141,4.4564,4.4514,4.3915,4.3363,4.2939,4.1756,4.0901,4.0424,4.0424,4.0424,4.0449,4.0951,4.1177,4.1202,4.1808,4.2062,4.2085,4.2688,4.2939,4.2939,4.2989,4.2688,4.2185,4.1528,4.1026,4.0576,3.9973,3.9747,3.9798,4.0248,4.0099,3.9798,4.03,4.0099,3.9697,3.9697,3.9697,3.9697,3.9697,3.9697,3.9697,3.9697,3.9697,3.9672,3.9622,3.9572,3.9546,3.9546,3.9546,3.9572,3.9622,3.9672,3.9697,3.9697,3.9697,3.9697,3.9671,3.9413,3.9128,3.8788,3.8526,3.8238,3.8,3.8,3.7808,3.73,3.7709,3.7517,3.6507,3.694,3.6699,3.5664,3.5616,3.5328,3.4799,3.4702,3.3904,3.2486,3.2771,3.1602,2.9378,2.9616,2.8792,2.7295,2.768,2.7664,2.7341,2.7341,2.7206,2.6962,2.6962,2.6818,2.6591,4.9235,4.9437,5.0014,5.1299,5.1492,5.1927,5.3302,5.2997,5.2071,5.0657,5.0013,4.9104,4.7462,4.7052,4.6847,4.6721,4.6451,4.6301,4.6301,4.5899,4.5472,4.4991,4.4715,4.4389,4.3991,4.2557,4.2032,4.2361,4.0802,3.9998,3.9873,3.9873,3.9873,3.9873,3.9998,4.0049,4.0099,4.0626,4.0877,4.0953,4.1959,4.2361,4.2439,4.2838,4.2939,4.2688,4.1679,4.153,4.1683,4.0676,4.0049,3.9722,3.9848,3.9798,3.9722,3.9848,3.9798,3.9697,3.9697,3.9697,3.9697,3.9697,3.9697,3.9697,3.9697,3.9697,3.9572,3.917,3.8693,3.8366,3.8366,3.8366,3.8517,3.8994,3.9446,3.9697,3.9697,3.9697,3.962,3.9388,3.9102,3.8788,3.8526,3.8262,3.8053,3.8,3.8,3.7952,3.7832,3.7952,3.7685,3.7036,3.7132,3.6892,3.6242,3.5833,3.5328,3.4775,3.3943,3.3378,3.2965,3.1367,3.0312,2.9709,2.8734,2.8116,2.7745,2.7573,2.7341,2.7098,2.7098,2.6926,2.6682,2.6682,2.6646,2.6591,4.8033,4.8862,4.9938,5.0961,5.083,5.1042,5.2355,5.1544,5.0454,4.9518,4.8886,4.8049,4.6813,4.6672,4.6572,4.6326,4.6301,4.6301,4.6301,4.605,4.5623,4.507,4.474,4.4464,4.4192,4.2585,4.2007,4.2587,4.0902,4.0099,4.0074,3.9823,3.9697,3.9697,3.9697,3.9697,3.9722,4.0248,4.0499,4.0601,4.1733,4.2213,4.2263,4.2788,4.3014,4.2864,4.1704,4.1327,4.1306,4.0701,4.0299,4.0124,4.0374,4.0124,3.9747,3.9998,3.9898,3.9697,3.9697,3.9697,3.9697,3.9697,3.9697,3.9697,3.9697,3.9697,3.9622,3.9346,3.9019,3.8743,3.8467,3.8417,3.8542,3.8843,3.9145,3.9421,3.9647,3.9697,3.962,3.931,3.8998,3.8631,3.8238,3.808,3.8,3.8,3.8,3.8,3.8,3.8,3.776,3.7204,3.7204,3.6819,3.6026,3.5736,3.5056,3.4041,3.3449,3.2426,3.0912,2.9908,2.9134,2.858,2.7731,2.7393,2.7449,2.7287,2.7043,2.6799,2.6596,2.657,2.6582,2.6398,2.6435,2.6591,4.7475,4.8586,4.9792,5.0416,5.0028,4.995,5.0985,4.9824,4.8768,4.8667,4.8134,4.7581,4.7023,4.6973,4.6772,4.6351,4.6301,4.6301,4.6301,4.6225,4.5974,4.5497,4.4844,4.4464,4.4464,4.2989,4.2462,4.3014,4.1329,4.0499,4.0474,3.9948,3.9697,3.9697,3.9697,3.9697,3.9722,4.0174,4.0349,4.0475,4.1607,4.2034,4.211,4.2763,4.3014,4.2864,4.1831,4.1102,4.065,4.0777,4.07,4.07,4.1051,4.0549,3.9898,4.0275,4.0049,3.9722,3.9798,3.9772,3.9722,3.9798,3.9772,3.9722,3.9823,3.9848,3.9798,3.9722,3.9697,3.9496,3.8869,3.8743,3.8743,3.8743,3.8843,3.9044,3.9496,3.9647,3.9594,3.9258,3.8893,3.85,3.8027,3.8,3.8,3.8,3.8,3.8,3.8,3.8,3.7685,3.7084,3.7156,3.6573,3.5318,3.5492,3.4632,3.2763,3.2871,3.1381,2.856,2.8681,2.8145,2.7113,2.6918,2.6868,2.6877,2.6869,2.667,2.638,2.6013,2.6104,2.638,2.6086,2.6215,2.6508,4.8592,4.9113,4.9629,4.9746,4.9668,4.9654,4.9822,4.924,4.8617,4.8083,4.7525,4.6998,4.6476,4.6396,4.6401,4.6326,4.6301,4.6301,4.6301,4.5874,4.5602,4.5497,4.4468,4.3915,4.3915,4.2788,4.2462,4.3014,4.1329,4.0499,4.0474,3.9948,3.9697,3.9697,3.9697,3.9697,3.9697,3.9772,3.9798,3.9898,4.0976,4.1428,4.1528,4.2585,4.3014,4.2914,4.2286,4.1681,4.1277,4.1808,4.163,4.1127,4.0725,4.0499,4.0299,3.9923,3.9747,3.9798,4.0275,4.0049,3.9798,4.03,4.0049,3.9823,4.03,4.04,4.0275,3.9798,3.9697,3.9371,3.8316,3.8115,3.8115,3.8115,3.8567,3.8919,3.8994,3.9421,3.949,3.8919,3.8421,3.808,3.8,3.8,3.8,3.8,3.8,3.8,3.8,3.8,3.7541,3.6531,3.6964,3.6163,3.4037,3.5094,3.404,3.0963,3.1551,3.0772,2.8835,2.8285,2.7591,2.6861,2.6954,2.6801,2.6467,2.6228,2.5919,2.5554,2.5499,2.5517,2.559,2.5884,2.6013,2.6123,4.836,4.8987,4.949,4.922,4.9389,4.959,4.959,4.9145,4.8718,4.8435,4.7908,4.7324,4.6798,4.6502,4.6301,4.6301,4.6301,4.6301,4.6301,4.6075,4.5799,4.5497,4.502,4.4443,4.3815,4.3341,4.2914,4.2537,4.1178,4.035,4.0049,3.9798,3.9697,3.9697,3.9697,3.9697,3.9697,3.9697,3.9697,3.9772,4.0524,4.1051,4.1352,4.1854,4.2258,4.2487,4.1882,4.1731,4.1831,4.211,4.2009,4.1756,4.1532,4.1003,4.0449,4.0224,4.0149,4.0199,4.045,4.035,4.0199,4.0424,4.0099,3.9848,4.0374,4.0499,4.0424,4.0199,3.9898,3.9446,3.8642,3.8492,3.8391,3.8065,3.8517,3.8793,3.8442,3.8767,3.8811,3.8193,3.8042,3.8,3.8,3.8,3.8,3.8,3.8,3.8,3.8,3.8,3.7663,3.6867,3.7084,3.6418,3.4818,3.4742,3.3492,3.114,3.0797,2.9585,2.76,2.7393,2.688,2.6259,2.6165,2.6125,2.6162,2.5808,2.5554,2.537,2.515,2.5076,2.5113,2.5517,2.5664,2.5682]},{"header":{"parameterUnit":"m.s-1","parameterCategory":1,"la1":30.6,"la2":28.766,"lo1":-90.7593,"lo2":-88.6598,"dy":0.0162,"dx":0.0183,"nx":116,"ny":114,"refTime":"2023-11-09T18:00:00:Z","depth":0,"parameterNumber":3,"parameterNumberName":"V-component_of_WINDS"},"data":[0.0,0.0,0.0,0.0,0.0,0.0,0.0,0.0,0.0,0.0,0.0,0.0,0.0,0.0,0.0,0.0,0.0,0.0,0.0,0.0,0.0,0.0,0.0,0.0,0.0,0.0,0.0,0.0,0.0,0.0,0.0,0.0,0.0,0.0,0.0,0.0,0.0,0.0,0.0,0.0,0.0,0.0,0.0,0.0,0.0,0.0,0.0,0.0,0.0,0.0,0.0,0.0,0.0,0.0,0.0,0.0,0.0,0.0,0.0,0.0,0.0,0.0,0.0,0.0,0.0,0.0,0.0,0.0,0.0,0.0,0.0,0.0,0.0,0.0,0.0,0.0,0.0,0.0,0.0,0.0,0.0,0.0,0.0,0.0,0.0,0.0,0.0,0.0,0.0,0.0,0.0,0.0,0.0,0.0,0.0,0.0,0.0,0.0,0.0,0.0,0.0,0.0,0.0,0.0,0.0,0.0,0.0,0.0,0.0,0.0,0.0,0.0,0.0,0.0,0.0,0.0,0.0,0.0,0.0,0.0,0.0,0.0,0.0,0.0,0.0,0.0,0.0,0.0,0.0,0.0,0.0,0.0,0.0,0.0,0.0,0.0,0.0,0.0,0.0,0.0,0.0,0.0,0.0,0.0,0.0,0.0,0.0,0.0,0.0,0.0,0.0,0.0,0.0,0.0,0.0,0.0,0.0,0.0,0.0,0.0,0.0,0.0,0.0,0.0,0.0,0.0,0.0,0.0,0.0,0.0,0.0,0.0,0.0,0.0,0.0,0.0,0.0,0.0,0.0,0.0,0.0,0.0,0.0,0.0,0.0,0.0,0.0,0.0,0.0,0.0,0.0,0.0,0.0,0.0,0.0,0.0,0.0,0.0,0.0,0.0,0.0,0.0,0.0,0.0,0.0,0.0,0.0,0.0,0.0,0.0,0.0,0.0,0.0,0.0,0.0,0.0,0.0,0.0,0.0,0.0,0.0,0.0,0.0,0.0,0.0,0.0,0.0,0.0,0.0,0.0,0.0,0.0,0.0,0.0,0.0,0.0,0.0,0.0,0.0,0.0,0.0,0.0,0.0,0.0,0.0,0.0,0.0,0.0,0.0,0.0,0.0,0.0,0.0,0.0,0.0,0.0,0.0,0.0,0.0,0.0,0.0,0.0,0.0,0.0,0.0,0.0,0.0,0.0,0.0,0.0,0.0,0.0,0.0,0.0,0.0,0.0,0.0,0.0,0.0,0.0,0.0,0.0,0.0,0.0,0.0,0.0,0.0,0.0,0.0,0.0,0.0,0.0,0.0,0.0,0.0,0.0,0.0,0.0,0.0,0.0,0.0,0.0,0.0,0.0,0.0,0.0,0.0,0.0,0.0,0.0,0.0,0.0,0.0,0.0,0.0,0.0,0.0,0.0,0.0,0.0,0.0,0.0,0.0,0.0,0.0,0.0,0.0,0.0,0.0,0.0,0.0,0.0,0.0,0.0,0.0,0.0,0.0,0.0,0.0,0.0,0.0,0.0,0.0,0.0,0.0,0.0,0.0,0.0,0.0,0.0,0.0,0.0,0.0,0.0,0.0,0.0,0.0,0.0,0.0,0.0,0.0,0.0,0.0,0.0,0.0,0.0,0.0,0.0,0.0,0.0,0.0,0.0,0.0,0.0,0.0,0.0,0.0,0.0,0.0,0.0,0.0,0.0,0.0,0.0,0.0,0.0,0.0,0.0,0.0,0.0,0.0,0.0,0.0,0.0,0.0,0.0,0.0,0.0,0.0,0.0,0.0,0.0,0.0,0.0,0.0,0.0,0.0,0.0,0.0,0.0,0.0,0.0,0.0,0.0,0.0,0.0,0.0,0.0,0.0,0.0,0.0,0.0,0.0,0.0,0.0,0.0,0.0,0.0,0.0,0.0,0.0,0.0,0.0,0.0,0.0,0.0,0.0,0.0,0.0,0.0,0.0,0.0,0.0,0.0,0.0,0.0,0.0,0.0,0.0,0.0,0.0,0.0,0.0,0.0,0.0,0.0,0.0,0.0,0.0,0.0,0.0,0.0,0.0,0.0,0.0,0.0,0.0,0.0,0.0,0.0,0.0,0.0,0.0,0.0,0.0,0.0,0.0,0.0,0.0,0.0,0.0,0.0,0.0,0.0,0.0,0.0,0.0,0.0,0.0,0.0,0.0,0.0,0.0,0.0,0.0,0.0,0.0,0.0,0.0,0.0,0.0,0.0,0.0,0.0,0.0,0.0,0.0,0.0,0.0,0.0,0.0,0.0,0.0,0.0,0.0,0.0,0.0,0.0,0.0,0.0,0.0,0.0,0.0,0.0,0.0,0.0,0.0,0.0,0.0,0.0,0.0,0.0,0.0,0.0,0.0,0.0,0.0,0.0,0.0,0.0,0.0,0.0,0.0,0.0,0.0,0.0,0.0,0.0,0.0,0.0,0.0,0.0,0.0,0.0,0.0,0.0,0.0,0.0,0.0,0.0,0.0,0.0,0.0,0.0,0.0,0.0,0.0,0.0,0.0,0.0,0.0,0.0,0.0,0.0,0.0,0.0,0.0,0.0,0.0,0.0,0.0,0.0,0.0,0.0,0.0,0.0,0.0,0.0,0.0,0.0,0.0,0.0,0.0,0.0,0.0,0.0,0.0,0.0,0.0,0.0,0.0,0.0,0.0,0.0,0.0,0.0,0.0,0.0,0.0,0.0,0.0,0.0,0.0,0.0,0.0,0.0,0.0,0.0,0.0,0.0,0.0,0.0,0.0,0.0,0.0,0.0,0.0,0.0,0.0,0.0,0.0,0.0,0.0,0.0,0.0,0.0,0.0,0.0,0.0,0.0,0.0,0.0,0.0,0.0,0.0,0.0,0.0,0.0,0.0,0.0,0.0,0.0,0.0,0.0,0.0,0.0,0.0,0.0,0.0,0.0,0.0,0.0,0.0,0.0,0.0,0.0,0.0,0.0,0.0,0.0,0.0,0.0,0.0,0.0,0.0,0.0,0.0,0.0,0.0,0.0,0.0,0.0,0.0,0.0,0.0,0.0,0.0,0.0,0.0,0.0,0.0,0.0,0.0,0.0,0.0,0.0,0.0,0.0,0.0,0.0,0.0,0.0,0.0,0.0,0.0,0.0,0.0,0.0,0.0,0.0,0.0,0.0,0.0,0.0,0.0,0.0,0.0,0.0,0.0,0.0,0.0,0.0,0.0,0.0,0.0,0.0,0.0,0.0,0.0,0.0,0.0,0.0,0.0,0.0,0.0,0.0,0.0,0.0,0.0,0.0,0.0,0.0,0.0,0.0,0.0,0.0,0.0,0.0,0.0,0.0,0.0,0.0,0.0,0.0,0.0,0.0,0.0,0.0,0.0,0.0,0.0,0.0,0.0,0.0,0.0,0.0,0.0,0.0,0.0,0.0,0.0,0.0,0.0,0.0,0.0,0.0,0.0,0.0,0.0,0.0,0.0,0.0,0.0,0.0,0.0,0.0,0.0,0.0,0.0,0.0,0.0,0.0,0.0,0.0,0.0,0.0,0.0,0.0,0.0,0.0,0.0,0.0,0.0,0.0,0.0,0.0,0.0,0.0,0.0,0.0,0.0,0.0,0.0,0.0,0.0,0.0,0.0,0.0,0.0,0.0,0.0,0.0,0.0,0.0,0.0,0.0,0.0,0.0,0.0,0.0,0.0,0.0,0.0,0.0,0.0,0.0,0.0,0.0,0.0,0.0,0.0,0.0,0.0,0.0,0.0,0.0,0.0,0.0,0.0,0.0,0.0,0.0,0.0,0.0,0.0,0.0,0.0,0.0,0.0,0.0,0.0,0.0,0.0,0.0,0.0,0.0,0.0,0.0,0.0,0.0,0.0,0.0,0.0,0.0,0.0,0.0,0.0,0.0,0.0,0.0,0.0,0.0,0.0,0.0,0.0,0.0,0.0,0.0,0.0,0.0,0.0,0.0,0.0,0.0,0.0,0.0,0.0,0.0,0.0,0.0,0.0,0.0,0.0,0.0,0.0,0.0,0.0,0.0,0.0,0.0,0.0,0.0,0.0,0.0,0.0,0.0,0.0,0.0,0.0,0.0,0.0,0.0,0.0,0.0,0.0,0.0,0.0,0.0,0.0,0.0,0.0,0.0,0.0,0.0,0.0,0.0,0.0,0.0,0.0,0.0,0.0,0.0,0.0,0.0,0.0,0.0,0.0,0.0,0.0,0.0,0.0,0.0,0.0,0.0,0.0,0.0,0.0,0.0,0.0,0.0,0.0,0.0,0.0,0.0,0.0,0.0,0.0,0.0,0.0,0.0,0.0,0.0,0.0,0.0,0.0,0.0,0.0,0.0,0.0,0.0,0.0,0.0,0.0,0.0,0.0,0.0,0.0,0.0,0.0,0.0,0.0,0.0,0.0,0.0,0.0,0.0,0.0,0.0,0.0,0.0,0.0,0.0,0.0,0.0,0.0,0.0,0.0,0.0,0.0,0.0,0.0,0.0,0.0,0.0,0.0,0.0,0.0,0.0,0.0,0.0,0.0,0.0,0.0,0.0,0.0,0.0,0.0,0.0,0.0,0.0,0.0,0.0,0.0,0.0,0.0,0.0,0.0,0.0,0.0,0.0,0.0,0.0,0.0,0.0,0.0,0.0,0.0,0.0,0.0,0.0,0.0,0.0,0.0,0.0,0.0,0.0,0.0,0.0,0.0,0.0,0.0,0.0,0.0,0.0,0.0,0.0,0.0,0.0,0.0,0.0,0.0,0.0,0.0,0.0,0.0,0.0,0.0,0.0,0.0,0.0,0.0,0.0,0.0,0.0,0.0,0.0,0.0,0.0,0.0,0.0,0.0,0.0,0.0,0.0,0.0,0.0,0.0,0.0,0.0,0.0,0.0,0.0,0.0,0.0,0.0,0.0,0.0,0.0,0.0,0.0,0.0,0.0,0.0,0.0,0.0,0.0,0.0,0.0,0.0,0.0,0.0,0.0,0.0,0.0,0.0,0.0,0.0,0.0,0.0,0.0,0.0,0.0,0.0,0.0,0.0,0.0,0.0,0.0,0.0,0.0,0.0,0.0,0.0,0.0,0.0,0.0,0.0,0.0,0.0,0.0,0.0,0.0,0.0,0.0,0.0,0.0,0.0,0.0,0.0,0.0,0.0,0.0,0.0,0.0,0.0,0.0,0.0,0.0,0.0,0.0,0.0,0.0,0.0,0.0,0.0,0.0,0.0,0.0,0.0,0.0,0.0,0.0,0.0,0.0,0.0,0.0,0.0,0.0,0.0,0.0,0.0,0.0,0.0,0.0,0.0,0.0,0.0,0.0,0.0,0.0,0.0,0.0,0.0,0.0,0.0,0.0,0.0,0.0,0.0,0.0,0.0,0.0,0.0,0.0,0.0,0.0,0.0,0.0,0.0,0.0,0.0,0.0,0.0,0.0,0.0,0.0,0.0,0.0,0.0,0.0,0.0,0.0,0.0,0.0,0.0,0.0,0.0,0.0,0.0,0.0,0.0,0.0,0.0,0.0,0.0,0.0,0.0,0.0,0.0,0.0,0.0,0.0,0.0,0.0,0.0,0.0,0.0,0.0,0.0,0.0,0.0,0.0,0.0,0.0,0.0,0.0,0.0,0.0,0.0,0.0,0.0,0.0,0.0,0.0,0.0,0.0,0.0,0.0,0.0,0.0,0.0,0.0,0.0,0.0,0.0,0.0,0.0,0.0,0.0,0.0,0.0,0.0,0.0,0.0,0.0,0.0,0.0,0.0,0.0,0.0,0.0,0.0,0.0,0.0,0.0,0.0,0.0,0.0,0.0,0.0,0.0,0.0,0.0,0.0,0.0,0.0,0.0,0.0,0.0,0.0,0.0,0.0,0.0,0.0,0.0,0.0,0.0,0.0,0.0,0.0,0.0,0.0,0.0,0.0,0.0,0.0,0.0,0.0,0.0,0.0,0.0,0.0,0.0,0.0,0.0,0.0,0.0,0.0,0.0,0.0,0.0,0.0,0.0,0.0,0.0,0.0,0.0,0.0,0.0,0.0,0.0,0.0,0.0,0.0,0.0,0.0,0.0,0.0,0.0,0.0,0.0,0.0,0.0,0.0,0.0,0.0,0.0,0.0,0.0,0.0,2.8331,0.0,0.0,0.0,0.0,0.0,0.0,0.0,0.0,0.0,0.0,0.0,0.0,0.0,0.0,0.0,0.0,0.0,0.0,0.0,0.0,0.0,0.0,0.0,0.0,0.0,0.0,0.0,0.0,0.0,0.0,0.0,0.0,0.0,0.0,0.0,0.0,0.0,0.0,0.0,2.3101,2.322,2.3435,2.363,2.3513,2.3101,0.0,0.0,0.0,0.0,0.0,0.0,0.0,0.0,0.0,0.0,0.0,0.0,0.0,0.0,0.0,0.0,0.0,0.0,0.0,0.0,0.0,0.0,0.0,0.0,0.0,0.0,0.0,0.0,0.0,0.0,0.0,0.0,0.0,0.0,0.0,0.0,0.0,0.0,0.0,0.0,0.0,0.0,0.0,0.0,0.0,0.0,0.0,0.0,0.0,0.0,0.0,0.0,0.0,0.0,0.0,0.0,0.0,0.0,0.0,0.0,0.0,0.0,0.0,0.0,0.0,0.0,0.0,0.0,0.0,0.0,0.0,2.8928,0.0,0.0,0.0,0.0,0.0,0.0,0.0,0.0,0.0,0.0,0.0,0.0,0.0,0.0,0.0,0.0,0.0,0.0,0.0,0.0,0.0,0.0,0.0,0.0,2.3101,2.3101,2.3101,2.3101,0.0,0.0,0.0,0.0,0.0,0.0,0.0,2.3101,2.3101,2.3101,2.3237,2.3493,2.3809,2.4297,2.4079,2.3337,2.3337,0.0,0.0,0.0,0.0,0.0,0.0,0.0,0.0,0.0,0.0,0.0,0.0,0.0,0.0,0.0,0.0,0.0,0.0,0.0,0.0,0.0,0.0,0.0,0.0,0.0,0.0,0.0,0.0,0.0,0.0,0.0,0.0,0.0,0.0,0.0,0.0,0.0,0.0,0.0,0.0,0.0,0.0,0.0,0.0,0.0,0.0,0.0,0.0,0.0,0.0,0.0,0.0,0.0,0.0,0.0,0.0,0.0,0.0,0.0,0.0,0.0,0.0,0.0,3.2606,3.3385,3.4478,3.3844,3.4237,3.5261,3.2229,3.1255,3.1746,3.0474,0.0,0.0,0.0,0.0,0.0,0.0,0.0,0.0,0.0,0.0,0.0,0.0,0.0,0.0,0.0,0.0,0.0,0.0,0.0,0.0,0.0,2.3101,2.3101,2.3101,2.3101,2.3101,0.0,0.0,0.0,0.0,0.0,0.0,0.0,2.3101,2.3101,2.3101,2.3864,2.4082,2.3831,2.4633,2.4727,2.4235,2.4235,2.4235,2.4196,0.0,0.0,0.0,0.0,0.0,0.0,0.0,0.0,0.0,0.0,0.0,0.0,0.0,0.0,0.0,0.0,0.0,0.0,0.0,0.0,0.0,0.0,0.0,0.0,0.0,0.0,0.0,0.0,0.0,0.0,0.0,0.0,0.0,0.0,0.0,0.0,0.0,0.0,0.0,0.0,0.0,2.918,2.8545,0.0,0.0,0.0,0.0,0.0,0.0,0.0,0.0,0.0,0.0,0.0,0.0,0.0,3.4826,3.4486,3.6282,3.6776,3.6007,3.7763,3.869,3.8842,3.7767,3.7665,3.8291,3.6818,0.0,3.352,3.2861,0.0,0.0,0.0,0.0,0.0,0.0,0.0,0.0,0.0,0.0,0.0,0.0,0.0,0.0,0.0,0.0,0.0,0.0,0.0,0.0,0.0,2.3337,2.3474,2.3474,2.3708,2.3728,2.3493,2.3474,0.0,0.0,0.0,2.3101,2.3101,2.3101,2.3335,2.3845,2.4703,2.5035,2.4879,2.5527,2.5586,2.5152,2.541,2.5117,2.4394,2.4356,0.0,0.0,0.0,0.0,0.0,0.0,0.0,0.0,0.0,0.0,0.0,0.0,0.0,0.0,0.0,0.0,0.0,0.0,0.0,0.0,0.0,0.0,0.0,0.0,0.0,0.0,0.0,0.0,0.0,0.0,0.0,0.0,0.0,0.0,0.0,0.0,0.0,0.0,0.0,2.9375,3.0319,2.9012,3.0286,3.0832,0.0,0.0,0.0,0.0,0.0,0.0,0.0,0.0,0.0,3.5612,3.6793,3.7492,3.7692,3.8541,3.8916,3.8854,3.9741,4.0149,4.0124,3.932,3.9094,3.9321,3.8492,3.7686,3.6821,3.5305,3.4193,3.3384,0.0,0.0,0.0,0.0,3.2444,3.2357,0.0,0.0,0.0,0.0,0.0,0.0,0.0,0.0,0.0,0.0,0.0,0.0,2.3101,2.3535,2.3789,2.3789,2.4082,2.4121,2.3809,2.3691,0.0,0.0,0.0,2.3101,2.3101,2.322,2.3649,2.4391,2.5269,2.5659,2.5562,2.6133,2.6152,2.5737,2.6191,2.584,2.4922,2.4992,2.4674,2.4085,0.0,0.0,0.0,0.0,0.0,0.0,0.0,0.0,0.0,0.0,0.0,0.0,0.0,0.0,0.0,0.0,0.0,0.0,0.0,0.0,0.0,0.0,0.0,0.0,0.0,0.0,0.0,0.0,0.0,0.0,0.0,0.0,0.0,0.0,0.0,0.0,0.0,3.0501,3.1411,2.9735,3.1617,3.2344,0.0,0.0,0.0,0.0,0.0,0.0,3.528,3.6281,3.7311,3.8391,3.8994,3.9647,4.0351,4.0351,4.0526,4.0927,4.0927,4.0852,4.0675,4.03,4.0049,3.9873,3.9471,3.9398,3.9347,3.7343,3.6248,3.578,3.4985,3.4688,3.4713,3.5014,3.4881,3.4667,0.0,0.0,0.0,0.0,0.0,0.0,0.0,0.0,0.0,0.0,0.0,2.3101,2.3101,2.3535,2.3789,2.3789,2.3831,2.3809,2.3789,2.3376,2.312,2.3101,2.3101,2.3101,2.3101,2.3555,2.3965,2.4391,2.5269,2.5503,2.5141,2.6001,2.6152,2.5737,2.6191,2.6348,2.6269,2.584,2.541,2.4969,2.4332,0.0,0.0,0.0,0.0,0.0,0.0,0.0,0.0,0.0,0.0,0.0,0.0,0.0,0.0,0.0,0.0,0.0,0.0,0.0,0.0,0.0,0.0,0.0,0.0,0.0,0.0,0.0,0.0,0.0,0.0,0.0,0.0,0.0,0.0,0.0,0.0,0.0,0.0,3.1461,3.3674,0.0,0.0,0.0,0.0,3.4502,3.5079,3.5882,3.701,3.7613,3.8442,3.9572,4.0149,4.0953,4.2062,4.2087,4.2112,4.2112,4.2112,4.1806,4.1277,4.1227,4.0951,4.0449,4.0424,4.028,3.9982,3.8764,3.8097,3.7796,3.7229,3.7021,3.6993,3.6709,3.657,3.6489,0.0,0.0,0.0,0.0,0.0,0.0,0.0,0.0,2.3101,2.3101,2.3101,2.3101,2.3101,2.3747,2.4082,2.3809,2.432,2.4398,2.3851,2.3633,2.3415,2.3101,2.3101,2.324,2.3532,2.3984,2.4528,2.5249,2.5835,2.6074,2.5942,2.623,2.6152,2.5737,2.6191,2.6543,2.6758,2.6477,2.6099,2.5693,2.5148,2.4658,0.0,0.0,0.0,0.0,0.0,0.0,0.0,0.0,0.0,0.0,0.0,0.0,0.0,0.0,0.0,0.0,0.0,0.0,0.0,0.0,0.0,0.0,0.0,0.0,0.0,0.0,0.0,0.0,0.0,0.0,0.0,0.0,0.0,0.0,0.0,0.0,0.0,3.4076,3.5857,0.0,3.505,3.5881,3.6634,3.681,3.799,3.8893,3.9295,4.0526,4.1255,4.1306,4.1833,4.2311,4.2713,4.2713,4.2537,4.2213,4.2213,4.1708,4.0775,4.0775,4.0579,4.0258,4.0258,4.0389,4.0567,4.0181,3.9716,3.9247,3.8897,3.8735,3.8709,3.8621,3.8332,3.7967,0.0,0.0,0.0,0.0,0.0,0.0,0.0,0.0,2.3101,2.3101,2.3101,2.3101,2.3101,2.3747,2.4141,2.4004,2.4418,2.4476,2.4023,2.373,2.3415,2.3101,2.3259,2.3532,2.3984,2.4414,2.5,2.5693,2.601,2.6172,2.6172,2.6172,2.5991,2.5693,2.6035,2.6584,2.7272,2.6946,2.67,2.6512,2.608,2.5668,2.5265,0.0,0.0,0.0,0.0,0.0,0.0,0.0,0.0,0.0,0.0,0.0,0.0,0.0,0.0,0.0,0.0,0.0,0.0,0.0,0.0,0.0,0.0,0.0,0.0,0.0,0.0,0.0,0.0,0.0,0.0,0.0,0.0,0.0,0.0,0.0,3.5807,3.5784,3.7589,3.8341,3.706,3.809,3.8843,3.8843,4.0224,4.1078,4.1078,4.2311,4.2838,4.2462,4.2813,4.3014,4.3014,4.3014,4.2738,4.2213,4.1984,4.1505,4.0775,4.068,4.0535,4.0388,4.0465,4.067,4.0921,4.0921,4.0713,4.0425,4.0233,4.015,4.0148,3.9732,3.9364,3.8993,0.0,0.0,0.0,0.0,0.0,0.0,0.0,2.3101,2.3101,2.3101,2.3101,2.3101,2.3101,2.3535,2.3965,2.4313,2.4023,2.3965,2.4332,2.3571,2.3101,2.3101,2.3555,2.3984,2.4391,2.4867,2.5317,2.5693,2.5693,2.5693,2.5693,2.5693,2.5718,2.5737,2.5737,2.6527,2.7864,2.7286,2.721,2.7435,2.709,2.6921,2.6809,0.0,0.0,0.0,0.0,0.0,0.0,0.0,0.0,0.0,0.0,0.0,0.0,0.0,0.0,0.0,0.0,0.0,0.0,0.0,0.0,0.0,0.0,0.0,0.0,0.0,0.0,0.0,0.0,0.0,0.0,0.0,0.0,0.0,3.4048,3.6358,3.7688,3.6735,3.8969,3.9948,3.8341,3.9646,4.0601,4.0575,4.1632,4.2263,4.2238,4.2738,4.3039,4.3039,4.3039,4.3039,4.3039,4.3039,4.2738,4.2213,4.163,4.1327,4.1277,4.1042,4.092,4.0921,4.1207,4.1183,4.0921,4.0921,4.1072,4.1299,4.1299,4.1273,4.1142,4.0067,3.9647,3.9604,0.0,0.0,0.0,0.0,0.0,0.0,0.0,2.3101,2.3101,2.3101,2.3101,2.3101,2.3101,2.3786,2.402,2.3513,2.3923,2.4001,2.3493,2.3218,2.3101,2.3101,2.3555,2.3984,2.4391,2.4867,2.5317,2.5693,2.5693,2.5693,2.5693,2.5693,2.5874,2.6211,2.6211,2.6906,2.803,2.8075,2.8436,2.8917,2.8095,2.7617,2.7357,0.0,0.0,0.0,0.0,0.0,0.0,0.0,0.0,0.0,0.0,0.0,0.0,0.0,0.0,0.0,0.0,0.0,0.0,0.0,0.0,0.0,0.0,0.0,0.0,0.0,0.0,0.0,0.0,0.0,0.0,0.0,0.0,3.7965,3.7587,3.819,3.9446,4.153,4.2082,4.2283,4.2208,4.2635,4.2735,4.2333,4.2961,4.319,4.2788,4.3664,4.3991,4.3589,4.3966,4.3991,4.3589,4.3589,4.3115,4.2213,4.2034,4.1613,4.1017,4.1401,4.1308,4.0951,4.1441,4.1491,4.1173,4.1173,4.1223,4.1299,4.1299,4.1012,4.0692,4.1053,4.1113,4.09,0.0,0.0,0.0,0.0,0.0,0.0,0.0,2.3101,2.3101,2.3101,2.3101,2.3101,2.3101,2.3552,2.3728,2.3415,2.3669,2.3728,2.3415,2.322,2.3201,2.3376,2.3828,2.4258,2.4668,2.5117,2.5469,2.5693,2.5693,2.5815,2.5991,2.5991,2.628,2.6817,2.6817,2.7419,2.8442,2.8488,2.901,2.9691,2.9007,2.868,2.8531,2.7955,2.7866,2.8057,2.7698,2.824,2.9015,2.8096,0.0,0.0,0.0,0.0,0.0,0.0,0.0,0.0,0.0,0.0,0.0,0.0,0.0,0.0,0.0,0.0,0.0,0.0,0.0,0.0,0.0,0.0,0.0,0.0,3.8266,4.0425,4.1507,4.1456,4.1982,4.3915,4.4066,4.4195,4.4468,4.4292,4.4116,4.407,4.4091,4.3915,4.3338,4.394,4.4141,4.3815,4.4116,4.4213,4.4141,4.3915,4.3489,4.2864,4.2521,4.2204,4.1935,4.1845,4.1723,0.0,4.1593,4.1486,4.1299,4.1299,4.1299,0.0,0.0,0.0,0.0,0.0,4.1697,4.1647,0.0,0.0,0.0,0.0,0.0,0.0,0.0,2.3101,2.3101,2.3101,2.3101,2.3101,2.3101,2.3162,2.3318,2.3691,2.3376,2.3337,2.3691,2.3376,2.3357,2.3769,2.4277,2.4746,2.516,2.5601,2.5854,2.5854,2.5854,2.605,2.6465,2.6515,2.6856,2.7484,2.7529,2.8075,2.8962,2.873,2.9155,2.9968,2.9738,2.9811,2.987,2.8603,2.9027,3.0173,2.9388,2.9894,3.0784,3.0135,0.0,0.0,0.0,0.0,0.0,0.0,0.0,0.0,0.0,0.0,0.0,0.0,0.0,0.0,0.0,0.0,0.0,0.0,0.0,0.0,0.0,0.0,0.0,0.0,4.0149,4.2133,4.5146,4.5296,4.5016,4.489,4.5296,4.5573,4.5573,4.5171,4.5095,4.5547,4.5095,4.4568,4.4016,0.0,0.0,0.0,0.0,4.4292,4.4748,4.4271,4.4023,4.4004,4.3222,4.3055,4.3466,4.2523,4.2268,4.2527,4.1798,4.1403,4.1299,4.1299,4.1423,4.1695,4.2423,4.2453,4.2113,4.1786,4.1931,4.2257,0.0,0.0,0.0,0.0,0.0,0.0,0.0,2.3101,2.3101,2.3101,2.3101,2.3101,2.3101,2.3435,2.3555,2.3259,2.3493,2.3532,2.3259,2.3493,2.3711,2.3811,2.4859,2.5503,2.5581,2.6342,2.6732,2.6732,2.6732,2.6791,2.6894,2.7103,2.7493,2.7986,2.8193,2.8718,2.9457,2.9405,2.9624,2.9994,2.9942,2.9942,2.9973,2.9704,3.0062,3.074,3.0567,3.1767,3.3264,3.2213,3.2798,3.3781,3.2707,3.2214,0.0,0.0,0.0,0.0,0.0,0.0,0.0,0.0,0.0,0.0,0.0,0.0,0.0,0.0,0.0,0.0,0.0,0.0,0.0,3.9371,4.2333,4.4895,4.5999,4.7205,4.7631,4.6722,4.6321,4.615,4.615,4.6421,4.6471,4.6175,4.605,4.5748,4.5196,4.5573,4.5623,4.5171,4.5598,4.5766,4.5649,4.5547,4.5414,4.5243,0.0,0.0,4.4123,4.3922,4.3255,4.2292,4.2553,4.2135,4.1299,4.1299,4.2262,4.3598,4.2487,4.2939,4.4123,4.3077,4.3211,4.3784,0.0,0.0,0.0,0.0,0.0,0.0,0.0,2.3101,2.3101,2.3101,2.3101,2.3101,2.3101,2.3318,2.3357,2.312,2.3318,2.3532,2.3747,2.3789,2.4082,2.4703,2.5176,2.5605,2.6055,2.6484,2.6797,2.6986,2.6986,2.7129,2.737,2.7633,2.8058,2.8607,2.8914,2.9446,3.014,3.014,3.0364,3.071,3.1043,3.1146,3.1125,3.087,3.1661,3.2837,3.2837,3.3884,3.5125,3.4242,3.4466,3.4929,3.3847,3.347,3.3222,0.0,0.0,0.0,0.0,0.0,0.0,0.0,0.0,0.0,0.0,0.0,0.0,0.0,0.0,3.5805,0.0,0.0,4.0651,4.2333,4.4443,4.6276,4.738,4.8008,4.8134,4.755,4.7531,4.7531,4.7531,4.7531,4.7531,4.7531,4.7029,4.6476,4.5924,4.5899,4.5773,4.5497,4.5748,4.6048,4.6345,4.5791,4.553,4.5594,4.4862,4.4434,4.4313,4.4165,4.37,4.3023,4.2735,4.2265,4.1767,4.1976,4.2937,4.4284,4.397,4.4553,4.5438,4.4508,4.4445,4.4706,0.0,0.0,0.0,0.0,0.0,0.0,0.0,2.3144,2.3101,2.3101,2.3101,2.3101,2.3101,2.3101,2.3101,2.3101,2.3101,2.3454,2.4215,2.4141,2.4551,2.5659,2.5625,2.5923,2.6646,2.6797,2.7051,2.7357,2.7461,2.7721,2.8153,2.8423,2.8893,2.9473,2.9793,3.0284,3.0849,3.0849,3.1056,3.1449,3.2163,3.2569,3.276,3.2482,3.3394,3.4799,3.4799,3.5402,3.6155,3.5656,3.5508,3.5332,3.4477,3.46,3.4678,3.3018,3.3119,0.0,0.0,0.0,0.0,0.0,0.0,0.0,0.0,0.0,3.4801,3.6334,3.7186,3.8215,3.9998,4.1302,4.2883,4.5271,4.6276,4.7255,4.8617,4.846,4.8234,4.8234,4.8592,4.8793,4.8793,4.8435,4.8435,4.8919,4.8109,4.735,4.6828,4.6336,4.6043,4.5917,4.5876,4.6205,4.6959,4.6043,4.5758,4.6074,4.5165,4.4732,4.4706,4.4248,4.399,4.3834,4.2683,4.2186,4.2235,4.2648,4.3392,4.4406,4.5417,4.6065,4.642,4.5753,4.5484,4.5394,0.0,0.0,0.0,0.0,0.0,0.0,0.0,0.0,2.3101,2.3101,2.3101,2.3101,2.3101,2.3101,2.3101,2.3101,2.3101,2.3318,2.3828,2.4554,2.5176,2.5698,2.6797,2.7448,2.7545,2.8262,2.8625,2.8684,2.9101,2.9455,2.9763,3.0093,3.0396,3.071,3.1052,3.1257,3.1326,3.1326,3.1346,3.1497,3.2582,3.358,3.448,3.4964,3.5012,3.4799,3.4799,3.5157,3.5583,3.5508,3.5508,3.5483,3.5357,3.573,3.5879,3.4198,0.0,3.2839,3.116,3.1135,3.2164,3.4552,3.4828,3.5431,0.0,0.0,3.9295,4.0424,4.1505,4.2336,4.2587,4.394,4.5296,4.6075,4.7506,4.8592,4.8768,4.9138,4.9414,4.9414,4.9069,4.8793,4.8793,4.9163,4.9439,4.949,4.9389,4.9088,4.8567,4.8238,4.7861,4.7384,4.7146,4.7213,4.7615,4.7486,4.7581,4.7902,4.6782,4.6262,4.621,4.5113,4.4356,4.3834,4.2683,4.2186,4.2235,4.2648,4.3392,4.4406,4.5417,4.6381,4.713,4.642,4.6181,4.6091,0.0,0.0,0.0,0.0,0.0,0.0,0.0,0.0,0.0,2.3123,2.3101,2.3101,2.3101,2.3101,2.3101,2.3101,2.3357,2.4023,2.5215,2.5644,2.6367,2.7513,2.7871,2.8054,2.8054,2.8613,2.8898,2.8898,2.9355,2.9738,3.0008,3.0582,3.0868,3.0928,3.1491,3.1919,3.2168,3.2168,3.2457,3.3114,3.4687,3.5178,3.5139,3.647,3.6258,3.5174,3.4854,3.4885,0.0,3.4301,3.4324,3.4577,3.4577,3.4977,3.5152,3.3822,3.3721,0.0,3.3574,3.3624,3.4226,0.0,3.681,3.7739,3.9998,4.0575,4.1127,4.2858,4.4141,4.502,4.5347,4.6225,4.7079,0.0,4.8341,4.8919,4.9213,4.9439,4.9464,4.9195,4.9188,4.9296,4.9296,4.9464,4.959,4.959,4.9289,4.9044,4.8818,4.8578,4.8206,4.7623,4.7696,4.7713,4.7703,4.7393,4.7383,4.7675,4.6865,4.6501,4.6475,4.5611,4.4748,4.3912,4.4067,4.3922,4.3674,4.4717,4.5363,4.5826,4.6453,4.6931,4.7279,4.701,4.6869,4.68,0.0,0.0,0.0,0.0,0.0,0.0,0.0,0.0,0.0,0.0,2.3101,2.3101,2.3101,2.3101,2.3101,2.3101,2.3415,2.4238,2.5742,2.6191,2.7031,2.8516,2.8613,2.8652,2.8652,2.918,2.9473,2.9473,3.0133,3.0607,3.0863,3.1497,3.1791,3.1825,3.2323,3.276,3.3099,3.3099,3.3676,3.4749,3.628,3.6524,3.6097,3.749,3.6961,3.5433,3.4904,3.4502,3.4123,3.3169,3.3093,3.3445,3.3445,3.39,3.4276,3.3366,3.352,3.4173,3.4969,0.0,0.0,3.748,3.8869,4.0152,4.1392,4.2192,4.3212,4.5062,4.6194,4.705,4.7604,4.8007,4.8491,4.9071,4.9172,4.9266,4.9572,4.9561,4.9373,4.897,4.9051,4.9252,4.962,4.9643,4.9622,4.9719,4.9398,4.9203,4.9273,4.9113,4.8789,4.8381,4.8377,4.8338,4.8318,4.7772,4.76,4.7777,4.7231,4.6865,4.6682,4.5923,4.5062,4.4175,4.5121,4.526,4.4947,4.6267,4.6818,4.6822,4.7177,4.7309,4.7309,4.7309,4.7309,4.7249,0.0,0.0,0.0,0.0,0.0,0.0,0.0,0.0,0.0,0.0,0.0,0.0,0.0,2.3101,2.3101,2.3101,2.3101,2.3513,2.4391,2.5684,2.6803,2.7702,2.8914,2.9559,2.9559,3.0419,3.084,3.084,3.2038,3.2734,3.3015,3.3364,3.3692,3.3989,3.4019,3.404,3.406,3.406,3.48,3.5983,3.6641,3.7274,3.7832,3.794,3.6961,3.5433,3.4904,3.4022,3.3065,3.2441,3.224,3.2244,3.2244,3.3018,0.0,3.3266,3.2692,3.2558,3.3969,0.0,3.6175,3.8933,4.0869,4.2551,4.4277,4.5461,4.6416,4.7329,4.7973,4.8613,4.914,4.9241,4.9444,4.997,5.0072,4.9944,4.9654,4.9425,4.9292,4.9178,4.8472,4.8434,0.0,4.9672,4.9719,5.0065,5.0072,5.0206,5.0531,5.0363,5.024,5.0214,4.9481,4.9322,4.9845,4.9296,4.9035,4.9064,4.8463,4.7832,4.7255,4.6105,4.5269,4.4724,4.5256,4.5478,4.5549,4.6415,4.6818,4.6822,4.7177,4.7309,4.7309,4.7309,4.7309,4.7309,0.0,0.0,0.0,0.0,0.0,0.0,0.0,0.0,0.0,0.0,0.0,0.0,0.0,0.0,0.0,0.0,2.3376,2.3926,2.4809,2.6074,2.7187,2.8073,2.9637,3.0341,3.0,3.1368,3.1959,3.1633,3.2565,3.3175,3.3445,3.3871,3.4092,3.4102,3.4413,3.4723,3.4982,3.5164,3.6043,3.7402,3.822,3.8262,3.7829,3.7965,3.6533,3.4301,0.0,3.2591,3.1834,3.0909,3.0859,3.114,3.114,3.1662,3.2307,3.2676,3.2895,3.3516,3.5641,0.0,3.8425,4.126,4.2666,4.3783,4.546,4.6725,4.7601,4.787,4.8049,4.8059,4.7699,4.7769,4.8009,4.8384,4.9277,4.9855,4.9761,5.034,5.0199,4.8636,4.9181,0.0,0.0,0.0,0.0,5.0934,5.1042,5.1081,5.1178,5.1349,5.1074,5.0323,5.0241,5.0106,4.9897,4.9714,4.9453,4.9117,4.8515,4.7885,4.7281,4.6552,4.6261,4.6384,4.6943,4.7558,4.8251,4.8817,4.9051,4.8978,4.8253,4.7967,4.7908,4.7459,4.7309,4.7309,0.0,0.0,0.0,0.0,0.0,0.0,0.0,0.0,0.0,0.0,0.0,0.0,0.0,0.0,0.0,0.0,0.0,2.4105,2.4785,2.5918,2.6908,2.7793,2.9199,2.9746,2.9324,3.0587,3.1186,3.1067,3.21,3.2838,3.335,3.397,3.4161,3.4102,3.4413,3.4703,3.4961,3.5556,3.6502,3.7665,3.8291,3.8179,3.7553,3.702,3.5504,0.0,3.2315,3.1562,3.0984,3.0105,3.003,3.0357,3.0538,3.111,3.19,3.2908,3.378,3.4962,3.7559,3.9023,4.0438,4.3041,4.4119,4.4932,4.665,4.7589,4.8137,4.8227,4.7829,4.7325,4.6878,4.6528,4.6455,4.6955,4.7735,4.8512,4.9071,4.964,4.9702,4.8978,4.9554,4.9913,0.0,0.0,0.0,5.1261,5.155,5.164,5.1562,5.1941,5.1724,5.0789,5.0798,5.0707,5.0498,5.0315,4.9923,4.9404,4.8594,4.8116,4.791,4.7595,4.7727,4.8234,4.8711,4.9312,4.9974,5.0128,5.0196,5.0076,4.8805,4.8319,4.8207,4.7549,4.7309,4.7309,0.0,0.0,0.0,0.0,0.0,0.0,0.0,0.0,0.0,0.0,0.0,0.0,0.0,0.0,0.0,0.0,0.0,0.0,2.4394,2.523,2.6069,2.6889,2.7812,2.8112,2.7728,2.8351,2.8919,2.9416,3.078,3.1913,3.2808,3.3582,3.3957,3.3957,3.3957,3.3978,3.4066,3.5163,3.6108,3.6838,3.6893,3.7042,3.6984,3.533,3.4048,3.2964,3.1859,3.1085,3.0512,3.0005,2.988,3.0005,3.0532,3.1436,3.2579,3.3965,3.5223,3.6764,3.9424,4.0847,4.2059,4.4301,4.5246,4.6077,4.7768,4.8147,4.815,4.8343,4.732,4.646,0.0,0.0,4.4988,4.5858,4.5897,4.6367,4.7918,4.7829,4.8236,0.0,0.0,0.0,0.0,0.0,0.0,5.1172,0.0,5.1932,5.1753,5.225,5.2276,5.1675,5.1152,5.1126,5.1596,5.1073,5.0498,4.9871,4.8803,4.8546,4.9031,4.9087,4.9418,5.006,5.0486,5.0676,5.0713,5.0419,5.0285,5.0189,4.8895,4.8386,4.8319,4.7638,4.7421,4.7399,0.0,0.0,0.0,0.0,0.0,0.0,0.0,0.0,0.0,0.0,0.0,0.0,0.0,0.0,0.0,0.0,0.0,0.0,2.4391,2.523,2.5815,2.603,2.7682,2.8397,2.7937,2.9146,2.9695,2.9472,3.0417,3.1045,3.1271,3.1829,3.2092,3.2092,3.2092,3.225,3.2591,3.3377,3.4506,3.5787,3.5842,3.6173,3.6457,3.5203,3.4048,3.3014,3.2265,3.1391,3.0563,0.0,0.0,0.0,0.0,3.2866,3.3991,3.5069,3.6851,3.8755,4.0524,4.2111,4.3726,4.5611,4.618,4.6486,4.733,4.7844,4.7837,4.659,4.5757,4.4893,0.0,0.0,0.0,4.592,4.7591,0.0,4.9967,5.0695,0.0,5.0089,0.0,5.1075,5.1387,5.0959,0.0,0.0,5.254,5.2702,5.3504,5.3295,5.2877,5.2276,5.2145,5.191,5.1596,5.1073,5.0498,4.9871,4.9191,4.8714,4.8457,4.8886,4.9638,5.0547,5.1123,5.1795,5.2505,5.1918,5.1708,5.1558,5.0219,4.971,4.9673,4.9186,4.9012,4.8974,0.0,0.0,0.0,0.0,0.0,0.0,0.0,0.0,0.0,0.0,0.0,0.0,0.0,0.0,0.0,0.0,0.0,0.0,0.0,2.5271,2.5696,2.5868,2.7062,2.7506,2.7023,2.7748,2.8197,2.8365,2.8709,2.9212,2.9787,3.0036,3.016,3.016,3.016,3.0305,3.0577,3.1881,3.2805,0.0,0.0,3.4851,3.4849,3.3947,3.3395,3.2989,3.2139,3.1938,0.0,0.0,0.0,3.3345,3.3748,3.4562,3.5681,3.7119,0.0,4.0374,4.1979,4.352,4.4931,4.6187,4.6501,4.6499,4.6549,4.6811,4.6578,4.4825,4.3935,0.0,0.0,0.0,0.0,0.0,0.0,0.0,5.0211,5.1085,5.1445,0.0,5.1596,0.0,5.1988,5.1727,5.2145,0.0,5.3217,5.3164,5.3818,5.3556,5.3112,5.2511,5.2223,5.1936,5.1596,5.0812,5.0237,4.9871,4.9117,4.8779,4.8988,4.9854,5.0817,5.1887,0.0,5.263,5.3139,5.2157,5.1768,5.1678,5.0607,5.0196,5.0152,4.9742,4.9432,4.9175,0.0,0.0,0.0,0.0,0.0,0.0,0.0,0.0,0.0,0.0,0.0,0.0,0.0,0.0,0.0,0.0,0.0,0.0,0.0,0.0,2.5738,2.6071,2.64,2.6343,2.5856,2.5643,2.5926,2.6665,2.6486,2.6993,2.8148,2.8214,2.8255,2.8255,2.8255,2.8305,2.853,3.0378,3.0974,3.0858,3.2796,3.3319,3.2914,0.0,3.2566,3.2939,3.1808,0.0,0.0,0.0,3.4799,3.5253,3.5898,3.664,3.7639,3.949,4.0614,4.1645,4.3415,4.467,4.5609,4.6212,4.6344,4.6135,4.5532,4.5374,4.4852,4.3023,0.0,4.1878,4.1952,4.1955,4.245,4.4016,0.0,4.7259,4.9762,5.0367,5.1033,5.2349,5.2485,5.2563,5.272,5.2668,5.3086,5.4236,5.3818,5.353,5.3609,5.3478,5.3112,5.2511,5.191,5.1596,5.1596,5.0603,5.0054,4.9871,4.8878,4.8916,4.9929,5.1154,5.2268,5.3262,5.3302,0.0,5.3109,5.1858,5.1325,5.1265,5.0631,5.0384,5.0347,5.0043,4.9581,4.9134,0.0,0.0,0.0,0.0,0.0,0.0,0.0,0.0,0.0,0.0,2.416,0.0,0.0,0.0,0.0,0.0,0.0,0.0,0.0,0.0,0.0,2.6091,2.6568,2.6605,2.6133,2.5918,2.5725,2.5496,2.5458,2.5563,2.5811,2.6185,2.6374,2.6374,2.6374,2.6787,2.7493,2.8182,2.9135,3.0233,3.1377,3.2039,3.234,3.224,0.0,0.0,0.0,0.0,0.0,0.0,3.6467,3.766,3.8901,3.9539,4.0131,4.1385,4.2188,4.284,4.3676,4.4356,4.5008,4.5609,4.5428,4.4932,4.433,4.42,0.0,0.0,4.1534,4.1847,4.0906,4.1848,0.0,4.5689,0.0,0.0,0.0,0.0,5.1669,0.0,0.0,0.0,0.0,0.0,0.0,0.0,0.0,5.4288,5.4785,5.3896,5.3112,5.2511,5.191,5.1596,5.1596,5.1387,5.0812,4.9897,4.9688,4.9711,4.9929,5.1154,5.2012,5.2655,5.3599,0.0,5.3139,5.2336,5.2037,5.1971,5.1523,5.1375,5.1391,5.1706,5.1766,5.1605,0.0,0.0,0.0,0.0,0.0,0.0,0.0,0.0,0.0,0.0,2.5711,2.5653,0.0,0.0,0.0,0.0,0.0,0.0,0.0,0.0,0.0,0.0,0.0,0.0,2.6786,2.6429,2.627,2.6289,0.0,2.5564,2.5564,2.5544,2.542,2.5171,2.5653,2.6087,2.6561,2.7683,2.8573,2.9325,3.0516,3.1311,3.1813,0.0,0.0,0.0,0.0,0.0,0.0,0.0,3.7586,3.9348,4.0747,4.1081,4.1158,4.2502,4.2945,4.318,4.4095,4.4721,4.5243,4.5531,4.5165,4.4434,4.3284,0.0,0.0,0.0,4.0671,4.1167,4.0932,0.0,0.0,0.0,0.0,0.0,0.0,0.0,0.0,0.0,0.0,0.0,0.0,0.0,0.0,0.0,0.0,5.4654,5.4628,5.3556,5.2642,5.204,5.1753,5.1596,5.1596,5.0995,5.042,4.9901,4.9896,4.9896,4.9958,5.1756,5.2541,5.2455,5.3302,0.0,5.2606,5.1947,5.1475,5.1169,5.1479,5.1384,5.1189,5.2002,5.1848,5.125,0.0,0.0,0.0,0.0,0.0,0.0,0.0,2.4849,2.5551,2.7295,2.7012,2.6362,2.564,2.5932,2.6304,0.0,0.0,0.0,0.0,0.0,0.0,0.0,0.0,0.0,0.0,0.0,0.0,2.7164,2.6312,0.0,0.0,0.0,0.0,0.0,2.5635,2.6117,2.6462,2.7911,2.8613,0.0,0.0,3.1035,0.0,0.0,0.0,0.0,0.0,0.0,0.0,0.0,3.7844,3.96,4.1415,4.1903,4.198,4.3071,4.3309,4.3389,4.4304,4.4852,4.5245,4.5245,4.4773,4.3911,4.2343,4.1533,0.0,0.0,3.986,4.0489,4.0855,0.0,0.0,0.0,0.0,0.0,0.0,0.0,0.0,0.0,0.0,0.0,0.0,0.0,0.0,0.0,0.0,0.0,5.4053,5.306,5.2223,5.1622,5.1492,5.1413,5.1413,5.0394,4.9845,4.9744,4.9976,5.015,5.035,5.2457,5.3111,5.2581,5.3015,0.0,0.0,5.1439,5.084,5.0393,5.1308,5.1295,5.0872,5.1971,5.1609,5.0643,0.0,0.0,0.0,0.0,0.0,0.0,0.0,2.5551,2.6237,2.6034,2.6606,2.7063,2.7105,2.747,2.8245,0.0,0.0,0.0,0.0,0.0,0.0,0.0,0.0,0.0,0.0,0.0,0.0,2.6664,2.6146,0.0,0.0,0.0,0.0,0.0,0.0,2.7118,2.8251,2.843,0.0,0.0,0.0,0.0,0.0,0.0,0.0,0.0,0.0,0.0,0.0,0.0,0.0,3.7204,4.0396,4.2216,4.32,4.3075,0.0,0.0,4.3938,4.4017,4.4069,4.4069,4.3598,4.284,4.1638,0.0,0.0,3.8397,3.9311,4.0254,3.9834,4.0672,0.0,0.0,0.0,4.5324,0.0,0.0,0.0,0.0,0.0,0.0,0.0,0.0,0.0,0.0,0.0,0.0,5.3452,5.2851,5.2223,5.1622,5.1126,5.0864,5.0864,5.0211,4.9666,4.9195,5.0216,5.0983,5.1565,5.283,5.3316,5.3142,5.318,0.0,0.0,5.1236,5.0956,5.0668,5.1614,5.1691,5.1367,5.2317,5.2192,5.1546,0.0,0.0,0.0,0.0,0.0,0.0,0.0,2.7047,2.7515,2.7851,2.8196,2.843,2.8516,2.8935,2.923,0.0,0.0,0.0,0.0,0.0,0.0,0.0,0.0,0.0,0.0,0.0,0.0,2.8762,2.8586,0.0,0.0,0.0,0.0,0.0,0.0,2.8301,2.8534,2.9072,0.0,0.0,0.0,0.0,0.0,0.0,0.0,0.0,0.0,0.0,0.0,0.0,0.0,0.0,3.8903,4.0311,0.0,0.0,4.2683,4.3023,4.3703,4.4147,4.4382,4.4382,4.3441,4.2291,4.1507,0.0,3.9207,3.8527,3.9183,3.9941,4.0045,4.075,4.1533,0.0,0.0,0.0,0.0,0.0,0.0,0.0,0.0,0.0,0.0,0.0,0.0,0.0,0.0,0.0,5.2851,5.2276,5.1701,5.1126,5.0917,5.0629,5.0263,4.9688,4.9657,5.0126,5.0954,5.1845,5.2751,5.3532,5.3619,5.3169,5.2755,0.0,0.0,5.0757,5.0379,5.0088,5.1031,5.1105,5.0861,5.2209,5.2021,5.1097,0.0,0.0,0.0,0.0,0.0,0.0,2.7832,2.8352,2.8798,2.9234,2.9436,2.9484,2.9316,2.9917,3.0075,2.9398,0.0,0.0,0.0,0.0,0.0,0.0,0.0,0.0,0.0,0.0,0.0,3.0192,3.0192,2.967,0.0,0.0,2.8938,2.7596,0.0,0.0,0.0,0.0,0.0,0.0,0.0,0.0,0.0,0.0,0.0,0.0,0.0,0.0,0.0,0.0,0.0,0.0,0.0,0.0,0.0,0.0,4.1663,4.216,4.3127,4.3781,4.4225,4.4434,4.331,4.2029,0.0,0.0,3.8634,3.8501,3.9076,3.973,4.0071,4.0776,4.1299,4.1299,4.1299,4.1925,4.365,0.0,0.0,0.0,0.0,0.0,0.0,0.0,0.0,0.0,0.0,0.0,5.2014,5.1596,5.1178,5.0812,5.0446,5.008,4.9662,4.9087,4.939,5.0524,5.1322,5.2184,5.3149,5.387,5.3713,5.2899,5.2396,0.0,0.0,5.0557,5.008,4.9754,5.0484,5.0515,5.0297,5.1616,5.1374,5.0389,0.0,0.0,0.0,0.0,0.0,0.0,0.0,2.9182,2.9893,2.9364,2.9749,2.9893,2.9364,3.0251,3.0901,3.0879,0.0,0.0,0.0,0.0,0.0,0.0,0.0,0.0,0.0,0.0,0.0,3.0192,3.0192,3.0192,3.0192,3.0192,3.0106,2.9954,0.0,0.0,0.0,0.0,0.0,0.0,0.0,0.0,0.0,0.0,0.0,0.0,0.0,0.0,0.0,0.0,0.0,0.0,0.0,3.7926,3.8161,3.9288,4.0435,4.1455,4.2055,4.2605,4.318,4.3755,4.3049,4.2029,0.0,3.9941,3.8553,3.8031,3.8815,3.9599,3.9625,4.0515,4.1299,4.1299,4.1299,0.0,4.365,0.0,0.0,0.0,0.0,0.0,0.0,0.0,0.0,0.0,0.0,0.0,5.0838,5.0812,5.0812,5.0786,4.9688,4.9087,4.9117,4.8486,4.8784,4.9928,5.1127,5.1957,5.2459,5.3638,5.3473,0.0,0.0,0.0,0.0,5.0764,5.0298,4.9916,5.0179,5.0073,4.9774,5.0451,5.0266,4.9703,0.0,0.0,0.0,0.0,0.0,0.0,0.0,2.9798,3.0179,3.0371,3.054,3.0443,2.9914,3.0492,3.0901,3.0901,0.0,0.0,0.0,0.0,0.0,0.0,0.0,0.0,0.0,0.0,0.0,3.1568,3.1568,3.1051,3.0093,3.1097,3.101,3.0041,3.1055,0.0,0.0,0.0,0.0,0.0,0.0,0.0,0.0,0.0,0.0,0.0,0.0,0.0,0.0,0.0,0.0,0.0,0.0,0.0,0.0,3.8344,3.9259,4.0278,4.0827,4.1402,4.1874,4.2082,4.1272,4.0383,4.02,3.9128,3.8214,3.8423,3.9076,3.9705,4.0071,4.0776,4.1299,4.1299,4.1299,0.0,0.0,0.0,0.0,0.0,0.0,0.0,0.0,0.0,0.0,0.0,0.0,0.0,5.0812,5.0054,4.9666,4.9666,4.93,4.8878,4.8515,4.9065,4.9957,5.1127,5.2296,5.312,5.3608,5.3565,5.3025,0.0,0.0,0.0,0.0,5.0645,5.0411,5.024,5.0786,5.0748,5.0451,5.1128,5.0667,4.9703,0.0,0.0,0.0,0.0,0.0,0.0,0.0,2.9965,3.0227,3.0564,3.078,3.0684,3.0155,3.0756,3.1161,3.1008,0.0,0.0,0.0,0.0,0.0,0.0,0.0,0.0,0.0,0.0,3.2792,3.2194,3.2194,3.1622,3.0563,3.1469,3.1402,3.0563,3.1489,0.0,0.0,0.0,0.0,0.0,0.0,0.0,3.3111,0.0,0.0,0.0,0.0,0.0,0.0,0.0,0.0,0.0,0.0,0.0,0.0,0.0,3.8397,3.9128,3.9888,4.0515,4.1036,4.1247,4.0437,0.0,0.0,3.8736,3.8004,3.8344,3.8867,3.9442,3.9967,4.0409,4.0776,4.1221,0.0,0.0,0.0,0.0,0.0,0.0,0.0,0.0,0.0,0.0,0.0,0.0,0.0,0.0,5.0159,4.9509,4.9012,4.8777,4.8538,4.825,4.7858,4.8769,4.9941,5.1364,5.2486,5.3312,5.3803,5.3408,5.2695,0.0,0.0,0.0,0.0,5.0245,5.0034,4.9952,5.0192,5.0138,4.9989,5.0697,5.0236,4.9312,0.0,0.0,0.0,0.0,0.0,0.0,0.0,0.0,0.0,0.0,3.0588,3.0754,3.0275,3.1115,3.1588,0.0,0.0,0.0,0.0,0.0,0.0,0.0,0.0,0.0,0.0,3.309,3.2788,3.2144,3.2144,3.1863,3.1286,3.1331,3.1361,3.1406,3.1436,0.0,0.0,0.0,0.0,0.0,0.0,0.0,0.0,0.0,0.0,0.0,0.0,0.0,0.0,0.0,0.0,0.0,0.0,0.0,0.0,0.0,0.0,0.0,0.0,3.986,0.0,0.0,0.0,0.0,3.9494,3.8658,0.0,3.7952,3.837,3.8919,3.9547,3.9677,4.0043,4.1116,0.0,0.0,0.0,0.0,0.0,0.0,0.0,0.0,0.0,0.0,0.0,0.0,0.0,0.0,4.9143,4.9038,4.8695,4.8146,4.749,4.7229,4.7307,4.7913,4.9061,5.0718,5.1877,5.2687,5.3139,5.3139,5.2426,0.0,0.0,0.0,0.0,4.9683,4.9329,4.928,4.89,4.8706,4.8737,4.9435,4.922,4.8696,0.0,0.0,0.0,0.0,0.0,0.0,0.0,0.0,0.0,0.0,3.0957,3.1194,3.1308,3.1704,3.1911,0.0,0.0,0.0,0.0,0.0,0.0,0.0,0.0,0.0,0.0,3.309,3.2612,3.1587,3.1587,3.111,3.0181,3.0608,3.1009,3.1432,3.1838,0.0,0.0,0.0,0.0,0.0,0.0,0.0,0.0,0.0,0.0,0.0,3.4074,3.4251,0.0,0.0,0.0,0.0,0.0,0.0,0.0,0.0,3.79,3.7978,3.824,0.0,3.8527,3.8658,3.8501,3.8318,0.0,3.8083,3.8031,3.8423,0.0,3.9,4.0043,4.0202,4.0437,0.0,0.0,0.0,0.0,0.0,0.0,0.0,0.0,0.0,0.0,0.0,0.0,0.0,0.0,4.9218,4.9117,4.8224,4.7647,4.7516,4.6523,4.6419,4.7307,4.8709,4.9613,5.0071,5.2059,5.2811,5.2426,5.2426,5.1977,0.0,0.0,0.0,5.0039,4.9899,4.9735,4.9649,5.006,4.9897,4.9466,4.9641,4.922,4.8614,0.0,0.0,0.0,0.0,0.0,0.0,0.0,0.0,0.0,0.0,0.0,0.0,0.0,0.0,0.0,0.0,0.0,0.0,0.0,0.0,0.0,0.0,0.0,0.0,0.0,3.2839,3.224,3.1406,3.116,3.0608,2.9804,3.0105,3.0658,3.1411,3.1964,0.0,0.0,0.0,0.0,0.0,3.1286,0.0,0.0,0.0,0.0,0.0,3.4209,3.4314,0.0,3.4397,3.4607,3.4972,0.0,0.0,0.0,0.0,3.7691,3.79,3.79,3.79,3.79,3.79,3.79,3.79,3.79,0.0,0.0,0.0,0.0,3.8684,3.981,3.9625,0.0,0.0,0.0,0.0,0.0,0.0,0.0,0.0,0.0,0.0,0.0,0.0,0.0,0.0,0.0,4.8277,4.8277,4.744,4.6944,4.6944,4.6053,4.5896,4.6523,4.813,4.9143,4.945,5.1689,5.2546,5.2187,5.1887,5.1355,0.0,0.0,0.0,4.946,4.9287,4.9209,4.922,4.9589,4.9528,4.922,4.9579,4.922,4.8645,0.0,0.0,0.0,0.0,0.0,0.0,0.0,0.0,0.0,0.0,0.0,0.0,0.0,0.0,0.0,0.0,0.0,0.0,0.0,0.0,0.0,0.0,0.0,3.3065,3.2964,3.2541,3.1989,3.126,3.0909,3.0457,2.9905,2.9905,3.0482,3.1537,3.2014,0.0,0.0,0.0,0.0,0.0,3.126,0.0,0.0,0.0,0.0,0.0,0.0,0.0,0.0,3.4371,3.4267,3.4267,3.5051,0.0,0.0,0.0,0.0,0.0,3.7874,3.79,3.79,3.79,3.79,3.79,3.79,0.0,0.0,0.0,0.0,0.0,0.0,0.0,0.0,0.0,0.0,0.0,0.0,0.0,0.0,0.0,0.0,0.0,0.0,0.0,0.0,0.0,0.0,4.7255,4.7176,4.6734,4.6423,4.6212,4.5663,4.5296,4.5191,4.7058,4.8373,4.9087,5.0998,5.1887,5.1887,5.1229,5.0578,5.0009,0.0,0.0,4.8966,4.8492,4.8427,4.8583,4.8583,4.8583,4.8676,4.9281,4.9127,4.8696,0.0,0.0,0.0,0.0,0.0,0.0,0.0,0.0,0.0,0.0,0.0,0.0,0.0,0.0,0.0,0.0,0.0,0.0,0.0,0.0,0.0,0.0,3.309,3.2864,3.2365,3.2742,3.2215,3.0713,3.111,3.1009,3.0462,3.0462,3.1039,3.2089,3.2144,3.2144,3.2039,0.0,0.0,0.0,0.0,0.0,0.0,0.0,0.0,0.0,0.0,0.0,0.0,3.4178,3.3744,3.3221,3.4816,0.0,0.0,0.0,0.0,0.0,3.7769,3.79,3.79,3.79,3.79,3.79,3.79,0.0,0.0,0.0,0.0,0.0,0.0,0.0,0.0,0.0,0.0,0.0,0.0,0.0,0.0,0.0,0.0,0.0,0.0,0.0,0.0,0.0,0.0,4.7098,4.6658,4.6525,4.6029,4.5008,4.4434,4.3912,4.3389,4.6452,4.8499,4.9511,5.0195,5.0518,5.0488,4.9853,4.9546,4.9419,0.0,4.8758,4.8966,4.8492,4.8427,4.8583,4.8583,4.8583,4.8614,4.8727,4.8696,4.8614,0.0,0.0,0.0,0.0,0.0,0.0,0.0,0.0,0.0,0.0,0.0,0.0,0.0,0.0,0.0,0.0,0.0,0.0,0.0,0.0,0.0,3.2616,3.2939,3.2839,3.2194,3.219,3.1662,3.0588,3.0557,3.0708,3.1035,3.1315,3.1717,3.2194,3.2194,3.2194,3.2169,3.1938,0.0,0.0,0.0,0.0,0.0,0.0,0.0,0.0,0.0,0.0,0.0,0.0,3.3643,3.3378,3.435,0.0,0.0,0.0,0.0,0.0,3.7246,3.7403,3.756,3.8187,3.8344,3.8266,0.0,0.0,0.0,0.0,0.0,0.0,0.0,0.0,0.0,0.0,0.0,0.0,0.0,0.0,0.0,0.0,0.0,0.0,0.0,0.0,0.0,0.0,0.0,0.0,4.6527,4.5612,4.4957,4.4721,4.3859,4.399,4.5173,4.6373,4.7204,4.7718,4.9056,4.9703,4.9673,4.9067,4.8835,4.8886,0.0,4.827,4.8612,4.8382,4.8427,4.8583,4.8583,4.8583,4.8583,4.8583,4.8583,4.8583,0.0,0.0,0.0,0.0,0.0,0.0,0.0,0.0,0.0,0.0,0.0,0.0,0.0,0.0,0.0,0.0,0.0,0.0,0.0,0.0,3.2889,3.2441,3.2717,3.2541,3.1842,3.1662,3.121,3.0412,3.0131,3.0457,3.1411,3.2089,3.2416,3.2416,3.2416,3.2416,3.2416,3.2244,3.2039,0.0,0.0,0.0,0.0,0.0,0.0,0.0,0.0,0.0,0.0,0.0,0.0,0.0,0.0,0.0,0.0,3.5129,3.56,3.6044,3.6645,3.6802,3.7037,3.8057,0.0,0.0,0.0,0.0,0.0,0.0,0.0,0.0,0.0,0.0,0.0,0.0,0.0,0.0,0.0,0.0,0.0,0.0,0.0,0.0,0.0,0.0,0.0,0.0,0.0,0.0,4.5926,4.4749,4.4121,4.4094,4.3284,4.3846,4.5974,4.5797,4.6075,4.6862,4.8342,4.9067,4.9037,4.8379,4.8189,4.8325,4.7908,4.7922,4.8301,4.8364,4.8469,4.8583,4.8583,4.8583,4.8583,4.8583,4.8583,4.8583,0.0,0.0,0.0,0.0,0.0,0.0,0.0,0.0,0.0,0.0,0.0,0.0,0.0,0.0,0.0,0.0,0.0,0.0,0.0,0.0,3.309,3.304,3.2541,3.1767,3.0738,3.1642,3.1386,2.9854,3.0331,3.0834,3.1411,3.2512,3.304,3.304,3.304,3.304,3.3014,3.2441,3.2491,3.2939,0.0,0.0,0.0,0.0,0.0,0.0,0.0,0.0,0.0,0.0,0.0,0.0,0.0,0.0,3.4528,3.5129,3.5338,3.5469,3.6018,3.6175,3.6332,3.6959,3.7534,0.0,3.9259,3.905,0.0,3.9364,0.0,0.0,0.0,0.0,0.0,0.0,0.0,0.0,0.0,0.0,0.0,0.0,0.0,0.0,0.0,0.0,0.0,0.0,0.0,0.0,4.4147,4.4514,4.4017,4.2421,4.2291,4.2532,4.3103,4.3982,4.5976,4.9073,4.8611,4.8379,4.8349,4.7668,4.7477,4.7662,4.7889,4.8091,4.8322,4.848,4.8583,4.8583,4.8583,4.8583,4.8583,4.8583,4.8583,4.8583,0.0,0.0,0.0,0.0,0.0,0.0,0.0,0.0,0.0,0.0,0.0,0.0,0.0,0.0,0.0,0.0,0.0,0.0,0.0,0.0,3.2939,3.2566,3.2319,3.1842,3.111,3.1185,3.0758,2.9804,3.1361,3.1909,3.1411,3.2562,3.309,3.3065,3.2361,3.2215,3.2541,3.2692,3.2667,3.2562,3.284,0.0,0.0,0.0,0.0,0.0,0.0,0.0,0.0,0.0,3.2909,3.3004,3.3519,3.3778,3.4005,3.458,3.4737,3.4868,3.5443,3.5835,3.6253,3.6854,3.7456,0.0,0.0,3.9155,3.9337,3.9549,3.9886,0.0,0.0,0.0,0.0,0.0,0.0,0.0,0.0,0.0,0.0,0.0,0.0,0.0,0.0,0.0,0.0,0.0,0.0,0.0,4.4434,4.365,4.3049,4.2709,4.2004,4.249,4.4279,4.4298,4.5562,4.8027,4.7788,4.7668,4.7668,4.7529,4.7602,4.7858,4.8091,4.8301,4.848,4.8563,4.8583,4.8583,4.8583,4.8583,4.8583,4.8583,4.8583,4.8583,0.0,0.0,0.0,0.0,0.0,0.0,0.0,0.0,0.0,0.0,0.0,0.0,0.0,0.0,0.0,0.0,0.0,0.0,0.0,3.2889,3.2839,3.224,3.2194,3.1964,3.1432,3.0864,3.0412,3.0055,3.1758,3.216,3.1411,3.2562,3.3014,3.2788,3.1989,3.1863,3.224,3.2726,3.2693,3.2391,3.3178,3.3577,0.0,0.0,0.0,0.0,0.0,0.0,0.0,0.0,3.3199,3.3625,3.3659,3.3757,3.3953,3.4528,3.4554,3.4528,3.5129,3.5574,3.5992,3.6567,0.0,0.0,3.8789,3.9311,3.9703,4.0045,4.0123,0.0,0.0,0.0,0.0,0.0,0.0,0.0,0.0,0.0,0.0,0.0,0.0,0.0,0.0,0.0,0.0,0.0,0.0,0.0,0.0,4.2944,4.2291,4.2448,4.1691,4.2474,4.4883,4.4514,4.5304,4.7309,4.7309,4.7309,4.7309,4.7495,4.7752,4.8007,4.8218,4.8396,4.8583,4.8583,4.8583,4.8583,4.8583,4.8583,4.8583,4.8583,4.8583,4.8583,0.0,0.0,0.0,0.0,0.0,0.0,0.0,0.0,0.0,0.0,0.0,0.0,0.0,0.0,0.0,0.0,0.0,0.0,3.1436,3.2462,3.2839,3.2219,3.2194,3.1964,3.1432,3.0884,3.0588,3.0588,3.1135,3.1406,3.1411,3.2562,3.2788,3.2194,3.2194,3.2215,3.219,3.2491,3.2615,3.2662,3.3411,3.3704,0.0,0.0,0.0,0.0,0.0,0.0,0.0,0.0,3.3613,3.3613,3.3613,3.3979,3.4528,3.5129,3.4868,3.4528,3.5129,3.5286,3.5417,0.0,0.0,0.0,3.9207,3.9599,3.9914,4.1064,0.0,0.0,0.0,0.0,0.0,0.0,0.0,0.0,0.0,0.0,0.0,0.0,0.0,0.0,0.0,0.0,0.0,0.0,0.0,0.0,0.0,4.2474,4.1924,4.1299,4.1299,4.2286,4.4289,4.4312,4.5304,4.7309,4.7309,4.7309,4.7309,4.7495,4.7752,4.8007,4.8218,4.8427,4.8583,4.8583,4.8583,4.8583,4.8583,4.8583,4.8583,4.8583,4.8583,4.8583,0.0,0.0,0.0,0.0,0.0,0.0,0.0,0.0,0.0,0.0,0.0,0.0,0.0,0.0,0.0,0.0,0.0,0.0,3.2612,3.2914,3.3014,3.2839,3.2441,3.2139,3.1964,3.1065,3.0588,3.0588,3.1135,3.1406,3.1432,3.2139,3.2164,3.1662,3.2039,3.187,3.1382,3.2629,3.2805,3.2357,3.3508,3.3979,3.4,0.0,0.0,0.0,0.0,0.0,0.0,0.0,0.0,0.0,3.4443,3.4767,3.5077,3.5234,3.5182,3.5077,3.526,3.5286,0.0,3.5495,0.0,0.0,0.0,3.9311,0.0,0.0,0.0,0.0,0.0,0.0,0.0,0.0,0.0,0.0,0.0,0.0,0.0,0.0,0.0,0.0,0.0,0.0,0.0,0.0,0.0,0.0,0.0,4.1873,4.1481,4.1299,4.1299,4.2286,4.4289,4.4312,4.5304,4.7309,4.743,4.7495,4.7516,4.7773,4.8007,4.8239,4.8427,4.8542,4.8583,4.8583,4.8583,4.8583,4.8583,4.8583,4.8583,4.8583,4.8583,4.8583,0.0,0.0,0.0,0.0,0.0,0.0,0.0,0.0,0.0,0.0,3.008,0.0,0.0,0.0,0.0,0.0,0.0,0.0,0.0,0.0,3.2989,3.2742,3.239,3.2093,3.1888,3.126,3.1014,3.126,3.1135,3.1185,3.1432,3.1964,3.1913,3.1432,3.2067,3.207,3.163,3.2582,3.2849,3.2653,3.3529,3.4028,3.423,0.0,0.0,0.0,0.0,0.0,0.0,0.0,0.0,0.0,3.5323,3.547,3.5626,3.5626,3.5469,3.5286,3.5286,3.5443,0.0,3.5913,0.0,0.0,0.0,0.0,0.0,0.0,0.0,0.0,0.0,0.0,0.0,0.0,0.0,0.0,0.0,0.0,0.0,0.0,0.0,0.0,0.0,0.0,0.0,0.0,0.0,0.0,0.0,4.1638,4.1299,4.1299,4.1299,4.2286,4.4289,4.4312,4.5304,4.7309,4.7495,4.7645,4.7773,4.8007,4.8197,4.8322,4.85,4.8583,4.8583,4.8583,4.8583,4.8583,4.8583,4.8583,4.8583,4.8583,4.8583,4.8583,0.0,0.0,0.0,0.0,0.0,0.0,0.0,0.0,0.0,0.0,2.9804,3.0206,0.0,0.0,0.0,0.0,0.0,0.0,0.0,0.0,3.2839,3.224,3.2144,3.1913,3.1461,3.1432,3.1662,3.2194,3.1115,3.0864,3.1432,3.1913,3.1838,3.1356,0.0,3.259,3.2555,3.2452,3.2757,3.3337,3.3526,3.3927,3.4397,3.4397,0.0,0.0,0.0,0.0,0.0,0.0,0.0,0.0,3.6096,3.6096,3.6123,3.6175,3.5809,3.5391,3.5443,0.0,0.0,3.6933,0.0,0.0,0.0,0.0,0.0,0.0,0.0,0.0,0.0,0.0,0.0,0.0,0.0,0.0,0.0,0.0,0.0,0.0,0.0,0.0,0.0,0.0,0.0,0.0,0.0,0.0,0.0,4.1611,4.1299,4.1299,4.1299,4.2286,4.4289,4.4312,4.5304,4.7331,4.7546,4.7773,4.8028,4.8218,4.8322,4.8343,4.85,4.8583,4.8583,4.8583,4.8583,4.8583,4.8583,4.8583,4.8583,4.8583,4.8583,4.8583,0.0,0.0,0.0,0.0,0.0,0.0,0.0,0.0,0.0,0.0,0.0,0.0,0.0,0.0,0.0,0.0,0.0,0.0,0.0,0.0,3.2839,3.224,3.1813,3.1712,3.2039,3.1612,3.1662,3.2194,3.1115,3.0864,3.1406,3.1512,3.1286,3.0834,0.0,3.2407,3.2224,3.2358,3.2838,3.3546,3.3587,3.3927,3.4397,3.4397,3.4397,0.0,0.0,0.0,0.0,0.0,0.0,0.0,3.6096,3.6096,3.6201,3.6671,3.6384,3.6044,3.6515,3.6724,0.0,0.0,3.8893,0.0,0.0,0.0,0.0,0.0,0.0,0.0,0.0,0.0,0.0,0.0,0.0,0.0,0.0,0.0,0.0,0.0,0.0,0.0,0.0,0.0,0.0,0.0,0.0,0.0,4.1533,4.1376,4.1299,4.1299,4.1299,4.2286,4.4289,4.4312,4.5395,0.0,4.7794,4.8028,4.8239,4.8281,4.8406,4.8521,4.8563,4.8583,4.8583,4.8583,4.8583,4.8583,4.8583,4.8583,4.8583,4.8583,4.8583,4.8583,0.0,0.0,0.0,0.0,0.0,0.0,0.0,0.0,0.0,0.0,0.0,0.0,0.0,0.0,0.0,0.0,0.0,0.0,0.0,0.0,0.0,3.1863,3.1788,3.1788,3.1813,3.1788,3.2064,3.2616,3.1512,0.0,0.0,0.0,0.0,3.1595,0.0,3.2669,3.2632,3.257,3.2938,3.3587,3.3587,3.3927,3.4397,3.4397,3.4397,3.4476,3.5077,0.0,0.0,0.0,0.0,0.0,0.0,0.0,3.6541,3.6567,3.6541,3.6488,3.6253,0.0,0.0,3.8841,0.0,0.0,0.0,0.0,0.0,0.0,0.0,0.0,0.0,0.0,0.0,0.0,0.0,0.0,0.0,0.0,0.0,0.0,0.0,0.0,0.0,0.0,0.0,0.0,0.0,4.1638,4.1299,4.1299,4.1299,4.1299,4.1769,4.2744,4.4289,4.4776,4.5891,4.7602,4.7858,4.7972,4.7978,4.8315,4.848,4.8583,4.8583,4.8583,4.8583,4.8583,4.8583,4.8583,4.8583,4.8583,4.8583,4.8583,4.8583,4.8583,0.0,0.0,0.0,0.0,0.0,0.0,0.0,0.0,0.0,0.0,0.0,0.0,0.0,0.0,0.0,0.0,0.0,0.0,0.0,0.0,0.0,3.1733,3.2014,3.2039,3.1708,3.2139,3.2541,3.2939,0.0,0.0,0.0,0.0,0.0,3.2463,0.0,3.3081,3.3338,3.2886,3.3091,3.3718,3.366,3.3927,3.4397,3.4528,0.0,3.4633,3.5338,3.5521,3.5495,3.594,0.0,0.0,0.0,0.0,3.6881,3.6279,3.6541,3.6802,3.5835,0.0,3.8553,4.0019,4.0829,0.0,0.0,0.0,0.0,0.0,0.0,0.0,0.0,0.0,0.0,0.0,0.0,0.0,0.0,0.0,0.0,0.0,0.0,0.0,0.0,0.0,0.0,0.0,0.0,4.1299,4.1299,4.1299,4.1299,4.1299,4.2088,4.3105,4.4289,4.5144,4.6277,4.7666,4.7843,4.773,4.7465,4.8019,4.8245,4.8245,4.8245,4.8245,4.8245,4.8245,4.8307,4.843,4.843,4.8491,4.8583,4.8583,4.8583,4.8583,0.0,0.0,0.0,0.0,0.0,0.0,0.0,0.0,0.0,0.0,0.0,0.0,0.0,0.0,0.0,0.0,0.0,0.0,3.309,0.0,0.0,3.2864,3.2441,3.2416,3.2864,3.2939,3.2742,3.2315,0.0,0.0,0.0,0.0,0.0,3.1945,0.0,0.0,3.3928,3.3062,3.33,3.4241,3.377,3.3927,3.445,0.0,0.0,0.0,0.0,3.6436,3.5992,3.607,3.6462,0.0,0.0,0.0,3.6881,3.6279,3.6541,3.6959,0.0,0.0,3.9547,0.0,4.0829,4.1299,0.0,0.0,0.0,0.0,0.0,0.0,0.0,0.0,0.0,0.0,0.0,0.0,0.0,0.0,0.0,0.0,0.0,0.0,0.0,0.0,0.0,0.0,4.1299,4.1299,4.1299,4.1299,4.1299,4.1299,4.1423,4.2382,4.4289,4.4429,4.5666,4.7943,4.7731,4.7343,4.6726,4.6819,4.688,4.688,4.688,4.688,4.688,4.688,4.7219,4.7742,4.7742,4.8112,4.8583,4.8583,4.8583,4.8583,0.0,0.0,0.0,0.0,0.0,0.0,0.0,0.0,0.0,0.0,0.0,0.0,0.0,0.0,0.0,3.219,3.2742,3.309,3.309,3.2864,3.2667,3.2591,3.234,3.2319,3.2591,3.2591,3.2616,0.0,0.0,0.0,0.0,3.2361,3.2557,0.0,0.0,0.0,0.0,0.0,3.445,3.492,3.4972,3.4972,0.0,0.0,0.0,0.0,0.0,0.0,0.0,3.5652,3.56,3.5574,3.5704,0.0,0.0,0.0,3.6541,3.7142,3.7795,3.8527,3.9311,0.0,4.0594,4.0881,4.1221,0.0,0.0,0.0,0.0,0.0,0.0,0.0,0.0,0.0,0.0,0.0,0.0,0.0,0.0,0.0,0.0,0.0,0.0,0.0,0.0,0.0,4.1299,4.1299,4.1299,4.1299,4.1299,4.1299,4.1843,4.2816,4.4289,4.4869,4.5895,4.7418,4.6803,4.6326,4.6038,4.5669,4.5884,4.6603,4.6603,4.6603,4.6603,4.6603,4.7004,4.7619,4.7619,4.7773,4.8112,4.846,4.8122,4.7527,0.0,0.0,0.0,0.0,0.0,0.0,0.0,0.0,0.0,0.0,0.0,0.0,0.0,0.0,0.0,0.0,3.2742,3.309,3.309,3.309,3.2914,3.2466,3.2441,3.2441,3.2441,3.2441,0.0,0.0,0.0,0.0,3.2615,3.2657,3.3187,0.0,3.411,0.0,0.0,0.0,0.0,0.0,0.0,0.0,0.0,0.0,0.0,0.0,0.0,0.0,0.0,0.0,0.0,0.0,0.0,0.0,0.0,0.0,0.0,0.0,0.0,0.0,3.9128,3.9967,4.0411,4.075,0.0,0.0,0.0,0.0,0.0,0.0,0.0,0.0,0.0,0.0,0.0,0.0,0.0,0.0,0.0,0.0,0.0,0.0,0.0,0.0,0.0,0.0,4.1299,4.1299,4.1299,4.1299,4.1221,4.1064,4.2204,4.3132,4.384,4.5174,4.607,4.6477,4.5883,4.5515,4.533,4.4837,4.5145,4.608,4.608,4.608,4.608,4.608,4.648,4.7096,4.7096,4.7188,4.7404,4.7927,4.7465,4.6665,0.0,0.0,0.0,0.0,0.0,0.0,0.0,0.0,0.0,0.0,0.0,0.0,0.0,3.2169,3.2194,3.2194,3.2742,3.309,3.309,3.309,3.309,3.3065,3.3065,0.0,3.3065,3.3065,0.0,0.0,0.0,0.0,3.2615,3.2797,3.3312,3.411,3.411,3.4807,3.594,0.0,0.0,0.0,0.0,0.0,0.0,0.0,0.0,0.0,0.0,0.0,0.0,0.0,0.0,0.0,0.0,0.0,0.0,0.0,0.0,0.0,0.0,3.8736,0.0,3.9651,4.0437,0.0,0.0,0.0,0.0,0.0,0.0,0.0,0.0,0.0,0.0,0.0,0.0,0.0,0.0,0.0,0.0,0.0,0.0,0.0,0.0,0.0,0.0,0.0,4.1299,4.1299,4.1299,4.1299,4.1038,4.0463,4.1989,4.2724,4.257,4.4862,4.5708,4.51,4.5443,4.5268,4.4652,4.4622,4.4622,4.4683,4.4683,4.4683,4.4683,4.4683,4.5114,4.5699,4.5699,4.608,4.6665,4.6696,4.6665,4.6603,0.0,0.0,0.0,0.0,0.0,0.0,0.0,0.0,0.0,0.0,0.0,0.0,0.0,3.2788,3.2788,3.2788,3.2989,3.309,3.309,3.309,3.309,3.309,3.2717,3.2692,3.309,3.2386,0.0,0.0,0.0,3.2663,3.3569,3.3339,3.399,3.5388,3.5388,3.5457,3.56,3.594,0.0,0.0,0.0,0.0,0.0,0.0,0.0,0.0,0.0,0.0,0.0,0.0,0.0,0.0,0.0,0.0,0.0,0.0,0.0,0.0,0.0,0.0,0.0,3.9442,3.9913,4.0409,4.1116,4.1299,4.1299,0.0,0.0,0.0,0.0,0.0,0.0,0.0,0.0,0.0,0.0,0.0,0.0,0.0,0.0,0.0,0.0,0.0,0.0,0.0,0.0,4.1299,4.1299,4.0933,4.0888,4.128,4.1521,4.2178,4.3327,4.4691,4.5252,4.5009,4.4983,4.4837,4.4591,4.4591,4.4591,4.4591,4.4591,4.4591,4.4591,4.4591,4.4991,4.5607,4.5607,4.5761,4.5988,4.6419,4.6069,4.5391,0.0,0.0,0.0,0.0,0.0,0.0,0.0,0.0,0.0,0.0,0.0,0.0,0.0,0.0,3.309,3.309,3.309,3.309,3.309,3.309,3.3014,3.2813,3.2591,3.2591,3.2792,0.0,0.0,0.0,0.0,0.0,0.0,3.3567,3.4208,3.5705,3.5792,3.5835,0.0,0.0,0.0,3.5835,0.0,0.0,3.5365,0.0,0.0,0.0,0.0,0.0,0.0,0.0,0.0,0.0,0.0,0.0,0.0,0.0,0.0,0.0,3.7612,0.0,0.0,0.0,0.0,3.986,4.0776,0.0,4.1038,4.1247,0.0,0.0,0.0,0.0,0.0,0.0,0.0,0.0,0.0,0.0,0.0,0.0,0.0,0.0,0.0,0.0,0.0,0.0,0.0,0.0,4.1299,4.0749,4.0911,4.1996,4.1565,4.2166,4.3956,4.4408,4.4675,4.4645,4.4615,4.4591,4.4591,4.4591,4.4591,4.4591,4.4591,4.4591,4.4591,4.4591,4.4868,4.5268,4.5268,4.5268,4.533,4.5761,4.5361,4.4652,0.0,0.0,0.0,0.0,0.0,0.0,0.0,0.0,0.0,0.0,0.0,0.0,0.0,0.0,0.0,3.304,3.304,3.3065,3.3065,3.3065,3.2813,3.2219,3.2763,3.2788,3.224,0.0,0.0,0.0,0.0,0.0,0.0,0.0,3.3897,3.4891,3.5153,3.5887,3.6802,0.0,3.4789,3.5312,0.0,3.5312,3.5391,0.0,0.0,0.0,3.5521,3.5338,0.0,0.0,0.0,0.0,0.0,0.0,0.0,0.0,0.0,0.0,0.0,0.0,0.0,0.0,0.0,0.0,4.0254,0.0,4.0566,4.1142,4.1273,0.0,0.0,0.0,0.0,0.0,0.0,0.0,0.0,0.0,0.0,0.0,0.0,0.0,0.0,0.0,0.0,0.0,4.1299,4.1299,4.1299,4.0772,4.1078,4.243,4.2172,4.2749,4.4267,4.4075,4.4007,4.4007,4.44,4.4591,4.4591,4.4591,4.4591,4.4591,4.4591,4.4591,4.4591,4.4591,4.4591,4.4591,4.4591,4.4591,4.4591,4.4591,4.4591,4.4591,0.0,0.0,0.0,0.0,0.0,0.0,0.0,0.0,0.0,0.0,0.0,0.0,0.0,0.0,3.229,3.1888,3.1884,3.2014,3.2416,3.211,3.1964,3.2194,3.1989,3.2185,3.2839,0.0,0.0,0.0,0.0,0.0,0.0,0.0,0.0,0.0,3.4612,3.4816,3.5129,3.5495,0.0,0.0,3.5887,3.5887,0.0,0.0,0.0,0.0,0.0,3.6253,0.0,0.0,3.6907,3.6541,0.0,0.0,0.0,0.0,0.0,0.0,3.6881,0.0,0.0,0.0,0.0,0.0,3.9703,3.981,3.9967,4.0515,4.0646,4.0776,0.0,0.0,0.0,0.0,0.0,0.0,0.0,0.0,0.0,0.0,0.0,0.0,0.0,0.0,0.0,0.0,4.1299,4.1299,4.1299,4.1602,4.1892,4.2136,4.2652,4.316,4.3579,4.3864,4.4007,4.4007,4.44,4.4591,4.4591,4.4591,4.4591,4.4591,4.4591,4.4591,4.4591,4.4591,4.4591,4.4591,4.4591,4.4591,4.4591,4.4591,4.4591,4.4591,0.0,0.0,0.0,0.0,0.0,0.0,0.0,0.0,0.0,0.0,0.0,0.0,0.0,0.0,0.0,3.1432,3.1406,3.1537,3.1863,3.1562,3.1436,3.1516,3.1765,3.2104,3.2533,0.0,0.0,0.0,0.0,0.0,0.0,0.0,0.0,0.0,0.0,0.0,0.0,0.0,0.0,0.0,3.6018,0.0,0.0,3.675,3.6854,0.0,0.0,0.0,3.7273,3.7743,3.7508,0.0,0.0,0.0,0.0,0.0,0.0,0.0,0.0,0.0,0.0,0.0,0.0,0.0,3.8762,3.9076,3.9366,0.0,4.0069,4.015,4.0515,4.075,0.0,0.0,0.0,0.0,0.0,0.0,0.0,0.0,0.0,0.0,0.0,4.1299,4.1299,4.1299,4.1299,4.1263,4.1179,4.1892,4.2197,4.2013,4.284,4.329,4.329,4.3773,4.4007,4.4007,4.44,4.4591,4.4591,4.4591,4.4591,4.4591,4.4591,4.4591,4.4591,4.4591,4.4591,4.4591,4.4591,4.4591,4.4591,4.4591,4.4591,4.4591,0.0,0.0,0.0,0.0,0.0,0.0,0.0,0.0,0.0,0.0,0.0,0.0,0.0,0.0,0.0,0.0,3.121,3.1256,3.1311,3.1311,0.0,0.0,0.0,0.0,0.0,0.0,0.0,0.0,0.0,0.0,0.0,0.0,0.0,0.0,0.0,0.0,0.0,0.0,0.0,3.5521,3.6096,3.6619,0.0,0.0,3.79,0.0,3.79,3.8214,3.8553,3.8057,3.7534,0.0,0.0,0.0,0.0,0.0,3.5626,0.0,0.0,0.0,0.0,0.0,0.0,0.0,3.7691,3.8214,3.8762,3.9311,3.9416,3.9416,3.9416,3.986,4.0176,0.0,0.0,0.0,0.0,0.0,0.0,0.0,0.0,0.0,4.1299,4.1299,4.1299,4.1299,4.132,4.1258,4.107,4.1897,4.2293,4.2158,4.291,4.329,4.329,4.3773,4.4007,4.4007,4.44,4.4591,4.4591,4.4591,4.4591,4.4591,4.4591,4.4591,4.4591,4.4591,4.4591,4.4591,4.4591,4.4591,4.4591,4.4591,4.4591,4.4591,0.0,0.0,0.0,0.0,0.0,0.0,0.0,0.0,0.0,0.0,0.0,0.0,0.0,0.0,0.0,0.0,3.0105,3.0306,3.0733,0.0,0.0,0.0,0.0,0.0,0.0,0.0,0.0,0.0,0.0,0.0,0.0,0.0,0.0,0.0,0.0,0.0,0.0,0.0,0.0,3.6724,3.7325,0.0,3.7743,3.7874,3.79,3.79,3.79,3.7978,3.8057,0.0,3.7821,3.7639,0.0,0.0,0.0,0.0,0.0,0.0,0.0,0.0,0.0,0.0,0.0,0.0,3.7273,3.7639,3.8083,3.8214,3.824,3.824,3.824,3.8684,3.8893,3.8475,0.0,0.0,0.0,0.0,0.0,0.0,0.0,0.0,4.1299,4.1299,4.1299,4.1299,4.1539,4.1618,4.1413,4.2223,4.2794,4.306,4.321,4.329,4.329,4.3773,4.4007,4.4007,4.44,4.4591,4.4591,4.4591,4.4591,4.4591,4.4591,4.4591,4.4591,4.4591,4.4591,4.4591,4.4591,4.4591,4.4591,4.4591,4.4591,4.4591,0.0,0.0,0.0,0.0,0.0,0.0,0.0,0.0,0.0,0.0,0.0,0.0,0.0,0.0,0.0,0.0,0.0,0.0,0.0,0.0,0.0,0.0,0.0,0.0,0.0,0.0,0.0,0.0,0.0,0.0,0.0,0.0,0.0,0.0,0.0,0.0,0.0,0.0,3.6201,3.7011,3.7011,0.0,3.79,3.79,3.79,3.79,3.79,3.79,3.7952,3.8214,3.8135,0.0,0.0,3.7246,3.6881,0.0,3.6149,3.607,0.0,0.0,0.0,3.6096,0.0,0.0,0.0,3.6802,3.7011,3.7011,3.7011,3.7011,3.7011,0.0,3.8214,3.7952,3.9076,4.0122,0.0,0.0,0.0,0.0,0.0,0.0,4.0881,4.0829,4.0946,4.114,4.1322,4.1608,4.2137,4.2566,4.2956,4.33,4.329,4.3349,4.3498,4.3832,4.4065,4.4162,4.4458,4.4591,4.4591,4.4591,4.4591,4.4591,4.4591,4.4591,4.4591,4.4591,4.4591,4.4591,4.4591,4.4591,4.4591,4.4591,4.4591,4.4591,0.0,0.0,0.0,0.0,0.0,0.0,0.0,0.0,0.0,0.0,0.0,0.0,0.0,0.0,0.0,0.0,0.0,0.0,0.0,0.0,0.0,0.0,0.0,3.3511,0.0,0.0,0.0,0.0,0.0,0.0,0.0,0.0,0.0,0.0,0.0,0.0,0.0,0.0,0.0,3.7273,0.0,3.6933,3.79,3.79,3.79,3.79,3.79,3.79,3.7978,3.8397,0.0,3.79,3.79,3.7639,0.0,0.0,0.0,0.0,0.0,0.0,0.0,0.0,0.0,3.5704,0.0,0.0,0.0,3.5966,3.594,0.0,0.0,0.0,0.0,0.0,0.0,0.0,0.0,0.0,0.0,0.0,0.0,0.0,4.028,4.0228,4.0401,4.08,4.0976,4.1541,4.2599,4.2823,4.3025,4.33,4.329,4.3389,4.3616,4.3871,4.4085,4.4258,4.4477,4.4591,4.4591,4.4591,4.4591,4.4591,4.4591,4.4591,4.4591,4.4591,4.4591,4.4591,4.4591,4.4591,4.4591,4.4591,4.4591,4.461,3.2139,3.2265,0.0,0.0,0.0,0.0,0.0,0.0,0.0,0.0,0.0,0.0,0.0,0.0,0.0,0.0,0.0,0.0,3.1938,0.0,0.0,0.0,0.0,0.0,3.5564,0.0,0.0,0.0,0.0,0.0,0.0,0.0,0.0,0.0,3.56,0.0,0.0,0.0,3.709,0.0,3.7325,3.7299,0.0,3.79,3.79,3.79,3.79,3.79,3.7926,0.0,3.7952,3.79,0.0,3.8187,0.0,0.0,0.0,0.0,0.0,0.0,0.0,0.0,3.6462,0.0,0.0,0.0,3.5966,3.5495,0.0,0.0,0.0,0.0,0.0,0.0,0.0,0.0,3.6724,3.8397,3.9784,3.9784,3.9784,3.9782,0.0,3.9703,3.9846,4.0182,4.0985,4.1629,4.2059,4.2837,4.325,4.329,4.329,4.3309,4.3349,4.3793,4.4007,4.4046,4.44,4.4591,4.4591,4.4591,4.4591,4.4591,4.4591,4.4591,4.4591,4.4591,4.4591,4.4591,4.4591,4.4591,4.4591,4.4591,4.4591,4.4704,0.0,3.1537,0.0,0.0,0.0,0.0,0.0,0.0,0.0,0.0,0.0,0.0,0.0,0.0,0.0,0.0,0.0,3.3068,0.0,0.0,0.0,0.0,0.0,0.0,0.0,0.0,0.0,0.0,3.6828,0.0,0.0,0.0,0.0,0.0,3.6488,0.0,3.6096,0.0,0.0,0.0,0.0,0.0,0.0,3.8161,3.79,3.79,3.79,3.79,3.79,0.0,3.79,0.0,0.0,0.0,0.0,0.0,0.0,0.0,0.0,0.0,0.0,0.0,0.0,0.0,0.0,0.0,3.5051,0.0,0.0,0.0,0.0,0.0,0.0,0.0,3.6358,0.0,0.0,0.0,3.8344,0.0,0.0,0.0,0.0,0.0,0.0,4.0305,4.0758,4.1482,4.2708,4.311,4.329,4.329,4.329,4.3369,4.3537,4.3851,4.4065,4.4181,4.4458,4.4591,4.4591,4.4591,4.4591,4.4591,4.4591,4.4591,4.4591,4.4591,4.4591,4.4591,4.4591,4.4591,4.4591,4.4591,4.4837,4.5291,0.0,0.0,0.0,0.0,0.0,0.0,0.0,0.0,0.0,0.0,0.0,0.0,3.342,3.2792,0.0,0.0,0.0,3.4123,0.0,0.0,3.4553,0.0,0.0,0.0,0.0,0.0,0.0,0.0,0.0,0.0,0.0,0.0,0.0,0.0,0.0,3.7194,3.6123,0.0,0.0,3.8449,3.9285,3.952,3.9259,3.8449,3.8031,3.79,3.79,3.79,3.7926,3.8083,3.8135,0.0,3.8789,0.0,0.0,0.0,0.0,0.0,3.7665,0.0,0.0,0.0,0.0,0.0,0.0,0.0,0.0,0.0,0.0,0.0,0.0,0.0,0.0,0.0,0.0,3.675,0.0,0.0,0.0,0.0,0.0,0.0,0.0,0.0,3.8403,4.0201,4.035,4.1149,4.2961,4.322,4.329,4.329,4.329,4.3438,4.3695,4.389,4.4104,4.4316,4.4496,4.4591,4.4591,4.4591,4.4591,4.4591,4.4591,4.4591,4.4591,4.4591,4.4591,4.4591,4.4591,4.4498,4.4344,4.4529,4.5175,4.6057,3.2914,3.216,0.0,0.0,0.0,0.0,0.0,0.0,0.0,0.0,0.0,0.0,0.0,0.0,0.0,0.0,0.0,3.5207,3.4678,0.0,3.448,0.0,0.0,0.0,0.0,0.0,0.0,0.0,0.0,0.0,0.0,0.0,0.0,0.0,0.0,3.7874,3.7874,3.8449,3.9024,3.9547,3.9599,3.9259,3.8713,0.0,3.837,3.79,3.79,0.0,0.0,3.8501,3.8684,0.0,0.0,0.0,0.0,0.0,0.0,0.0,0.0,0.0,0.0,3.8004,0.0,0.0,0.0,0.0,3.6044,0.0,0.0,0.0,0.0,0.0,0.0,0.0,0.0,0.0,0.0,0.0,0.0,0.0,0.0,0.0,0.0,3.7377,3.774,3.9494,3.9683,4.0539,4.2314,4.3,4.329,4.329,4.329,4.3438,4.3695,4.389,4.4104,4.4316,4.4496,4.4591,4.4591,4.4591,4.4591,4.4591,4.4591,4.4591,4.4591,4.4591,4.4591,4.4591,4.4591,4.419,4.3716,4.4344,4.5522,4.6874,0.0,0.0,0.0,0.0,0.0,0.0,0.0,3.4374,0.0,0.0,0.0,0.0,0.0,0.0,3.5828,0.0,0.0,3.6076,3.6037,3.5757,0.0,0.0,0.0,3.6315,0.0,0.0,0.0,0.0,0.0,0.0,0.0,0.0,0.0,0.0,0.0,3.79,0.0,0.0,0.0,0.0,0.0,4.015,3.9311,0.0,0.0,3.8004,3.8762,3.8789,0.0,3.9102,3.9311,3.939,3.9941,3.9993,3.9888,4.0071,3.9993,0.0,0.0,0.0,3.9601,3.8661,0.0,0.0,0.0,0.0,0.0,0.0,0.0,0.0,0.0,0.0,0.0,0.0,0.0,0.0,0.0,0.0,0.0,0.0,0.0,0.0,0.0,0.0,0.0,3.9011,4.0016,4.1078,4.2322,4.297,4.329,4.329,4.329,4.3438,4.3695,4.389,4.4104,4.4316,4.4496,4.4591,4.4591,4.4591,4.4591,4.4591,4.4591,4.4591,4.4591,4.4591,4.4591,4.4591,4.4591,4.419,4.3679,4.4356,4.4921,4.5732,3.5088,0.0,0.0,0.0,0.0,0.0,0.0,0.0,0.0,0.0,3.5929,0.0,3.7337,0.0,3.6758,0.0,3.6959,3.6879,3.6711,3.6544,0.0,3.6149,3.6422,0.0,0.0,0.0,0.0,0.0,0.0,3.7926,0.0,0.0,0.0,0.0,0.0,0.0,3.7978,0.0,3.9808,0.0,0.0,4.0435,0.0,0.0,3.9181,3.8318,0.0,3.9364,3.9128,3.9703,3.9862,3.9967,4.0541,4.0463,4.0254,4.062,4.0488,4.0174,3.9939,4.0148,0.0,3.9259,3.9,0.0,3.7821,0.0,0.0,0.0,0.0,0.0,0.0,0.0,0.0,0.0,0.0,0.0,0.0,3.4737,0.0,0.0,0.0,0.0,0.0,0.0,3.779,3.8058,3.9479,4.0705,0.0,4.2491,4.307,4.329,4.329,4.3448,4.3793,4.3929,4.4143,4.44,4.4534,4.4591,4.4591,4.4591,4.4591,4.4591,4.4591,4.4591,4.4591,4.4591,4.4591,4.4591,4.4591,4.4347,4.4021,4.4436,4.5253,4.6558,0.0,0.0,0.0,0.0,3.4514,0.0,0.0,0.0,3.5732,0.0,3.6909,3.7437,3.8015,3.7613,3.7513,3.8015,3.804,0.0,3.6838,3.6812,0.0,0.0,3.6016,3.6148,3.6436,0.0,0.0,0.0,0.0,0.0,0.0,0.0,0.0,0.0,3.8135,0.0,3.8031,3.9128,3.9625,3.9677,4.0176,4.0071,3.9677,4.0228,3.9732,3.8867,3.9468,3.9677,3.9705,4.0254,4.0437,4.0541,4.1116,4.1299,4.1299,4.1299,4.1299,4.1168,4.0594,4.0437,4.0306,3.9758,0.0,0.0,0.0,0.0,3.8606,0.0,0.0,0.0,0.0,0.0,0.0,0.0,0.0,0.0,0.0,0.0,0.0,0.0,0.0,0.0,0.0,3.6658,3.6593,3.6783,3.8226,3.9494,0.0,4.1673,4.269,4.326,4.329,4.3527,4.4007,4.4007,4.422,4.4591,4.4591,4.4591,4.4591,4.4591,4.4591,4.4591,4.4591,4.4591,4.4591,4.4591,4.4591,4.4591,4.4591,4.465,4.471,4.4658,4.653,4.9261,3.8918,3.8376,3.7503,0.0,3.4911,3.4904,0.0,0.0,0.0,0.0,3.7713,3.8165,3.9145,3.9145,3.8944,3.8693,3.8668,0.0,0.0,0.0,0.0,3.8062,3.8435,3.8577,3.8469,3.8077,0.0,3.79,0.0,0.0,3.7665,0.0,0.0,0.0,0.0,0.0,3.8553,3.9285,3.981,4.0226,4.0332,4.0071,0.0,0.0,4.0594,4.0019,4.0671,4.0592,4.028,4.0855,4.1064,4.1115,4.1247,4.1299,4.1299,4.1299,4.1299,4.1272,4.109,4.1064,4.0933,4.0332,4.0176,4.0045,0.0,0.0,0.0,0.0,0.0,0.0,0.0,0.0,0.0,0.0,0.0,0.0,0.0,0.0,0.0,3.5051,0.0,0.0,3.5088,3.5936,3.6586,3.6872,3.8265,3.9699,4.1047,0.0,0.0,4.326,4.329,4.3527,4.4007,4.4007,4.422,4.4591,4.4591,4.4591,4.4591,4.4591,4.4591,4.4591,4.4591,4.4591,4.4591,4.4591,4.4591,4.4591,4.4591,4.4593,4.4715,4.5294,4.732,4.9878,3.9159,0.0,0.0,3.7304,0.0,0.0,3.7034,0.0,0.0,3.8414,3.8969,0.0,4.0155,4.0353,4.0199,3.9647,3.9725,0.0,0.0,0.0,0.0,3.897,3.926,3.9358,3.9188,3.883,0.0,3.8658,0.0,0.0,3.8135,0.0,0.0,0.0,0.0,3.8083,0.0,3.9259,3.9758,4.0071,4.0331,0.0,0.0,4.0646,4.0855,4.0829,4.1193,4.1064,4.0853,4.1193,4.1299,4.1299,4.1299,4.1299,4.1299,4.1299,4.1299,4.1299,4.1299,4.1299,4.1221,4.0881,4.0776,4.0671,4.0071,3.9965,3.9705,0.0,0.0,0.0,0.0,0.0,0.0,0.0,0.0,0.0,0.0,0.0,0.0,0.0,3.5436,0.0,3.4997,3.6338,3.7175,3.7054,3.8393,3.9735,0.0,0.0,0.0,4.326,4.3389,4.3655,4.4007,4.4104,4.4285,4.4591,4.4591,4.4591,4.4591,4.4591,4.4591,4.4591,4.4591,4.4591,4.4591,4.4591,4.4591,4.4667,4.5326,4.5757,4.6143,4.6915,4.8016,4.9187,0.0,0.0,0.0,0.0,0.0,0.0,0.0,3.8212,0.0,3.9373,0.0,4.0969,4.1022,4.1239,4.1207,4.0757,0.0,4.072,3.9902,3.9926,3.9793,3.9447,3.9469,3.9469,3.9469,3.9635,0.0,0.0,0.0,0.0,0.0,0.0,0.0,0.0,0.0,0.0,0.0,3.9128,3.9573,3.9756,4.0202,4.0359,4.0306,4.0463,4.075,4.1115,4.1247,4.1299,4.1299,4.1299,4.1299,4.1299,4.1299,4.1299,4.1299,4.1299,4.1299,4.1299,4.1299,4.1299,4.1299,4.1299,4.1299,4.1142,4.0644,4.0515,4.0176,3.905,3.8841,3.8632,0.0,0.0,0.0,0.0,0.0,0.0,0.0,0.0,0.0,0.0,0.0,0.0,3.61,3.7192,3.7717,3.7371,3.8509,3.9599,0.0,0.0,0.0,4.316,4.3477,4.3754,4.4007,0.0,4.4362,4.4591,4.4591,4.4591,4.4591,4.4591,4.4591,4.4591,4.4591,4.4591,4.4591,4.4591,4.4648,4.488,4.6393,4.7289,4.7866,4.8702,4.8597,4.8157,0.0,0.0,0.0,0.0,0.0,3.9947,4.0499,3.9949,3.9674,4.0201,4.0855,4.1337,4.1604,4.168,4.1759,4.187,4.195,0.0,0.0,0.0,0.0,4.0611,4.0811,4.0936,4.0936,4.0489,4.0254,0.0,0.0,0.0,0.0,0.0,0.0,0.0,0.0,0.0,3.9914,3.9157,0.0,4.0254,4.0359,4.0123,3.986,4.0776,4.062,4.0043,4.0959,4.1299,4.1299,4.1299,4.1299,4.1299,4.1299,4.1299,4.1299,4.1299,4.1299,4.1299,4.1299,4.1299,4.1299,4.1299,4.1299,4.1273,4.1168,4.1142,4.0827,3.9677,3.9442,3.9128,3.8083,0.0,0.0,0.0,0.0,0.0,0.0,0.0,0.0,0.0,0.0,0.0,0.0,3.7066,3.6652,3.7935,3.8275,0.0,0.0,0.0,4.1762,0.0,4.3099,0.0,0.0,0.0,4.4258,4.4591,4.4591,4.4591,4.4591,4.4591,4.4591,4.4591,4.4591,4.4591,4.4591,4.4591,4.4955,4.566,4.7137,4.739,4.717,4.85,4.8917,4.9003,0.0,0.0,0.0,0.0,0.0,0.0,0.0,4.232,0.0,4.1619,4.1956,4.2243,4.2404,4.2711,4.2816,4.2644,4.2726,4.2601,4.206,4.2268,4.2189,4.1591,4.1692,0.0,4.1299,4.0698,4.0385,4.0385,0.0,0.0,0.0,0.0,0.0,0.0,0.0,3.9311,0.0,0.0,0.0,4.0411,4.0724,4.0515,4.0122,4.0959,4.0775,4.0148,4.0985,4.1299,4.1299,4.1299,4.1299,4.1299,4.1299,4.1299,4.1299,4.1299,4.1299,4.1299,4.1299,4.1299,4.1299,4.1299,4.1299,4.1299,4.1299,4.1299,4.0959,3.981,3.9599,3.9259,3.8109,3.7665,0.0,0.0,0.0,0.0,0.0,0.0,0.0,0.0,0.0,0.0,0.0,0.0,0.0,0.0,0.0,0.0,0.0,0.0,4.1703,0.0,0.0,0.0,0.0,0.0,0.0,4.4591,4.4591,4.4591,4.4591,4.4591,4.4591,4.4591,4.4591,4.4591,4.4629,4.5011,4.5606,4.6393,4.7473,4.7929,4.8028,4.8726,4.9476,5.022,0.0,4.2743,0.0,0.0,4.1975,0.0,4.3627,4.4229,4.4145,4.3254,4.3375,4.3594,4.3648,4.4059,4.4112,4.3601,4.3741,4.3591,4.2917,4.2945,4.2762,4.2212,4.2081,4.1768,4.1299,4.0829,4.0567,0.0,0.0,0.0,0.0,0.0,0.0,0.0,0.0,0.0,0.0,0.0,4.0385,4.0437,4.1038,4.0776,4.0123,4.0959,4.0776,4.0123,4.0829,4.109,4.109,4.109,4.1194,4.1299,4.1299,4.1299,4.1299,4.1299,4.1299,4.1299,4.1299,4.1299,4.1299,4.1299,4.1299,4.1299,4.1299,4.1299,4.0959,3.981,3.9416,3.8972,3.8057,3.8034,0.0,0.0,0.0,0.0,0.0,0.0,0.0,0.0,0.0,0.0,0.0,0.0,0.0,0.0,0.0,0.0,4.0157,0.0,0.0,0.0,0.0,4.3949,4.4007,0.0,4.4553,4.4591,4.4591,4.4591,4.4591,4.4591,4.4591,4.4591,4.4591,4.4591,4.4667,4.5551,4.6287,4.6914,4.7803,4.8497,4.9052,4.9357,5.0186,5.1235,0.0,0.0,0.0,0.0,0.0,0.0,4.4114,4.47,4.4979,4.4878,4.5164,4.5448,4.5677,4.5757,4.5689,4.5368,4.5371,4.4929,4.3833,4.3284,4.2762,4.2212,4.1664,4.1376,4.1299,4.1247,4.1221,0.0,0.0,0.0,0.0,0.0,0.0,0.0,0.0,0.0,0.0,4.0332,4.0385,4.0437,4.1038,4.0306,3.905,4.0672,4.028,3.9,4.0071,4.0463,4.0463,4.0463,4.0829,4.1299,4.1299,4.1299,4.1299,4.1299,4.1299,4.1299,4.1299,4.1299,4.1299,4.1299,4.1299,4.1299,4.1299,4.1299,4.0959,3.981,3.8789,3.8031,3.7926,3.8549,3.9072,0.0,0.0,0.0,0.0,0.0,0.0,0.0,0.0,0.0,0.0,3.9671,0.0,0.0,3.9391,0.0,0.0,0.0,0.0,4.1493,0.0,4.3812,4.4007,4.4239,4.44,4.4591,4.4591,4.4591,4.4591,4.4591,4.4591,4.4591,4.4591,4.4591,4.4704,4.6127,4.6759,4.6948,4.8354,4.8923,4.9154,5.0491,5.1066,5.1404,0.0,0.0,0.0,0.0,0.0,0.0,0.0,4.601,4.6322,4.663,4.6177,4.5879,4.5995,4.6191,4.6256,4.6159,4.5792,4.54,4.4957,4.4355,4.3781,4.3232,4.2631,4.2186,4.1872,4.1507,4.1299,0.0,0.0,0.0,0.0,0.0,0.0,0.0,0.0,4.0515,4.0411,4.0776,4.0933,4.0959,4.1194,4.0463,3.9364,4.0359,3.9888,3.8815,3.9651,3.9914,3.9967,4.028,4.0803,4.1299,4.1299,4.1299,4.1299,4.1299,4.1299,4.1299,4.1299,4.1299,4.1299,4.1299,4.1299,4.1299,4.1299,4.1299,4.0959,3.981,3.9124,3.8684,3.8684,3.9409,4.0238,0.0,0.0,0.0,0.0,0.0,0.0,0.0,0.0,0.0,0.0,0.0,0.0,0.0,0.0,0.0,0.0,0.0,0.0,4.1403,0.0,4.391,4.4007,4.4305,4.4515,4.4591,4.4591,4.4591,4.4591,4.4591,4.4591,4.4591,4.4591,4.4843,4.5363,4.6393,4.6807,4.6963,4.8409,4.8748,4.8462,4.951,5.0168,5.0642,4.7371,0.0,4.5434,0.0,4.6005,4.5808,4.6904,4.71,4.7292,4.7769,4.7149,4.6656,4.6656,4.6856,4.6867,4.6527,4.6107,4.5714,4.5348,4.4773,4.4225,4.3677,4.3075,0.0,4.1951,4.1533,4.1194,4.1038,4.0594,0.0,0.0,0.0,0.0,0.0,4.015,4.0541,4.0202,4.0776,4.1038,4.1038,4.1221,4.062,3.9677,4.02,3.9784,3.8998,3.9259,3.9468,3.9651,3.981,4.0409,4.1064,4.1247,4.1299,4.1374,4.1645,4.1522,4.1348,4.1672,4.1522,4.1299,4.1299,4.1299,4.1299,4.1299,4.1299,4.1012,4.0043,4.0026,4.0051,3.9553,4.0467,4.1468,4.1922,0.0,0.0,0.0,0.0,0.0,0.0,0.0,4.1074,4.0187,0.0,0.0,0.0,0.0,0.0,0.0,0.0,0.0,0.0,0.0,0.0,0.0,4.4419,4.4591,4.4591,4.4591,4.4591,4.4591,4.4406,4.4332,4.4283,4.4098,4.4402,4.515,4.5872,4.6437,4.6922,4.8182,4.8496,4.8326,4.9052,4.9661,5.015,4.9421,4.9024,4.8686,4.815,4.7398,4.7056,4.7626,4.7677,4.7821,4.8143,4.8172,4.8172,4.8172,4.8172,4.773,4.6606,4.6501,4.5976,4.4773,4.4199,4.365,0.0,0.0,4.1924,4.1299,4.1299,4.1012,4.0411,0.0,0.0,4.0385,0.0,3.9758,3.8736,3.9364,3.9625,3.9627,4.0176,4.0411,4.0463,4.1038,4.062,3.9677,4.02,4.0045,3.952,3.8896,3.9079,3.952,3.8919,3.947,4.0515,4.109,4.1299,4.1498,4.2504,4.209,4.1522,4.2501,4.2065,4.1299,4.1299,4.1299,4.1299,4.1299,4.1299,4.1116,4.0515,4.1548,4.2038,4.04,4.1683,4.2773,4.2113,0.0,0.0,0.0,0.0,0.0,0.0,4.1403,4.0894,3.9541,0.0,0.0,0.0,0.0,0.0,0.0,0.0,0.0,4.1674,4.3213,0.0,4.4285,4.4496,4.4591,4.4591,4.4591,4.4591,4.456,4.3913,4.3624,4.3593,4.291,4.3016,4.3674,4.4424,4.5538,4.6889,4.7628,4.836,4.9086,4.9796,5.0083,5.0202,4.9677,4.8816,4.8214,4.8617,4.8205,4.7785,4.7707,4.7909,4.8084,4.8172,4.8201,4.8201,4.8201,4.8201,4.7885,0.0,4.6708,4.6159,0.0,4.4747,4.4199,4.365,4.3049,4.2474,4.1924,4.1507,4.1194,4.1012,0.0,0.0,0.0,3.9677,3.9677,3.9337,3.9913,4.0359,4.0724,4.0489,4.0644,4.1012,4.1221,4.0853,4.015,4.0332,3.981,3.8972,3.8789,3.8606,3.8568,3.9371,3.975,4.0007,4.0837,4.0892,4.0746,4.1063,4.1428,4.1726,4.1762,4.2041,4.2333,4.2333,4.2333,4.2333,4.2333,4.1987,4.1665,4.145,4.2511,4.3321,4.2794,4.3351,4.382,4.3612,4.3428,0.0,0.0,0.0,0.0,0.0,0.0,4.1044,0.0,3.966,0.0,0.0,0.0,0.0,0.0,0.0,0.0,0.0,4.3316,0.0,4.4316,4.4496,4.4591,4.4591,4.4591,4.4591,4.456,4.3901,4.3593,4.3581,4.3372,4.3979,4.5166,4.5865,4.6673,4.7631,4.8351,4.8496,4.8326,4.9086,4.9357,4.9406,5.0434,4.9376,4.8555,4.8673,4.8408,4.8192,4.8195,4.8394,4.8538,4.8538,4.8538,4.8433,4.8198,4.8201,0.0,4.7359,4.6967,4.6473,4.5661,4.5243,4.4617,4.3598,4.3206,4.2657,4.1898,4.1507,0.0,4.0959,4.0803,4.0488,4.0017,4.0618,4.0671,4.0228,4.0567,4.0803,4.0933,4.0541,4.075,4.1299,4.1299,4.1286,4.1258,4.0783,4.0434,4.0041,3.9196,3.8914,3.9007,3.9559,4.0009,4.0376,4.0722,4.0826,4.0878,4.1116,4.1521,4.2002,4.2477,4.2989,4.3273,4.2889,4.3081,4.3273,4.2889,4.3089,4.3143,4.2389,4.3794,4.4987,4.4327,4.4461,4.4586,4.4326,4.3758,4.329,4.329,0.0,0.0,0.0,0.0,0.0,0.0,4.0397,4.0217,0.0,0.0,0.0,0.0,0.0,0.0,4.2311,4.3602,0.0,4.44,4.4534,4.4591,4.4591,4.4591,4.4591,4.456,4.3901,4.3593,4.3599,4.3625,4.4294,4.5421,4.614,4.7002,4.7954,4.8394,4.8462,4.836,4.8834,4.9018,4.9018,5.1457,5.0489,4.9588,0.0,4.8338,0.0,4.9035,4.9169,4.9169,4.9169,4.9169,4.896,4.8384,4.8306,4.8041,4.7464,0.0,0.0,0.0,4.5609,4.4825,4.3075,4.2997,4.2448,4.1325,4.1299,4.1063,4.0515,4.1163,4.1713,4.2212,4.2787,4.2447,4.1376,4.1299,4.1012,4.0515,4.0437,4.075,4.1299,4.1299,4.1893,4.2656,4.1493,4.1654,4.2228,4.0122,3.9897,4.0496,3.9673,4.0327,4.1403,4.0864,4.1103,4.1683,4.2261,4.226,4.2429,4.4193,4.4544,4.4195,4.3249,4.3725,4.4172,4.3225,4.4447,4.5281,4.3388,4.5304,4.684,4.5266,4.5191,4.5155,4.4496,4.3818,4.3349,4.329,0.0,0.0,0.0,0.0,0.0,0.0,4.1433,4.1164,0.0,0.0,0.0,0.0,0.0,4.2262,4.3257,4.3968,4.44,4.4591,4.4591,4.4591,4.4591,4.4591,4.4591,4.456,4.3901,4.3593,4.3599,4.3717,4.4156,4.4837,4.5626,4.6745,4.7988,4.7988,4.8394,4.9018,4.9018,4.9018,4.9018,0.0,0.0,4.9951,5.0151,4.9473,4.9061,4.961,4.9688,4.9688,4.9688,4.9688,4.9636,4.9505,4.9113,4.8826,4.8695,4.7829,4.6811,4.5661,4.5609,4.4825,4.3075,4.2997,4.2448,4.1325,4.1299,4.1455,4.1767,4.2753,4.2861,4.2211,4.3153,4.3023,4.1977,4.1507,4.1481,4.1715,4.0801,4.075,4.1299,4.1299,4.1893,4.2711,4.1907,4.1989,4.2351,4.1351,4.078,4.0689,4.1155,4.139,4.1512,4.1636,4.1924,4.2205,4.1846,4.2531,4.3453,4.3607,4.4521,4.5395,4.5138,4.5281,4.5395,4.5138,4.5463,4.5666,4.5184,4.6255,4.7184,4.6767,4.633,4.5822,4.5185,4.4496,4.3878,4.3349,4.329,0.0,0.0,4.241,4.2351,4.2171,4.1703,4.1553,0.0,0.0,0.0,0.0,4.2746,4.303,4.3307,4.4101,4.4553,4.4591,4.4591,4.4591,4.4591,4.4591,4.4591,4.456,4.3901,4.3593,4.3636,4.4221,4.4865,4.5633,4.6893,4.7934,4.8732,4.8732,4.8849,4.9018,4.9018,4.9018,4.9,5.0962,5.0061,4.9636,4.9956,4.969,4.9636,5.0211,5.0315,5.0315,5.0315,5.0315,5.0211,4.9923,4.9401,4.9117,4.9117,4.825,4.7307,4.6445,4.6393,4.5714,4.4251,4.3702,4.3127,4.25,4.1716,4.1837,4.2919,4.3261,4.378,4.4453,4.4825,4.4546,4.3691,4.3347,4.324,4.3239,4.26,4.2818,4.3608,4.3608,4.4004,4.4555,4.3892,4.3698,4.3654,4.2568,4.2015,4.1852,4.1955,4.2125,4.2357,4.2553,4.2719,4.2786,4.2447,4.3276,4.432,4.4254,4.5325,4.6506,4.6506,4.6144,4.5801,4.5801,4.6166,4.6344,4.5891,4.6594,4.7309,4.7309,4.648,4.5723,4.5364,4.4496,4.3728,4.3349,4.329,0.0,4.2851,4.2791,4.2791,4.2791,4.2491,4.2351,4.2526,4.2582,0.0,4.3118,4.3525,4.3803,4.3898,4.4349,4.4591,4.4591,4.4591,4.4591,4.4591,4.4591,4.4591,4.4591,4.4221,4.4067,4.413,4.5191,4.5905,4.638,4.7818,4.8646,4.9018,4.9018,4.9018,4.9018,4.9018,4.9018,4.9034,5.1432,5.0322,4.9429,4.9251,4.9584,5.0106,5.0707,5.0786,5.0812,5.089,5.0917,5.0707,5.0211,4.9662,4.9296,4.9247,4.8698,4.8041,4.7359,4.7307,4.687,4.5911,4.4861,4.4309,4.4414,4.2959,4.2799,4.401,4.3996,4.5071,4.7066,4.6952,4.6543,4.5871,4.5762,4.546,4.4968,4.4884,4.5428,4.6284,4.6284,4.6576,4.6876,4.6092,4.5646,4.523,4.3751,4.3239,4.319,4.2456,4.2679,4.329,4.329,4.3349,4.3429,4.3319,4.411,4.5002,4.5236,4.6292,4.7309,4.7309,4.666,4.6054,4.6054,4.6682,4.7062,4.6211,4.6704,4.7309,4.7309,4.6292,4.5424,4.5304,4.4267,4.3429,4.329,0.0,4.329,4.329,4.329,4.329,4.329,4.3329,4.3218,4.2872,4.3432,4.3687,4.3471,4.4018,4.44,4.4591,4.4591,4.4591,4.4591,4.4591,4.4591,4.4591,4.4591,4.4591,4.4591,4.4591,4.4591,4.4685,4.6056,4.6622,4.6759,4.8242,4.8829,4.8845,4.8938,4.9018,4.9018,4.9018,4.9,4.9065,5.0079,5.0474,5.0966,4.9977,4.9845,5.0106,5.0707,5.0786,5.0943,5.1413,5.1465,5.1439,5.1335,5.0864,5.0315,4.9819,4.93,4.8486,4.7385,4.7307,4.7238,4.7136,4.6407,4.6253,4.6773,4.6389,4.5801,4.5001,4.7389,4.8034,4.7041,4.846,4.8564,4.7597,4.7066,4.6811,4.6671,4.6241,4.6139,4.6284,4.6284,4.6857,4.7532,4.6266,4.5918,4.595,4.4571,4.3727,4.327,4.315,4.319,4.329,4.329,4.3698,4.4027,4.3489,4.4215,4.5257,4.5293,4.6292,4.7309,4.7309,4.7171,4.7062,4.7062,4.7201,4.7266,4.7084,4.7201,4.7309,4.7309,4.6659,4.5942,4.5394,4.4646,4.3938,4.3399,0.0,4.329,4.329,4.329,4.329,4.329,4.3498,4.3606,4.3554,4.3966,4.4178,4.4163,4.4396,4.4572,4.4591,4.4591,4.4591,4.4591,4.4591,4.4591,4.4591,4.4591,4.4591,4.4591,4.4591,4.4591,4.4648,4.5497,4.5877,4.6003,4.7456,4.808,4.8129,4.8767,4.9018,4.9018,4.9018,4.9061,4.9168,5.0329,5.0191,5.0323,5.0385,5.0368,5.0577,5.1126,5.123,5.1309,5.157,5.1596,5.1596,5.1596,5.1126,5.0551,4.9949,4.9401,4.8721,4.7858,4.778,4.7931,4.8246,4.6999,4.6103,4.5681,4.6247,4.6571,4.6604,4.7024,4.7918,4.9243,4.9141,4.8995,4.8844,4.8583,4.844,4.8411,4.8174,4.8399,4.8955,4.8955,4.8987,4.9037,4.8417,4.7859,4.7249,4.6292,4.5274,4.4326,4.3967,4.3609,4.329,4.329,4.3499,4.3698,4.3379,4.4237,4.5304,4.5304,4.6292,4.7219,4.6839,4.7018,4.7309,4.7309,4.7309,4.7309,4.7309,4.7309,4.7309,4.7309,4.6471,4.5663,4.5334,4.4416,0.0,0.0,4.329,4.3409,4.3818,4.3848,4.3967,4.4326,4.4258,4.4398,4.491,4.4539,4.4477,4.496,4.5087,4.5145,4.5145,4.4776,4.4591,4.4591,4.4591,4.4591,4.4591,4.4591,4.4591,4.4591,4.4591,4.4591,4.4629,4.54,4.5931,4.6393,4.7456,4.8129,4.8529,4.8861,4.9018,4.9018,4.9077,4.9138,4.9229,5.1041,5.0182,4.9766,5.0629,5.0786,5.0943,5.1335,5.1413,5.1465,5.157,5.1596,5.1596,5.1596,5.123,5.0681,4.9949,4.9505,4.9104,4.8635,4.8582,4.8834,4.9364,4.8257,4.6979,4.572,4.6747,4.7501,4.7915,4.7035,4.8014,5.0727,4.9687,4.9483,4.9979,4.9979,4.9979,4.9979,4.9979,5.0436,5.1206,5.1206,5.0877,5.0428,5.0255,4.9501,4.8438,4.7608,4.6441,4.5185,4.4526,4.3967,4.3519,4.3349,4.3409,4.3519,4.3349,4.4237,4.5364,4.5663,4.6411,4.6929,4.642,4.6779,4.7279,4.71,4.7189,4.7309,4.7309,4.7309,4.7309,4.7309,4.6322,4.5544,4.5544,0.0,0.0,0.0,4.3758,4.3967,4.4476,4.4536,4.4756,4.5327,4.5091,4.5223,4.6011,4.5297,4.5125,4.5803,4.5834,4.5834,4.5834,4.5176,4.4837,4.4837,4.4683,4.4683,4.4837,4.4683,4.4591,4.4591,4.4591,4.4591,4.4629,4.54,4.6038,4.6605,4.7523,4.8225,4.8767,4.8923,4.9034,4.9046,4.9153,4.926,4.935,5.1869,5.1113,5.0681,5.0786,5.0786,5.0812,5.0838,5.0864,5.1021,5.1518,5.1596,5.1596,5.1596,5.157,5.11,5.0002,4.9845,4.9798,4.9783,4.9787,4.9993,5.0562,5.1333,5.1131,4.9779,5.0458,4.9998,4.8268,4.9938,5.0312,4.9456,5.0531,5.1052,5.1058,5.1058,5.1058,5.1058,5.1058,5.1135,5.1206,5.1206,5.1176,5.1056,5.0458,4.9793,4.9067,4.7758,4.6441,4.5185,4.4526,4.4267,4.4117,4.3519,4.3728,4.4087,4.3469,4.4237,4.5574,4.683,4.6749,4.636,4.63,4.6779,4.716,4.651,4.6839,4.7309,4.7309,4.7309,4.7309,4.7309,4.6719,4.6241,4.6241,0.0,0.0,4.5155,4.5155,4.5155,4.5214,4.5214,4.5327,4.5644,4.5808,4.6011,4.6264,4.6372,4.646,4.6511,4.6511,4.6511,4.6511,4.5884,4.5545,4.5545,4.4899,4.4899,4.5515,4.4899,4.4591,4.4591,4.4591,4.4591,4.4629,4.54,4.5733,4.5895,4.7305,4.795,4.8048,4.8736,4.9061,4.9184,4.9199,4.9396,4.9664,5.1159,5.065,5.0446,5.1178,5.1021,5.0917,5.123,5.1282,5.1361,5.157,5.1596,5.1596,5.1596,5.1309,5.076,4.9949,5.0247,5.0305,4.9899,5.1264,5.1618,5.0612,5.1218,5.099,4.9673,5.0249,5.0009,4.8917,4.9666,4.9786,4.9307,5.0159,5.0578,5.0607,5.0996,5.1206,5.1206,5.1206,5.1206,5.1206,5.1206,5.1206,5.1176,5.0907,5.0428,4.9793,4.9291,4.7975,4.6501,4.6262,4.5603,4.4885,4.4616,4.4736,4.4945,4.5104,4.4925,4.5065,4.683,4.713,4.6809,4.639,4.6779,4.7249,4.698,4.6779,4.6779,4.7219,4.6958,4.6809,4.7219,4.6749,4.63,4.63,0.0,4.5304,4.5304,4.5304,4.5454,4.5873,4.5912,4.6167,4.6819,4.6696,4.6884,4.7507,4.6944,4.6788,4.7188,4.7219,4.7219,4.7219,4.6973,4.6634,4.6203,4.5145,4.4929,4.5607,4.4929,4.4591,4.4591,4.4591,4.4855,4.5308,4.557,4.6202,4.7103,4.7655,4.8161,4.8608,4.8984,4.9092,4.9107,4.9411,4.9545,4.959,5.1844,5.1606,5.1633,5.262,5.215,5.1768,5.2139,5.1877,5.1596,5.1596,5.1596,5.1544,5.1361,5.1334,5.1024,5.0231,5.0895,5.1233,5.1017,5.2658,5.3059,5.1712,5.1571,5.1109,5.0235,5.0398,5.0122,4.9277,4.9486,4.9396,4.9007,4.98,5.0196,5.0226,5.0907,5.1206,5.1206,5.1206,5.1206,5.1206,5.1206,5.1206,5.1206,5.1206,5.0787,5.0166,4.9979,4.8805,4.7279,4.7048,4.6381,4.5574,4.5364,4.5304,4.5424,4.6091,4.5642,4.5284,4.689,4.7309,4.716,4.648,4.6779,4.7249,4.7018,4.6779,4.6749,4.7219,4.6929,4.6749,4.7219,4.6899,4.66,4.66,4.6232,4.5933,4.5933,4.5933,4.6112,4.654,4.66,4.6907,4.7658,4.7486,4.7604,4.8355,4.7661,4.7342,4.7588,4.7619,4.7619,4.7619,4.7404,4.7157,4.6911,4.5576,4.5145,4.5607,4.4929,4.4591,4.4591,4.4591,4.4881,4.5363,4.5854,4.6614,4.7586,4.8045,4.8545,4.9018,4.9092,4.9138,4.9184,4.9515,4.9668,4.9698,5.4399,5.4457,5.471,5.5299,5.4323,5.351,5.351,5.2408,5.1596,5.1627,5.1627,5.1418,5.0869,5.1834,5.2038,5.0931,5.1848,5.276,5.3364,5.3917,5.4221,5.4221,5.2935,5.2187,5.2187,5.1558,5.0571,4.9277,4.989,4.9531,4.8319,4.9591,5.0196,5.0196,5.0877,5.1176,5.1176,5.1176,5.1176,5.1176,5.1206,5.1206,5.1206,5.1206,5.0787,5.0129,4.9516,4.8468,4.7219,4.654,4.63,4.6181,4.5514,4.5304,4.5454,4.6121,4.63,4.645,4.713,4.7309,4.716,4.648,4.6809,4.713,4.645,4.6809,4.7309,4.7309,4.7309,4.7309,4.7309,4.7309,4.7309,4.7309,4.7309,4.7309,4.7309,4.7309,4.7309,4.7309,4.7309,4.7503,4.7943,4.8007,4.8175,4.8563,4.8583,4.8307,4.765,4.7619,4.7619,4.7619,4.6973,4.6942,4.7588,4.6265,4.5607,4.5607,4.4929,4.4591,4.4591,4.461,4.4614,4.4713,4.6159,4.6796,4.6939,4.8402,4.9018,4.9018,4.8984,4.9233,4.9486,4.9486,4.9713,5.0011,5.5018,5.5102,5.4896,5.4176,5.3724,5.3207,5.2315,5.1846,5.175,5.2158,5.2225,5.2341,5.2601,5.2537,5.2349,5.2016,5.2701,5.3564,5.459,5.4823,5.47,5.4221,5.2935,5.2187,5.2187,5.1086,5.0122,4.9277,4.9486,4.8895,4.7638,4.8955,4.9314,4.8895,4.9576,4.9875,4.9905,5.0308,5.0518,5.0548,5.0996,5.1206,5.1206,5.1206,5.0787,5.0166,5.0009,4.9105,4.7967,4.7758,4.7399,4.698,4.677,4.6381,4.6121,4.6779,4.6659,4.645,4.713,4.7309,4.7249,4.707,4.716,4.7249,4.707,4.6779,4.6719,4.7219,4.6561,4.6172,4.713,4.692,4.6749,4.7219,4.7309,4.7309,4.7309,4.7309,4.7309,4.7309,4.7409,4.7624,4.7964,4.8133,4.8343,4.8563,4.8583,4.8491,4.8307,4.8276,4.8276,4.8276,4.8091,4.7865,4.7619,4.6265,4.5607,4.5607,4.4929,4.4591,4.461,4.5142,4.5642,4.6194,4.7173,4.785,4.8368,4.884,4.908,4.9153,4.929,4.9396,4.9515,4.9757,4.9816,4.983,5.5681,5.6365,5.6451,5.518,5.4975,5.4533,5.3298,5.287,5.2815,5.3204,5.3018,5.2894,5.3023,5.3132,5.3122,5.2893,5.3619,5.4406,5.5154,5.5179,5.5029,5.461,5.3294,5.2606,5.2606,5.1558,5.0667,5.0055,4.9546,4.8738,4.7698,4.8528,4.8678,4.8349,4.9007,4.9277,4.9337,4.992,5.0196,5.0255,5.0936,5.1206,5.1206,5.1206,5.0787,5.0166,4.992,4.9164,4.8259,4.7997,4.7638,4.7369,4.7608,4.7249,4.6809,4.7489,4.7219,4.6779,4.7189,4.7309,4.7309,4.7309,4.7309,4.7309,4.7309,4.701,4.6809,4.7219,4.6651,4.6352,4.716,4.6958,4.6809,4.7249,4.7309,4.7309,4.7309,4.7309,4.7309,4.7309,4.7473,4.7709,4.7964,4.8197,4.8355,4.8563,4.8583,4.846,4.8235,4.8481,4.8337,4.7835,4.8081,4.7773,4.6819,4.5988,4.5484,4.5207,4.4776,4.4606,4.4644,4.5371,4.6109,4.6829,4.7589,4.817,4.867,4.8975,4.9168,4.932,4.9441,4.9515,4.959,4.9816,4.986,4.9845,5.6482,5.789,5.8689,5.7412,5.7187,5.6792,5.5558,5.4821,5.44,5.4486,5.3895,5.3276,5.2823,5.3721,5.4161,5.3603,5.459,5.5179,5.5179,5.5149,5.5059,5.4999,5.3857,5.3169,5.3109,5.2336,5.1678,5.1116,4.9763,4.8798,4.8229,4.8229,4.8229,4.8259,4.8858,4.9127,4.9157,4.977,5.0016,5.0099,5.0817,5.1116,5.1116,5.1176,5.0817,5.0219,4.9546,4.8947,4.8356,4.7638,4.7369,4.7429,4.8019,4.7788,4.7429,4.8027,4.7788,4.7309,4.7309,4.7309,4.7309,4.7309,4.7309,4.7309,4.7309,4.7309,4.7279,4.7219,4.716,4.713,4.713,4.713,4.716,4.7219,4.7279,4.7309,4.7309,4.7309,4.7309,4.7331,4.7495,4.773,4.8007,4.8218,4.8396,4.8583,4.8583,4.8337,4.7742,4.8266,4.8019,4.6726,4.7281,4.6973,4.5699,4.5638,4.5268,4.4591,4.4667,4.4737,4.4816,4.5574,4.625,4.6958,4.7684,4.8095,4.8243,4.8923,4.9335,4.9515,4.9515,4.959,4.9723,4.9723,4.9845,5.0011,5.7711,5.8462,5.8689,5.7412,5.7187,5.6792,5.5558,5.4821,5.4573,5.5041,5.452,5.4238,5.4598,5.4849,5.4973,5.4824,5.5053,5.5179,5.5179,5.47,5.4192,5.3677,5.3348,5.2959,5.2426,5.0774,5.0092,5.0428,4.8626,4.7668,4.7519,4.7519,4.7519,4.7519,4.7668,4.7728,4.7788,4.8416,4.8716,4.8805,4.9949,5.0428,5.0465,5.0996,5.1116,5.0817,4.9726,4.9494,4.962,4.8476,4.7728,4.7339,4.7489,4.7429,4.7339,4.7489,4.7429,4.7309,4.7309,4.7309,4.7309,4.7309,4.7309,4.7309,4.7309,4.7309,4.716,4.6629,4.6112,4.5723,4.5723,4.5723,4.5903,4.642,4.6958,4.7309,4.7309,4.7309,4.7374,4.7516,4.7752,4.8007,4.8218,4.8427,4.8542,4.8583,4.8583,4.8522,4.8368,4.8522,4.8235,4.7404,4.7527,4.7219,4.6388,4.5865,4.5268,4.461,4.5197,4.547,4.5529,4.6833,4.7523,4.7718,4.8539,4.8944,4.8976,4.9297,4.9515,4.9649,4.9649,4.9786,4.9918,4.9918,4.9982,5.0011,5.7244,5.8231,5.86,5.7034,5.7516,5.7693,5.6451,5.6189,5.6281,5.6589,5.6051,5.564,5.5667,5.5683,5.5564,5.5209,5.5179,5.5179,5.5179,5.488,5.4371,5.3713,5.3378,5.3049,5.2665,5.075,5.0062,5.0697,4.8745,4.7788,4.7758,4.7459,4.7309,4.7309,4.7309,4.7309,4.7339,4.8019,4.8319,4.8386,4.968,5.0196,5.0255,5.0936,5.1206,5.1026,4.9756,4.9307,4.9172,4.8506,4.8079,4.7818,4.8169,4.7818,4.7369,4.7668,4.7549,4.7309,4.7309,4.7309,4.7309,4.7309,4.7309,4.7309,4.7309,4.7309,4.7219,4.6839,4.6501,4.6172,4.5843,4.5783,4.5882,4.6241,4.66,4.6929,4.7249,4.7309,4.7374,4.7581,4.7837,4.8133,4.8396,4.8521,4.8583,4.8583,4.8583,4.8583,4.8583,4.8583,4.8276,4.7619,4.7619,4.7127,4.6111,4.5792,4.5429,4.5123,4.5515,4.5723,4.5774,4.6946,4.766,4.8039,4.858,4.904,4.9456,4.9545,4.9679,4.9811,4.9432,4.9579,4.9927,4.9582,4.9651,5.0011,5.6641,5.7902,5.8622,5.7047,5.806,5.8743,5.7691,5.7823,5.8055,5.7935,5.7363,5.6705,5.6102,5.6042,5.5803,5.5239,5.5179,5.5179,5.5179,5.5089,5.479,5.4221,5.3443,5.3049,5.3049,5.1176,5.0548,5.1206,4.9254,4.8319,4.8289,4.7608,4.7309,4.7309,4.7309,4.7309,4.7339,4.7878,4.8139,4.8237,4.9531,5.0039,5.0129,5.0907,5.1206,5.1026,4.9853,4.9037,4.8498,4.8596,4.8558,4.8558,4.8977,4.8379,4.7549,4.7997,4.7728,4.7339,4.7429,4.7399,4.7339,4.7429,4.7399,4.7339,4.7459,4.7489,4.7429,4.7339,4.7309,4.707,4.6271,4.6121,4.6121,4.6121,4.6241,4.648,4.707,4.7249,4.7396,4.7624,4.7922,4.8239,4.8563,4.8583,4.8583,4.8583,4.8583,4.8583,4.8583,4.8583,4.8235,4.7465,4.7558,4.7022,4.582,4.5685,4.5802,4.6251,4.603,4.5928,4.6041,4.6975,4.7662,4.8167,4.8499,4.8973,4.9502,4.9551,4.957,4.9548,4.8858,4.9031,4.9548,4.8996,4.9238,4.9789,5.7846,5.853,5.9015,5.8763,5.8931,5.9045,5.8852,5.8423,5.7876,5.7304,5.6701,5.6072,5.5388,5.5354,5.5299,5.5209,5.5179,5.5179,5.5179,5.467,5.4286,5.4221,5.2995,5.2336,5.2336,5.0936,5.0548,5.1206,4.9254,4.8319,4.8289,4.7608,4.7309,4.7309,4.7309,4.7309,4.7309,4.7399,4.7429,4.7549,4.8887,4.9426,4.9546,5.075,5.1206,5.1086,5.0338,4.9673,4.9247,4.977,4.9613,4.9067,4.8588,4.8319,4.8079,4.7578,4.7369,4.7429,4.7997,4.7728,4.7429,4.8027,4.7728,4.7459,4.8027,4.8147,4.7997,4.7429,4.7309,4.692,4.5663,4.5424,4.5424,4.5424,4.5912,4.633,4.642,4.6929,4.7482,4.7901,4.8301,4.8521,4.8583,4.8583,4.8583,4.8583,4.8583,4.8583,4.8583,4.8583,4.805,4.6757,4.7311,4.7288,4.6634,4.5942,4.6584,4.8544,4.7274,4.6713,4.6881,4.8259,4.8704,4.8397,4.9193,4.9232,4.8747,4.8876,4.8554,4.7996,4.7893,4.7927,4.8065,4.8617,4.8858,4.9065,5.7633,5.8381,5.8979,5.8593,5.886,5.9099,5.9099,5.8504,5.7995,5.7723,5.7094,5.6462,5.5833,5.5418,5.5179,5.5179,5.5179,5.5179,5.5179,5.491,5.4581,5.4221,5.3653,5.2965,5.2217,5.1594,5.1086,5.0637,4.9075,4.8087,4.7728,4.7429,4.7309,4.7309,4.7309,4.7309,4.7309,4.7309,4.7309,4.7399,4.8349,4.8977,4.9337,4.9935,5.0361,5.0578,4.9912,4.9733,4.9853,5.0129,5.0009,4.9763,4.9441,4.8865,4.8259,4.7938,4.7848,4.7908,4.8207,4.8087,4.7908,4.8229,4.7788,4.7489,4.8169,4.8319,4.8229,4.7908,4.7549,4.701,4.6052,4.5873,4.5753,4.5364,4.5852,4.6181,4.5813,4.6406,4.7081,4.7534,4.8203,4.8583,4.8583,4.8583,4.8583,4.8583,4.8583,4.8583,4.8583,4.8583,4.8153,4.7188,4.7465,4.7141,4.6152,4.6209,4.6739,4.7779,4.7536,4.7289,4.7031,4.8233,4.8431,4.7926,4.8378,4.8621,4.869,4.8347,4.7996,4.7651,4.7238,4.71,4.7169,4.7927,4.8203,4.8238]}]]